     2.11           OBSERVATION DATA    G (GPS)             RINEX VERSION / TYPE
teqc 2010Oct21 OPUS Account 20111026 15:09:18UTC            PGM / RUN BY / DATE
B 1522                                                      MARKER NAME
1183                                                        MARKER NUMBER
CSMIDDLETON NGS                                             OBSERVER / AGENCY
4624K01583 TRIMBLE NETR5 4.41                               REC # / TYPE / VERS
60154430 TRM41249.00 NONE                                   ANT # / TYPE
  -739671.1100 -5489287.1166  3152134.0982                  APPROX POSITION XYZ
        2.0000        0.0000        0.0000                  ANTENNA: DELTA H/E/N
     1     1                                                WAVELENGTH FACT L1/2
     5    L1    L2    C1    P1    P2                        # / TYPES OF OBSERV
    15                                                      LEAP SECONDS
  2011     7    30     0     0    0.0000000     GPS         TIME OF FIRST OBS
                                                            END OF HEADER
 11  7 30  0  0  0.0000000  0  9G12G04G20G27G28G09G17G02G10
 130572841.277 5 101745075.598 5  24847177.680                    24847185.887
 104481178.658 8  81414082.55746  19882084.586                    19882091.793
 127931861.097 6  99687192.81743  24344606.477                    24344615.512
 117712359.606 7  91723965.88045  22399913.852                    22399921.414
 115387450.207 7  89912404.52945  21957493.180                    21957500.680
 116247949.872 7  90582897.69845  22121254.258                    22121261.996
 112881362.644 8  87959587.864 7  21480570.445                    21480576.969
 116151799.863 8  90507935.81245  22102913.297                    22102919.602
 122228036.529 6  95242660.99344  23259194.539                    23259204.359
 11  7 30  0  0 30.0000000  0  9G12G04G20G27G28G09G17G02G10
 130476327.862 5 101669870.392 5  24828811.891                    24828820.559
 104475911.037 8  81409977.92146  19881081.961                    19881089.359
 127974547.208 6  99720454.68943  24352729.742                    24352737.227
 117708909.880 7  91721277.75645  22399257.852                    22399265.773
 115443153.533 7  89955809.68545  21968092.813                    21968100.145
 116229541.012 7  90568553.12145  22117751.555                    22117758.859
 112913546.841 8  87984666.439 7  21486694.992                    21486701.363
 116076947.273 8  90449609.16845  22088669.758                    22088675.270
 122135573.563 6  95170612.01744  23241599.984                    23241609.230
 11  7 30  0  1  0.0000000  0  9G12G04G20G27G28G09G17G02G10
 130379775.519 5 101594634.844 5  24810438.219                    24810446.559
 104471208.497 8  81406313.60746  19880187.383                    19880194.699
 128017713.714 6  99754090.88842  24360943.641                    24360951.445
 117705948.707 7  91718970.32945  22398694.094                    22398701.793
 115499229.344 8  89999505.07345  21978764.523                    21978771.469
 116211772.043 7  90554707.16445  22114369.953                    22114378.078
 112945818.362 8  88009813.048 7  21492836.102                    21492843.227
 116002405.875 8  90391525.01345  22074484.813                    22074490.293
 122043206.355 6  95098637.67644  23224023.063                    23224032.262
 11  7 30  0  1 30.0000000  0  9G12G04G20G27G28G09G17G02G10
 130283185.381 5 101519369.861 5  24792056.805                    24792066.020
 104467070.667 8  81403089.33246  19879399.656                    19879407.180
 128061359.811 6  99788100.81342  24369249.164                    24369257.832
 117703475.981 7  91717043.51445  22398223.547                    22398231.574
 115555677.440 7  90043490.56345  21989505.570                    21989512.680
 116194643.294 7  90541360.07345  22111110.117                    22111118.125
 112978177.263 8  88035027.753 7  21498994.148                    21499000.695
 115928176.979 8  90333684.35745  22060359.414                    22060365.367
 121950938.117 6  95026740.42044  23206464.734                    23206474.559
 11  7 30  0  2  0.0000000  0  9G12G04G20G27G28G09G17G02G10
 130186559.176 6 101444076.751 5  24773670.008                    24773678.852
 104463496.588 8  81400304.34046  19878719.547                    19878726.863
 128105484.420 6  99822483.59342  24377646.242                    24377654.547
 117701491.222 7  91715496.93445  22397845.781                    22397854.164
 115612497.804 7  90087766.13045  22000318.766                    22000325.645
 116178154.829 7  90528511.90645  22107973.141                    22107980.734
 113010623.305 8  88060310.350 7  21505168.242                    21505175.094
 115854261.699 8  90276088.06145  22046294.305                    22046299.852
 121858772.108 7  94954922.81044  23188926.852                    23188935.262
 11  7 30  0  2 30.0000000  0  9G12G04G20G27G28G09G17G02G10
 130089898.547 6 101368756.807 5  24755276.102                    24755284.516
 104460485.497 8  81397958.04746  19878146.453                    19878153.566
 128150086.481 6  99857238.38142  24386132.563                    24386141.250
 117699993.906 7  91714330.16445  22397560.961                    22397568.891
 115669690.154 7  90132331.55745  22011201.977                    22011208.797
 116162306.906 7  90516162.86345  22104957.172                    22104964.188
 113043156.383 8  88085660.786 7  21511358.875                    21511366.230
 115780661.091 8  90218736.99245  22032288.313                    22032294.770
 121766711.619 6  94883187.44544  23171407.641                    23171416.727
 11  7 30  0  3  0.0000000  0  9G12G04G20G27G28G09G17G02G10
 129993204.873 6 101293411.117 5  24736876.492                    24736884.258
 104458037.087 8  81396050.19746  19877680.625                    19877688.055
 128195164.926 6  99892364.38242  24394711.305                    24394720.055
 117698983.864 7  91713543.09745  22397368.461                    22397376.809
 115727254.281 7  90177186.68845  22022155.641                    22022162.695
 116147099.512 8  90504312.93345  22102063.547                    22102071.293
 113075776.228 8  88111078.835 7  21517566.445                    21517573.043
 115707376.721 8  90161632.33045  22018342.367                    22018348.164
 121674760.258 7  94811537.12144  23153909.867                    23153918.785
 11  7 30  0  3 30.0000000  0  9G12G04G20G27G28G09G17G02G10
 129896479.870 6 101218041.040 5  24718469.422                    24718478.504
 104456150.336 8  81394580.00746  19877321.578                    19877329.063
 128240718.765 6  99927860.84942  24403380.344                    24403388.457
 117698460.464 7  91713135.22545  22397268.578                    22397277.227
 115785189.953 7  90222331.33145  22033180.867                    22033187.656
 116132532.773 7  90492962.21145  22099291.117                    22099299.918
 113108482.604 8  88136564.294 7  21523790.063                    21523796.613
 115634409.453 8  90104774.74645  22004457.352                    22004462.934
 121582920.991 7  94739974.10444  23136433.344                    23136442.469
 11  7 30  0  4  0.0000000  0  9G12G04G20G27G28G09G17G02G10
 129799725.170 6 101142647.833 5  24700058.039                    24700066.336
 104454824.516 8  81393546.90346  19877069.063                    19877076.598
 128286746.805 6  99963726.83442  24412139.273                    24412147.188
 117698423.533 7  91713106.42145  22397261.813                    22397270.398
 115843497.186 7  90267765.49245  22044276.047                    22044283.180
 116118606.673 7  90482110.70945  22096641.125                    22096649.320
 113141275.424 7  88162117.119 7  21530030.281                    21530037.207
 115561760.606 8  90048165.30346  21990632.328                    21990638.414
 121491196.930 7  94668500.89044  23118978.617                    23118987.555
 11  7 30  0  4 30.0000000  0  9G12G04G20G27G28G09G17G02G10
 129702942.072 6 101067232.508 5  24681641.352                    24681649.043
 104454058.683 8  81392950.14946  19876923.609                    19876930.832
 128333248.258 6  99999961.76943  24420988.539                    24420996.289
 117698872.358 7  91713456.12945  22397347.641                    22397355.641
 115902175.274 7  90313488.64445  22055442.516                    22055449.602
 116105321.337 7  90471758.45845  22094113.172                    22094121.082
 113174154.455 7  88187737.124 7  21536287.086                    21536294.418
 115489431.049 8  89991804.64945  21976868.594                    21976874.594
 121399591.679 7  94597120.24744  23101546.914                    23101556.176
 11  7 30  0  5  0.0000000  0  9G12G04G20G27G28G09G17G02G10
 129606132.265 6 100991796.354 6  24663218.531                    24663227.289
 104453852.194 8  81392789.24946  19876884.305                    19876891.805
 128380221.884 6 100036564.54342  24429926.961                    24429934.734
 117699806.170 7  91714183.74945  22397525.398                    22397533.750
 115961224.158 7  90359500.71545  22066678.961                    22066686.227
 116092676.748 7  90461905.52245  22091706.766                    22091713.953
 113207119.260 8  88213423.957 7  21542560.031                    21542567.016
 115417421.846 8  89935693.62445  21963165.813                    21963171.613
 121308108.262 6  94525834.51544  23084138.344                    23084147.043
 11  7 30  0  5 30.0000000  0  9G12G04G20G27G28G09G17G02G10
 129509297.342 6 100916340.581 5  24644790.758                    24644799.066
 104454203.932 8  81393063.33546  19876950.906                    19876958.488
 128427666.640 6 100073534.48242  24438955.078                    24438962.754
 117701224.472 7  91715288.88745  22397795.352                    22397803.379
 116020643.598 7  90405801.53345  22077986.148                    22077993.195
 116080672.831 7  90452551.80045  22089422.727                    22089429.965
 113240169.893 7  88239177.685 7  21548849.422                    21548856.383
 115345734.348 8  89879833.27246  21949523.828                    21949529.883
 121216750.000 6  94454646.34644  23066752.922                    23066762.059
 11  7 30  0  6  0.0000000  0  9G12G04G20G27G28G09G17G02G10
 129412438.937 6 100840866.531 6  24626360.156                    24626367.223
 104455112.712 8  81393771.47146  19877124.000                    19877131.480
 128475581.065 6 100110870.39942  24448073.180                    24448081.035
 117703126.605 7  91716771.04245  22398157.383                    22398165.301
 116080432.991 7  90452390.61645  22089363.516                    22089371.363
 116069309.118 7  90443696.94845  22087260.141                    22087268.133
 113273305.858 7  88264997.893 7  21555155.070                    21555161.984
 115274369.187 8  89824224.08845  21935943.672                    21935949.531
 121125520.021 6  94383558.10744  23049392.484                    23049401.191
 11  7 30  0  6 30.0000000  0  9G12G04G20G27G28G09G17G02G10
 129315558.790 6 100765375.578 6  24607924.234                    24607932.375
 104456577.989 8  81394913.24546  19877403.133                    19877410.238
 128523964.109 6 100148571.41242  24457279.258                    24457288.367
 117705512.190 7  91718629.91045  22398610.906                    22398619.422
 116140592.081 7  90499267.79645  22100811.867                    22100818.887
 116058585.929 7  90435341.19745  22085219.578                    22085227.715
 113306527.183 7  88290884.624 7  21561476.813                    21561484.152
 115203327.631 8  89768867.06845  21922424.984                    21922430.797
 121034421.604 6  94312572.41644  23032057.047                    23032065.867
 11  7 30  0  7  0.0000000  0  9G12G04G20G27G28G09G17G02G10
 129218658.582 6 100689868.999 6  24589483.625                    24589492.605
 104458599.055 8  81396488.10646  19877787.586                    19877795.152
 128572814.752 6 100186636.86743  24466576.297                    24466583.863
 117708380.898 7  91720865.27045  22399156.906                    22399165.277
 116201120.841 7  90546433.03145  22112330.313                    22112336.695
 116048503.039 7  90427484.38245  22083301.313                    22083308.320
 113339833.943 7  88316837.935 7  21567814.703                    21567821.582
 115132610.867 8  89713763.13046  21908967.977                    21908973.781
 120943458.275 7  94241691.97444  23014746.914                    23014755.605
 11  7 30  0  7 30.0000000  0  9G12G04G20G27G28G09G17G02G10
 129121739.757 6 100614347.916 6  24571041.172                    24571049.313
 104461174.825 8  81398495.19446  19878277.578                    19878284.645
 128622131.881 6 100225065.81443  24475961.117                    24475968.293
 117711732.218 7  91723476.65145  22399794.859                    22399802.414
 116262018.907 7  90593886.01945  22123918.570                    22123925.426
 116039060.157 7  90420126.28545  22081503.641                    22081511.711
 113373226.135 7  88342857.801 7  21574169.273                    21574176.230
 115062220.113 8  89658913.23746  21895572.602                    21895578.848
 120852633.209 7  94170919.24644  22997463.930                    22997472.898
 11  7 30  0  8  0.0000000  0  9G12G04G20G27G28G09G17G02G10
 129024804.276 6 100538813.806 6  24552595.117                    24552603.105
 104464304.732 8  81400934.08246  19878873.320                    19878880.887
 128671914.000 6 100263857.06043  24485434.250                    24485441.926
 117715565.382 7  91726463.51345  22400524.141                    22400532.133
 116323285.862 7  90641626.45345  22135577.258                    22135584.453
 116030257.565 7  90413267.10345  22079828.922                    22079836.688
 113406704.047 8  88368944.451 7  21580539.555                    21580546.961
 114992156.395 8  89604318.15945  21882240.195                    21882246.254
 120761950.018 7  94100257.09244  22980207.172                    22980215.863
 11  7 30  0  8 30.0000000  0  9G12G04G20G27G28G09G17G02G10
 128927853.145 6 100463267.508 6  24534146.211                    24534154.656
 104467986.767 8  81403803.20446  19879574.180                    19879581.434
 128722159.962 6 100303009.72743  24494996.086                    24495004.117
 117719879.190 7  91729824.89745  22401344.852                    22401353.441
 116384920.681 7  90689653.54745  22147306.039                    22147313.047
 116022094.396 7  90406906.17745  22078275.852                    22078283.813
 113440266.124 8  88395096.702 7  21586926.602                    21586933.664
 114922420.165 8  89549978.27146  21868969.836                    21868975.418
 120671411.335 7  94029707.52744  22962978.242                    22962986.457
 11  7 30  0  9  0.0000000  0  9G12G04G20G27G28G09G17G02G10
 128830888.527 6 100387710.740 6  24515693.875                    24515703.098
 104472220.565 8  81407102.27146  19880379.586                    19880387.027
 128772868.515 6 100342522.83743  24504645.867                    24504653.168
 117724673.275 7  91733560.51945  22402257.297                    22402264.879
 116446923.817 7  90737967.63045  22159104.914                    22159111.918
 116014570.523 7  90401043.40445  22076843.906                    22076851.602
 113473912.740 8  88421314.829 7  21593329.305                    21593335.949
 114853012.776 8  89495894.63346  21855761.672                    21855767.395
 120581020.694 7  93959273.32744  22945777.109                    22945786.016
 11  7 30  0  9 30.0000000  0  9G12G04G20G27G28G09G17G02G10
 128733912.368 6 100312144.961 6  24497239.133                    24497248.559
 104477005.254 8  81410830.60346  19881290.258                    19881297.418
 128824038.613 6 100382395.62343  24514382.234                    24514389.879
 117729947.060 7  91737669.93445  22403260.805                    22403268.844
 116509294.585 7  90786568.18145  22170973.625                    22170980.797
 116007685.830 7  90395678.70145  22075533.977                    22075541.500
 113507644.568 7  88447599.352 7  21599747.992                    21599755.520
 114783935.525 8  89442068.22546  21842617.203                    21842622.766
 120490781.615 7  93888957.24844  22928605.320                    22928613.930
 11  7 30  0 10  0.0000000  0  9G12G04G20G27G28G09G17G02G10
 128636926.083 6 100236571.233 6  24478784.320                    24478792.254
 104482339.475 8  81414987.13846  19882305.352                    19882312.547
 128875668.560 6 100422626.71443  24524207.672                    24524215.699
 117735699.721 7  91742152.51345  22404355.516                    22404363.555
 116572032.560 7  90835454.87545  22182912.453                    22182919.066
 116001439.888 7  90390811.71445  22074345.531                    22074353.781
 113541460.894 7  88473949.705 7  21606182.977                    21606189.789
 114715189.114 8  89388499.61946  21829534.773                    21829540.656
 120400697.277 7  93818761.69944  22911463.016                    22911471.313
 11  7 30  0 10 30.0000000  0  9G12G04G20G27G28G09G17G02G10
 128539931.440 6 100160991.029 6  24460326.219                    24460334.773
 104488222.438 8  81419571.27546  19883424.813                    19883432.090
 128927757.235 6 100463215.24343  24534119.531                    24534127.645
 117741930.803 7  91747007.87345  22405541.500                    22405549.102
 116635137.131 7  90884627.21945  22194920.781                    22194927.488
 115995832.247 7  90386442.11545  22073278.039                    22073285.719
 113575361.629 7  88500365.832 7  21612634.875                    21612641.113
 114646774.485 8  89335189.53646  21816516.172                    21816521.637
 120310771.127 7  93748689.44144  22894350.031                    22894359.293
 11  7 30  0 11  0.0000000  0  9G12G04G20G27G28G09G17G02G10
 128442930.139 6 100085405.650 6  24441868.094                    24441876.074
 104494652.659 8  81424581.82646  19884648.359                    19884655.352
 128980303.313 6 100504160.25443  24544118.750                    24544126.988
 117748639.202 7  91752235.16645  22406818.492                    22406826.035
 116698607.982 7  90934085.01045  22206998.930                    22207006.109
 115990862.683 7  90382569.70645  22072332.477                    22072340.469
 113609346.859 7  88526847.819 7  21619101.734                    21619108.809
 114578692.653 8  89282138.78546  21803560.852                    21803566.188
 120221006.074 7  93678742.73444  22877268.398                    22877277.133
 11  7 30  0 11 30.0000000  0  9G12G04G20G27G28G09G17G02G10
 128345923.746 6 100009816.337 6  24423407.664                    24423416.184
 104501628.999 8  81430017.93946  19885975.805                    19885983.094
 129033305.308 6 100545460.49943  24554204.773                    24554212.949
 117755824.064 7  91757833.74045  22408185.680                    22408193.309
 116762444.623 7  90983827.79645  22219146.625                    22219153.500
 115986530.548 7  90379194.01145  22071508.320                    22071515.672
 113643416.256 8  88553395.375 7  21625584.859                    21625591.566
 114510944.356 8  89229347.93346  21790668.688                    21790674.211
 120131405.694 7  93608924.31744  22860218.320                    22860226.742
 11  7 30  0 12  0.0000000  0  9G12G04G20G27G28G09G17G02G10
 128248914.348 6  99934224.678 6  24404947.422                    24404956.289
 104509151.191 8  81435879.38646  19887407.422                    19887414.539
 129086762.490 7 100587115.41543  24564377.531                    24564385.973
 117763485.141 7  91763803.38145  22409643.266                    22409651.035
 116826646.547 7  91033855.22345  22231364.086                    22231371.074
 115982835.872 7  90376315.02745  22070805.258                    22070812.840
 113677570.402 8  88580008.982 7  21632084.063                    21632090.855
 114443531.338 8  89176818.33846  21777840.242                    21777845.742
 120041973.771 7  93539237.16944  22843199.391                    22843208.656
 11  7 30  0 12 30.0000000  0  9G12G04G20G27G28G09G17G02G10
 128151903.544 6  99858631.933 6  24386487.148                    24386495.531
 104517217.242 8  81442164.62046  19888942.242                    19888949.789
 129140672.970 6 100629123.52943  24574635.828                    24574643.469
 117771620.985 7  91770142.98645  22411190.945                    22411199.352
 116891213.182 7  91084166.83045  22243650.359                    22243658.070
 115979777.550 7  90373931.88745  22070223.070                    22070230.758
 113711808.619 8  88606688.094 7  21638599.555                    21638606.480
 114376453.896 8  89124550.22946  21765075.797                    21765081.484
 119952712.929 7  93469683.34444  22826214.141                    22826223.090
 11  7 30  0 13  0.0000000  0  9G12G04G20G27G28G09G17G02G10
 128054893.248 7  99783039.558 6  24368026.625                    24368034.777
 104525826.106 8  81448872.82246  19890580.656                    19890587.648
 129195035.380 6 100671483.81543  24584980.695                    24584988.719
 117780230.918 8  91776852.00345  22412829.828                    22412837.273
 116956144.043 7  91134762.26345  22256006.414                    22256013.520
 115977355.322 7  90372044.43145  22069762.078                    22069770.277
 113746131.095 8  88633432.851 7  21645131.234                    21645137.926
 114309713.212 8  89072544.55046  21752375.406                    21752380.977
 119863626.532 7  93400265.44244  22809261.586                    22809269.813
 11  7 30  0 13 30.0000000  0  9G12G04G20G27G28G09G17G02G10
 127957885.113 6  99707448.837 6  24349566.555                    24349574.340
 104534976.692 8  81456003.14646  19892321.750                    19892329.082
 129249848.221 6 100714195.11843  24595411.250                    24595419.848
 117789314.251 7  91783929.89245  22414558.383                    22414566.477
 117021438.742 7  91185641.19645  22268432.141                    22268438.965
 115975568.710 7  90370652.26845  22069421.922                    22069430.086
 113780537.937 8  88660243.347 7  21651677.984                    21651684.898
 114243310.079 8  89020801.88246  21739739.297                    21739744.879
 119774718.101 7  93330986.19644  22792342.391                    22792350.969
 11  7 30  0 14  0.0000000  0  9G12G04G20G27G28G09G17G02G10
 127860880.516 6  99631860.931 6  24331106.992                    24331114.895
 104544667.727 8  81463554.59946  19894165.797                    19894173.570
 129305110.279 6 100757256.42743  24605927.773                    24605936.211
 117798869.928 8  91791375.85245  22416376.883                    22416384.926
 117087096.709 7  91236803.21145  22280926.195                    22280933.129
 115974417.222 7  90369754.99945  22069202.781                    22069210.840
 113815028.884 7  88687119.380 7  21658241.516                    21658249.207
 114177245.096 8  88969322.70946  21727167.594                    21727173.184
 119685990.898 7  93261848.16944  22775458.445                    22775466.621
 11  7 30  0 14 30.0000000  0  9G12G04G20G27G28G09G17G02G10
 127763881.694 7  99556277.467 6  24312648.867                    24312657.020
 104554897.881 8  81471526.14146  19896112.711                    19896119.785
 129360819.816 6 100800666.44343  24616528.305                    24616537.711
 117808897.147 7  91799189.24445  22418285.180                    22418292.848
 117153117.134 7  91288247.63745  22293489.781                    22293496.461
 115973900.095 7  90369352.03545  22069104.969                    22069112.078
 113849603.620 8  88714060.702 7  21664821.234                    21664828.316
 114111519.308 8  88918107.85646  21714660.305                    21714666.168
 119597448.336 7  93192854.02244  22758609.078                    22758618.094
 11  7 30  0 15  0.0000000  0  9G12G04G20G27G28G09G17G02G10
 127666890.380 7  99480699.863 6  24294192.211                    24294200.383
 104565666.312 8  81479917.12446  19898161.883                    19898169.391
 129416975.558 6 100844424.12243  24627214.906                    24627222.793
 117819394.985 7  91807369.34245  22420282.734                    22420290.438
 117219499.830 7  91339974.37245  22306121.328                    22306128.887
 115974016.932 7  90369443.06045  22069127.516                    22069134.742
 113884262.647 8  88741067.734 7  21671416.391                    21671423.641
 114046133.726 8  88867158.07746  21702217.773                    21702223.887
 119509094.077 7  93124006.61444  22741795.242                    22741804.297
 11  7 30  0 15 30.0000000  0 10G12G05G04G20G27G28G09G17G02G10
 127569908.409 7  99405129.531 6  24275736.656                    24275745.344
 134548738.02615                  25603771.219
 104576971.458 8  81488726.33146  19900313.172                    19900320.629
 129473576.077 6 100888528.37843  24637986.102                    24637993.047
 117830362.391 7  91815915.34745  22422369.820                    22422377.770
 117286244.017 7  91391982.76845  22318822.469                    22318829.848
 115974766.958 7  90370027.50745  22069269.516                    22069277.531
 113919005.729 7  88768140.232 7  21678027.867                    21678035.102
 113981089.129 8  88816474.00746  21689840.133                    21689846.000
 119420931.173 7  93055308.30944  22725019.242                    22725027.387
 11  7 30  0 16  0.0000000  0 10G12G05G04G20G27G28G09G17G02G10
 127472937.708 6  99329568.011 6  24257284.008                    24257292.133
 134451096.108 5                  25585191.266
 104588812.125 8  81497952.81946  19902566.383                    19902573.551
 129530619.766 6 100932977.97243  24648840.859                    24648849.328
 117841798.510 7  91824826.58045  22424546.305                    22424554.242
 117353348.932 7  91444272.26645  22331592.383                    22331599.262
 115976149.572 7  90371104.84745  22069532.203                    22069540.594
 113953832.709 7  88795278.116 7  21684655.500                    21684662.199
 113916386.536 8  88766056.43246  21677527.719                    21677533.480
 119332963.011 7  92986761.75044  22708279.188                    22708287.996
 11  7 30  0 16 30.0000000  0 10G12G05G04G20G27G28G09G17G02G10
 127375979.862 7  99254016.485 6  24238833.805                    24238841.598
 134353254.86015 104690889.48414  25566572.031
 104601186.600 8  81507595.27246  19904921.383                    19904928.383
 129588105.008 6 100977771.61643  24659779.813                    24659788.055
 117853702.205 7  91834102.17345  22426811.258                    22426819.086
 117420813.809 7  91496842.24845  22344430.648                    22344438.129
 115978163.751 7  90372674.32145  22069916.211                    22069923.723
 113988743.617 7  88822481.402 7  21691298.508                    21691305.484
 113852026.540 8  88715905.82046  21665280.641                    21665286.449
 119245192.563 7  92918369.24444  22691577.055                    22691585.387
 11  7 30  0 17  0.0000000  0 10G12G05G04G20G27G28G09G17G02G10
 127279036.927 7  99178476.575 5  24220385.633                    24220393.387
 134255217.340 5 104614496.924 5  25547915.586
 104614094.081 8  81517653.04046  19907377.477                    19907384.789
 129646030.607 6 101022908.42843  24670803.266                    24670811.051
 117866072.838 8  91843741.59545  22429165.266                    22429173.148
 117488638.330 7  91549692.46245  22357336.969                    22357344.422
 115980809.011 7  90374735.54645  22070419.516                    22070427.273
 114023738.789 8  88849750.361 7  21697958.133                    21697965.395
 113788010.206 8  88666022.99346  21653098.352                    21653103.605
 119157623.226 7  92850133.46244  22674913.039                    22674921.383
 11  7 30  0 17 30.0000000  0 10G12G05G04G20G27G28G09G17G02G10
 127182110.496 7  99102949.507 6  24201941.664                    24201948.699
 134156985.172 6 104537952.593 5  25529223.352                    25529234.770
 104627532.758 8  81528124.74046  19909934.953                    19909941.895
 129704394.832 6 101068387.03143  24681908.938                    24681917.254
 117878908.977 7  91853743.74445  22431607.734                    22431615.785
 117556821.643 7  91602822.25745  22370311.867                    22370319.434
 115984084.169 7  90377287.60045  22071042.242                    22071050.301
 114058818.098 7  88877084.856 7  21704633.242                    21704640.820
 113724338.047 8  88616408.33946  21640981.953                    21640988.105
 119070258.239 7  92782056.90444  22658287.969                    22658296.773
 11  7 30  0 18  0.0000000  0 10G12G05G04G20G27G28G09G17G02G10
 127085202.545 6  99027436.870 6  24183499.922                    24183507.941
 134058559.888 6 104461257.704 4  25510492.648                    25510505.117
 104641501.598 8  81539009.54046  19912592.891                    19912600.031
 129763196.138 6 101114206.22243  24693098.594                    24693106.738
 117892209.878 7  91864108.05945  22434139.141                    22434146.957
 117625363.356 7  91656231.34344  22383355.016                    22383362.004
 115987988.849 7  90380330.18545  22071785.781                    22071793.848
 114093981.400 8  88904484.830 7  21711325.242                    21711331.848
 113661011.011 8  88567062.61946  21628931.391                    21628937.117
 118983101.315 7  92714142.48244  22641702.477                    22641711.188
 11  7 30  0 18 30.0000000  0 10G12G05G04G20G27G28G09G17G02G10
 126988314.887 7  98951940.010 6  24165063.055                    24165070.723
 133959944.374 6 104384414.638 5  25491727.352                    25491740.234
 104655999.111 8  81550306.29646  19915351.656                    19915358.941
 129822432.834 6 101160364.65843  24704371.047                    24704379.195
 117905974.390 8  91874833.62245  22436759.086                    22436766.137
 117694262.619 7  91709919.02145  22396466.016                    22396473.355
 115992522.031 7  90383862.52745  22072648.633                    22072656.281
 114129229.136 8  88931950.582 7  21718032.211                    21718039.266
 113598029.797 8  88517986.37546  21616946.117                    21616951.977
 118896155.530 7  92646392.56345  22625157.430                    22625166.230
 11  7 30  0 19  0.0000000  0 10G12G05G04G20G27G28G09G17G02G10
 126891449.700 6  98876460.729 6  24146630.094                    24146637.355
 133861140.453 6 104307424.822 5  25472925.477                    25472938.922
 104671024.108 8  81562014.08646  19918210.750                    19918218.277
 129882103.505 6 101206861.23743  24715726.094                    24715733.863
 117920201.336 7  91885919.52745  22439465.891                    22439473.344
 117763518.872 7  91763884.88344  22409645.555                    22409652.688
 115997682.913 7  90387883.98845  22073630.305                    22073638.766
 114164560.858 8  88959481.775 7  21724755.719                    21724763.020
 113535395.490 8  88469180.44546  21605027.234                    21605033.109
 118809424.477 7  92578809.98145  22608652.836                    22608661.926
 11  7 30  0 19 30.0000000  0 10G12G05G04G20G27G28G09G17G02G10
 126794608.835 7  98801000.383 6  24128201.594                    24128209.703
 133762150.788 6 104230290.185 6  25454088.133                    25454101.484
 104686574.881 8  81574131.56346  19921169.992                    19921177.324
 129942206.537 6 101253694.72043  24727163.734                    24727171.258
 117934889.534 7  91897364.84045  22442260.797                    22442268.508
 117833131.061 7  91818128.07845  22422892.438                    22422899.789
 116003470.288 7  90392393.61645  22074731.750                    22074739.387
 114199976.698 8  88987078.513 7  21731494.820                    21731501.766
 113473108.849 8  88420645.41446  21593174.695                    21593179.902
 118722911.247 7  92511397.12444  22592190.109                    22592198.430
 11  7 30  0 20  0.0000000  0 10G12G05G04G20G27G28G09G17G02G10
 126697794.111 7  98725560.399 6  24109779.477                    24109786.930
 133662976.434 6 104153011.592 6  25435216.477                    25435228.641
 104702649.726 8  81586657.40746  19924228.805                    19924236.133
 130002739.938 6 101300863.59643  24738682.508                    24738690.113
 117950037.732 7  91909168.59945  22445143.461                    22445151.090
 117903098.602 7  91872648.18545  22436206.602                    22436213.668
 116009883.237 7  90397390.69945  22075952.281                    22075960.016
 114235476.609 8  89014740.767 7  21738250.047                    21738257.508
 113411170.136 8  88372381.50646  21581387.938                    21581393.566
 118636618.842 7  92444156.33344  22575769.039                    22575777.477
 11  7 30  0 20 30.0000000  0 10G12G05G04G20G27G28G09G17G02G10
 126601007.216 7  98650142.096 6  24091361.000                    24091368.699
 133563620.006 5 104075591.255 5  25416308.859                    25416321.648
 104719247.780 8  81599590.94646  19927387.594                    19927394.848
 130063702.437 5 101348366.78443  24750282.797                    24750291.434
 117965645.112 7  91921330.17545  22448113.563                    22448121.109
 117973421.045 7  91927444.83244  22449588.422                    22449595.754
 116016921.553 7  90402875.07745  22077291.648                    22077299.055
 114271061.206 8  89042469.006 7  21745022.313                    21745028.926
 113349580.361 8  88324389.50246  21569667.656                    21569673.668
 118550551.379 7  92377090.83844  22559390.602                    22559399.816
 11  7 30  0 21  0.0000000  0 10G12G05G04G20G27G28G09G17G02G10
 126504250.412 7  98574747.251 6  24072948.930                    24072956.762
 133464083.737 6 103998030.750 5  25397366.281                    25397380.281
 104736367.419 8  81612930.92046  19930645.164                    19930652.156
 130125092.345 5 101396203.09642  24761964.867                    24761973.621
 117981710.420 7  91933848.56045  22451170.094                    22451178.406
 118044097.370 7  91982517.22544  22463037.617                    22463045.000
 116024583.614 7  90408845.50845  22078749.578                    22078757.422
 114306730.161 8  89070262.990 7  21751809.375                    21751816.648
 113288340.368 8  88276670.04346  21558014.414                    21558020.059
 118464712.033 7  92310203.07644  22543055.898                    22543064.711
 11  7 30  0 21 30.0000000  0 10G12G05G04G20G27G28G09G17G02G10
 126407525.423 7  98499377.212 6  24054542.648                    24054549.949
 133364369.900 5 103920331.895 5  25378392.250                    25378405.469
 104754006.922 8  81626675.98046  19934001.734                    19934008.887
 130186908.011 5 101444371.09942  24773727.703                    24773736.840
 117998232.464 7  91946722.84845  22454314.508                    22454322.293
 118115126.917 7  92037864.87544  22476554.508                    22476560.992
 116032868.459 7  90415301.18345  22080326.305                    22080333.988
 114342483.686 8  89098122.849 7  21758613.156                    21758620.559
 113227450.853 8  88229223.69446  21546427.391                    21546433.020
 118379103.988 7  92243495.55944  22526764.969                    22526774.078
 11  7 30  0 22  0.0000000  0 10G12G05G04G20G27G28G09G17G02G10
 126310834.040 7  98424033.326 6  24036142.703                    24036149.496
 133264480.956 6 103842496.618 6  25359384.102                    25359396.699
 104772165.013 8  81640825.13746  19937457.094                    19937464.430
 130249147.533 6 101492869.40643  24785573.430                    24785580.793
 118015209.849 8  91959951.95045  22457545.492                    22457553.156
 118186508.882 7  92093487.12044  22490138.141                    22490144.613
 116041775.170 7  90422241.45745  22082021.258                    22082029.082
 114378321.572 8  89126048.453 7  21765432.758                    21765440.336
 113166912.286 8  88182050.81546  21534906.852                    21534913.066
 118293730.417 7  92176970.75045  22510519.500                    22510528.289
 11  7 30  0 22 30.0000000  0 10G12G05G04G20G27G28G09G17G02G10
 126214178.242 7  98348717.139 6  24017749.516                    24017756.797
 133164418.565 5 103764526.138 6  25340341.563                    25340354.875
 104790839.868 8  81655376.95946  19941011.016                    19941018.297
 130311809.241 5 101541696.65442  24797496.281                    24797504.992
 118032641.492 8  91973535.02945  22460862.297                    22460870.836
 118258242.233 7  92149383.17645  22503788.703                    22503795.582
 116051302.320 7  90429665.19345  22083833.898                    22083841.859
 114414243.754 8  89154039.761 7  21772268.625                    21772275.488
 113106725.382 8  88135151.95146  21523453.938                    21523459.391
 118208594.791 7  92110631.36244  22494318.648                    22494327.484
 11  7 30  0 23  0.0000000  0 10G12G05G04G20G27G28G09G17G02G10
 126117560.246 7  98273430.456 6  23999363.891                    23999371.133
 133064184.779 6 103686422.159 6  25321268.039                    25321280.074
 104810030.121 8  81670330.40246  19944662.672                    19944670.344
 130374891.383 6 101590851.57043  24809500.031                    24809509.422
 118050526.221 8  91987471.14745  22464265.813                    22464273.516
 118330326.245 7  92205552.47244  22517505.656                    22517512.758
 116061449.248 7  90437571.85945  22085764.719                    22085772.980
 114450250.907 8  89182097.250 7  21779120.570                    21779127.605
 113046891.093 8  88088527.85046  21512067.672                    21512073.359
 118123700.637 7  92044480.10945  22478163.609                    22478171.539
 11  7 30  0 23 30.0000000  0 10G12G05G04G20G27G28G09G17G02G10
 126020982.136 6  98198174.808 5  23980984.609                    23980992.277
 132963782.428 6 103608186.800 6  25302162.406                    25302174.316
 104829734.211 8  81685684.22546  19948412.352                    19948419.508
 130438392.432 6 101640332.83942  24821584.461                    24821592.516
 118068862.614 8  92001759.20445  22467754.984                    22467763.055
 118402760.233 7  92261994.48044  22531289.523                    22531296.547
 116072214.515 8  90445960.34745  22087813.891                    22087821.457
 114486342.721 8  89210220.723 7  21785988.797                    21785995.762
 112987409.869 8  88042178.86846  21500748.891                    21500754.551
 118039050.887 7  91978519.29644  22462054.859                    22462063.418
 11  7 30  0 24  0.0000000  0 10G12G05G04G20G27G28G09G17G02G10
 125924445.526 6  98122951.507 5  23962613.828                    23962621.832
 132863213.635 6 103529821.742 6  25283024.172                    25283036.680
 104849950.421 8  81701437.11146  19952259.281                    19952266.672
 130502310.664 6 101690139.26243  24833747.969                    24833755.777
 118087649.424 7  92016398.24845  22471329.961                    22471337.648
 118475543.316 7  92318708.50244  22545139.625                    22545146.781
 116083596.991 7  90454829.77345  22089979.773                    22089987.297
 114522519.535 8  89238410.418 7  21792872.609                    21792879.398
 112928282.217 8  87996105.39846  21489497.227                    21489502.777
 117954649.002 7  91912751.64844  22445994.164                    22446002.074
 11  7 30  0 24 30.0000000  0 10G12G05G04G20G27G28G09G17G02G10
 125827952.504 6  98047762.159 6  23944253.016                    23944260.023
 132762480.409 6 103451328.555 6  25263856.023                    25263867.508
 104870677.300 8  81717587.91446  19956203.609                    19956210.910
 130566644.349 6 101740269.38342  24845989.563                    24845998.324
 118106885.487 7  92031387.36345  22474990.375                    22474998.824
 118548674.605 7  92375693.86544  22559055.961                    22559063.289
 116095595.565 7  90464179.29045  22092263.164                    22092270.875
 114558781.629 8  89266666.586 7  21799773.578                    21799780.605
 112869508.972 8  87950308.10046  21478313.008                    21478319.152
 117870498.495 7  91847179.86544  22429980.898                    22429988.563
 11  7 30  0 25  0.0000000  0 10G12G05G04G20G27G28G09G17G02G10
 125731505.111 7  97972608.395 6  23925899.688                    23925907.352
 132661585.157 6 103372709.054 6  25244654.570                    25244667.777
 104891912.971 8  81734135.17846  19960244.828                    19960252.172
 130631391.378 6 101790721.54443  24858310.805                    24858320.090
 118126569.369 7  92046725.42945  22478736.578                    22478743.848
 118622153.128 7  92432949.80344  22573038.492                    22573046.176
 116108208.845 7  90474007.77845  22094663.703                    22094671.168
 114595128.450 8  89294988.753 7  21806690.039                    21806697.609
 112811090.824 8  87904787.47946  21467196.563                    21467202.137
 117786602.437 7  91781806.37845  22414015.945                    22414024.207
 11  7 30  0 25 30.0000000  0 10G12G05G04G20G27G28G09G17G02G10
 125635105.422 7  97897491.799 6  23907554.953                    23907563.207
 132560530.134 6 103293964.996 6  25225424.648                    25225437.477
 104913656.015 8  81751077.80346  19964382.234                    19964389.602
 130696550.229 6 101841494.69442  24870710.133                    24870718.328
 118146699.681 7  92062411.36045  22482567.039                    22482575.254
 118695977.946 7  92490475.58444  22587086.797                    22587094.422
 116121435.685 8  90484314.38245  22097180.500                    22097188.203
 114631560.657 8  89323377.475 7  21813623.016                    21813630.059
 112753028.129 8  87859543.85346  21456147.648                    21456153.480
 117702964.332 7  91716633.85245  22398099.781                    22398108.156
 11  7 30  0 26  0.0000000  0 10G12G05G04G20G27G28G09G17G02G10
 125538755.559 7  97822414.027 6  23889220.547                    23889228.953
 132459317.553 6 103215098.142 6  25206165.430                    25206176.852
 104935905.122 8  81768414.76146  19968616.156                    19968623.508
 130762119.255 6 101892587.42843  24883187.945                    24883196.195
 118167275.459 7  92078444.39445  22486482.703                    22486490.371
 118770148.388 7  92548270.67944  22601200.984                    22601209.012
 116135274.854 7  90495098.13945  22099813.734                    22099821.891
 114668078.307 8  89351832.768 7  21820572.078                    21820579.137
 112695322.088 8  87814578.12146  21445166.492                    21445172.184
 117619587.578 7  91651664.99745  22382233.766                    22382242.449
 11  7 30  0 26 30.0000000  0 10G12G05G04G20G27G28G09G17G02G10
 125442457.184 7  97747376.389 6  23870896.242                    23870903.668
 132357949.586 6 103136110.245 6  25186875.352                    25186888.082
 104958657.969 8  81786144.24646  19972945.820                    19972953.078
 130828096.046 6 101943997.87542  24895742.477                    24895751.164
 118188294.772 7  92094823.05345  22490482.414                    22490490.363
 118844663.630 7  92606334.42444  22615380.820                    22615388.426
 116149724.596 8  90506357.65345  22102563.344                    22102571.594
 114704681.368 8  89380354.611 7  21827537.203                    21827544.262
 112637972.599 8  87769890.24246  21434253.492                    21434259.258
 117536475.146 7  91586902.12645  22366418.117                    22366426.340
 11  7 30  0 27  0.0000000  0 10G12G05G04G20G27G28G09G17G02G10
 125346212.360 7  97672380.446 6  23852581.656                    23852588.590
 132256429.182 6 103057003.559 6  25167555.813                    25167569.688
 104981913.352 8  81804265.31946  19977371.266                    19977378.008
 130894479.269 6 101995724.95243  24908375.742                    24908382.906
 118209756.682 7  92111546.59045  22494566.375                    22494574.473
 118919522.489 7  92664665.92744  22629626.164                    22629633.324
 116164784.094 7  90518092.28745  22105429.328                    22105437.148
 114741370.054 7  89408943.186 7  21834518.930                    21834526.117
 112580980.564 8  87725480.88146  21423408.070                    21423413.945
 117453630.935 7  91522348.22345  22350653.234                    22350661.852
 11  7 30  0 27 30.0000000  0 10G12G05G04G20G27G28G09G17G02G10
 125250023.280 7  97597427.924 6  23834276.625                    23834284.438
 132154758.103 5 102977779.438 6  25148207.898                    25148221.430
 105005669.157 8  81822776.32946  19981891.945                    19981898.973
 130961266.942 6 102047767.33542  24921083.852                    24921092.840
 118231659.475 7  92128613.64845  22498734.984                    22498742.492
 118994723.827 7  92723264.32244  22643936.945                    22643944.309
 116180451.794 8  90530300.85945  22108410.977                    22108418.828
 114778144.491 7  89437598.569 7  21841516.875                    21841524.242
 112524346.210 8  87681350.24646  21412630.508                    21412636.723
 117371057.606 7  91458005.40845  22334940.438                    22334948.359
 11  7 30  0 28  0.0000000  0 10G12G05G04G20G27G28G09G17G02G10
 125153892.220 7  97522520.644 6  23815983.688                    23815992.121
 132052938.833 6 102898439.815 6  25128833.445                    25128845.285
 105029924.079 8  81841676.26446  19986507.477                    19986514.867
 131028457.126 6 102100123.31542  24933869.906                    24933878.363
 118254001.858 7  92146023.26845  22502986.055                    22502994.512
 119070266.964 7  92782129.05644  22658312.031                    22658319.477
 116196726.740 7  90542982.61445  22111507.703                    22111516.043
 114815005.015 7  89466321.047 7  21848531.195                    21848538.613
 112468070.382 8  87637498.98646  21401921.648                    21401927.582
 117288758.843 7  91393876.55245  22319279.031                    22319287.316
 11  7 30  0 28 30.0000000  0 10G12G05G04G20G27G28G09G17G02G10
 125057820.859 7  97447659.888 6  23797702.328                    23797709.945
 131950973.577 6 102818986.476 6  25109429.656                    25109442.043
 105054676.163 8  81860963.60046  19991217.391                    19991224.723
 131096047.759 6 102152791.36542  24946732.195                    24946740.563
 118276782.061 7  92163774.03245  22507321.047                    22507329.555
 119146151.038 7  92841259.43644  22672752.375                    22672759.688
 116213607.034 7  90556136.05145  22114719.688                    22114727.887
 114851951.481 7  89495110.479 7  21855561.719                    21855569.387
 112412153.330 8  87593927.28246  21391281.164                    21391286.508
 117206737.831 7  91329964.12745  22303670.648                    22303679.059
 11  7 30  0 29  0.0000000  0 10G12G05G04G20G27G28G09G17G02G10
 124961811.459 6  97372847.412 6  23779431.156                    23779439.566
 131848864.755 6 102739421.324 6  25089998.711                    25090012.539
 105079923.478 8  81880636.83846  19996021.852                    19996029.180
 131164037.172 6 102205770.17142  24959669.781                    24959679.641
 118299998.788 7  92181864.94845  22511739.102                    22511747.445
 119222374.860 7  92900654.55144  22687257.594                    22687265.012
 116231091.113 7  90569760.00545  22118047.031                    22118055.461
 114888984.261 7  89523967.180 7  21862609.336                    21862616.402
 112356595.664 8  87550635.61846  21380708.930                    21380714.910
 117124997.620 7  91266270.50045  22288116.328                    22288124.789
 11  7 30  0 29 30.0000000  0 10G12G05G04G20G27G28G09G17G02G10
 124865866.346 6  97298085.067 6  23761173.992                    23761181.543
 131746614.987 6 102659746.382 6  25070541.289                    25070554.723
 105105664.784 8  81900694.98946  20000920.234                    20000927.836
 131232423.728 6 102259058.38742  24972683.344                    24972693.082
 118323650.811 7  92200295.06745  22516240.234                    22516248.215
 119298937.297 7  92960313.53244  22701826.828                    22701834.809
 116249177.846 7  90583853.53245  22121488.758                    22121496.703
 114926103.717 7  89552891.407 7  21869672.680                    21869679.973
 112301398.467 8  87507624.83246  21370205.125                    21370210.695
 117043542.202 7  91202798.79045  22272615.633                    22272624.066
 11  7 30  0 30  0.0000000  0 10G12G05G04G20G27G28G09G17G02G10
 124769987.121 6  97223374.012 6  23742928.227                    23742936.227
 131644226.694 6 102579963.493 5  25051057.711                    25051070.066
 105131897.859 8  81921136.34046  20005912.469                    20005919.820
 131301205.277 5 102312654.32442  24985772.875                    24985780.598
 118347736.323 8  92219062.96945  22520823.781                    22520831.336
 119375837.638 7  93020235.79344  22716460.211                    22716468.625
 116267865.514 7  90598415.32645  22125045.328                    22125052.906
 114963309.803 7  89581883.134 7  21876752.969                    21876759.680
 112246561.785 8  87464894.97546  21359770.070                    21359775.605
 116962374.616 7  91139551.34445  22257170.203                    22257178.504
 11  7 30  0 30 30.0000000  0 10G12G05G04G20G27G28G09G17G02G10
 124674176.042 7  97148716.053 6  23724696.492                    23724704.336
 131541701.647 6 102500074.026 5  25031547.453                    25031558.762
 105158621.012 8  81941959.57846  20010997.414                    20011004.887
 131370379.797 6 102366556.46942  24998936.852                    24998944.008
 118372253.856 7  92238167.50245  22525489.266                    22525497.449
 119453074.594 7  93080420.36244  22731158.633                    22731166.535
 116287152.543 7  90613444.16145  22128715.523                    22128722.953
 115000602.905 8  89610942.680 7  21883849.539                    21883856.305
 112192085.957 8  87422446.28846  21349403.656                    21349409.133
 116881497.919 7  91076530.59745  22241779.586                    22241787.902
 11  7 30  0 31  0.0000000  0 10G12G05G04G20G27G28G09G17G02G10
 124578435.287 7  97074112.908 6  23706477.711                    23706484.582
 131439042.511 6 102420080.059 5  25012011.977                    25012023.563
 105185832.580 8  81963163.38846  20016175.531                    20016182.855
 131439945.454 5 102420763.37342  25012175.297                    25012183.184
 118397201.790 7  92257607.41745  22530236.172                    22530245.066
 119530646.935 7  93140866.27244  22745920.117                    22745927.492
 116307037.643 7  90628939.02245  22132499.367                    22132507.105
 115037982.881 7  89640069.912 7  21890962.570                    21890970.129
 112137971.298 8  87380279.05146  21339105.609                    21339111.723
 116800915.611 7  91013739.21745  22226445.461                    22226453.980
 11  7 30  0 31 30.0000000  0 10G12G05G04G20G27G28G09G17G02G10
 124482767.342 7  96999566.467 6  23688272.672                    23688280.234
 131336251.896 6 102339983.706 5  24992451.578                    24992463.309
 105213530.870 8  81984746.46746  20021446.563                    20021453.926
 131509900.604 4 102475273.91842  25025485.406                    25025495.164
 118422579.053 7  92277381.86245  22535065.641                    22535073.672
 119608554.327 7  93201573.26544  22760745.047                    22760752.844
 116327519.088 7  90644898.56745  22136396.867                    22136404.301
 115075450.188 8  89669265.192 7  21898092.898                    21898099.266
 112084218.960 8  87338394.12846  21328877.383                    21328882.758
 116720631.226 7  90951179.99045  22211167.836                    22211176.113
 11  7 30  0 32  0.0000000  0 10G12G05G04G20G27G28G09G17G02G10
 124387173.951 7  96925078.146 6  23670081.945                    23670089.496
 131233332.132 7 102259786.707 5  24972866.758                    24972877.746
 105241714.023 8  82006707.34846  20026809.500                    20026817.133
 131580242.99315 102530086.09552  25038871.023                    25038880.531
 118448383.755 7  92297489.39645  22539976.273                    22539984.863
 119686795.445 7  93262540.31044  22775634.063                    22775641.656
 116348595.316 7  90661321.57745  22140407.477                    22140415.250
 115113004.990 7  89698528.653 7  21905239.336                    21905245.953
 112030829.012 8  87296791.57546  21318717.313                    21318723.000
 116640647.717 7  90888855.21145  22195947.648                    22195955.340
 11  7 30  0 32 30.0000000  0 10G12G05G04G20G27G28G09G17G02G10
 124291657.087 7  96850649.479 6  23651905.180                    23651913.195
 131130285.299 6 102179490.777 5  24953256.617                    24953268.730
 105270379.660 8  82029044.20246  20032264.508                    20032272.035
 131650970.616 5 102585198.51052  25052330.430                    25052340.094
 118474614.050 7  92317928.54745  22544967.414                    22544976.309
 119765368.723 7  93323766.17044  22790585.727                    22790594.141
 116370264.219 7  90678206.40445  22144530.727                    22144538.531
 115150647.197 8  89727860.209 7  21912402.102                    21912408.977
 111977801.536 8  87255471.48446  21308626.602                    21308632.156
 116560968.158 7  90826767.29645  22180784.711                    22180793.055
 11  7 30  0 33  0.0000000  0 10G12G05G04G20G27G28G09G17G02G10
 124196218.873 7  96776282.085 6  23633743.914                    23633751.648
 131027113.764 6 102099097.585 5  24933623.406                    24933635.617
 105299526.388 8  82051755.93446  20037810.930                    20037818.605
 131722081.673 5 102640609.61642  25065863.094                    25065871.539
 118501268.449 7  92338698.16445  22550039.430                    22550048.297
 119844273.202 7  93385250.08644  22805601.203                    22805609.145
 116392524.272 7  90695551.89445  22148766.891                    22148774.844
 115188377.303 7  89757260.260 7  21919581.797                    21919588.934
 111925137.332 8  87214434.45746  21298604.938                    21298610.559
 116481595.789 7  90764918.72845  22165680.852                    22165689.047
 11  7 30  0 33 30.0000000  0 10G12G05G04G20G27G28G09G17G02G10
 124100861.625 7  96701977.789 6  23615598.469                    23615605.785
 130923820.316 6 102018609.357 5  24913967.297                    24913978.375
 105329152.142 8  82074840.93446  20043448.352                    20043455.824
 131793573.783 5 102696317.74342  25079467.531                    25079476.004
 118528345.459 7  92359797.10545  22555192.359                    22555200.805
 119923507.998 7  93446991.43444  22820678.945                    22820686.727
 116415374.021 7  90713356.86445  22153115.461                    22153122.781
 115226195.675 8  89786729.099 7  21926778.180                    21926785.887
 111872836.867 8  87173680.86446  21288652.648                    21288658.098
 116402534.270 7  90703312.38645  22150635.625                    22150644.637
 11  7 30  0 34  0.0000000  0 10G12G05G04G20G27G28G09G17G02G10
 124005587.672 7  96627738.431 6  23597467.828                    23597475.801
 130820407.380 6 101938028.082 5  24894288.313                    24894300.188
 105359255.198 8  82098297.84946  20049176.836                    20049183.941
 131865445.207 5                  25093143.930
 118555843.376 7  92381224.01245  22560425.273                    22560433.645
 120003072.030 7  93508989.30344  22835819.477                    22835827.211
 116438811.786 7  90731620.03345  22157575.648                    22157583.172
 115264102.419 8  89816266.802 7  21933992.125                    21933999.230
 111820900.366 8  87133210.89146  21278769.313                    21278774.879
 116323786.896 7  90641950.82545  22135651.063                    22135659.043
 11  7 30  0 34 30.0000000  0 10G12G05G04G20G27G28G09G17G02G10
 123910399.057 7  96553565.562 6  23579353.570                    23579361.598
 130716877.408 6 101857355.625 5  24874586.523                    24874598.301
 105389833.985 8  82122125.46746  20054995.734                    20055003.227
 131937694.225 5                  25106891.328
 118583760.836 7  92402977.85845  22565737.617                    22565746.387
 120082964.170 7  93571242.85144  22851022.742                    22851030.223
 116462835.792 7  90750340.00645  22162146.852                    22162154.680
 115302098.098 8  89845873.787 7  21941222.695                    21941229.797
 111769328.488 8  87093025.02046  21268955.438                    21268961.129
 116245357.219 7  90580836.82745  22120726.156                    22120734.016
 11  7 30  0 35  0.0000000  0 10G12G05G04G20G27G28G09G17G02G10
 123815297.544 7  96479460.537 6  23561256.344                    23561264.301
 130613232.365 6 101776593.494 6  24854864.148                    24854875.195
 105420885.770 8  82146321.66246  20060904.531                    20060912.207
 132010318.070 6                  25120712.969
 118612095.571 7  92425056.81545  22571129.547                    22571138.207
 120163182.937 7  93633750.91744  22866287.797                    22866295.273
 116487443.779 7  90769515.02945  22166829.867                    22166837.289
 115340182.519 8  89875549.941 7  21948469.719                    21948476.719
 111718121.013 8  87053123.11446  21259211.109                    21259216.625
 116167247.873 7  90519972.43745  22105862.469                    22105870.582
 11  7 30  0 35 30.0000000  0 10G12G05G04G20G27G28G09G17G02G10
 123720285.933 7  96405425.567 6  23543176.297                    23543184.516
 130509475.215 6 101695743.991 6  24835120.367                    24835131.020
 105452409.301 8  82170885.44646  20066903.367                    20066910.727
 132083315.235 5                  25134604.469
 118640846.348 7  92447459.99545  22576600.805                    22576609.117
 120243727.470 7  93696512.84544  22881615.234                    22881622.977
 116512634.671 7  90789144.28845  22171622.891                    22171630.184
 115378355.708 8  89905295.275 7  21955733.492                    21955740.742
 111667278.633 8  87013505.68946  21249536.086                    21249541.863
 116089462.442 7  90459360.42945  22091060.609                    22091068.887
 11  7 30  0 36  0.0000000  0 10G12G05G04G20G27G28G09G17G02G10
 123625366.308 7  96331462.286 6  23525113.648                    23525122.305
 130405608.268 6 101614808.932 6  24815354.406                    24815366.164
 105484402.198 8  82195814.96646  20072991.656                    20072999.219
 132156683.518 5                  25148564.680
 118670011.274 7  92470185.87645  22582150.594                    22582158.742
 120324596.105 7  93759527.28644  22897004.047                    22897011.852
 116538406.444 7  90809226.15345  22176527.391                    22176535.449
 115416618.291 8  89935110.234 7  21963014.758                    21963022.121
 111616801.639 8  86974172.98946  21239930.844                    21239936.066
 116012003.743 7  90399003.04045  22076320.273                    22076328.824
 11  7 30  0 36 30.0000000  0 10G12G05G04G20G27G28G09G17G02G10
 123530540.772 7  96257572.295 6  23507069.313                    23507077.414
 130301634.057 6 101533790.314 6  24795568.586                    24795580.727
 105516862.865 8  82221108.99246  20079168.445                    20079175.898
 132230421.14015                  25162596.000
 118699588.708 7  92493233.17045  22587779.195                    22587787.250
 120405788.161 7  93822793.75444  22912453.938                    22912462.695
 116564757.197 7  90829759.18245  22181541.875                    22181550.270
 115454970.608 7  89964995.150 7  21970313.070                    21970320.727
 111566690.519 8  86935125.37846  21230394.703                    21230399.945
 115934875.231 7  90338902.92645  22061643.164                    22061651.406
 11  7 30  0 37  0.0000000  0 10G12G05G04G20G27G28G09G17G02G10
 123435811.631 7  96183757.411 6  23489043.203                    23489050.672
 130197554.860 6 101452689.879 6  24775762.641                    24775774.676
 105549789.085 8  82246765.77246  20085434.125                    20085441.938
 132304525.25115                  25176697.477
 118729576.479 7  92516600.23945  22593485.375                    22593494.039
 120487302.263 7  93886311.13944  22927965.742                    22927973.914
 116591684.655 7  90850741.61145  22186665.641                    22186673.645
 115493412.538 8  89994949.887 7  21977627.844                    21977635.148
 111516945.127 8  86896362.74846  21220928.336                    21220933.766
 115858080.083 7  90279062.58645  22047029.492                    22047038.082
 11  7 30  0 37 30.0000000  0 10G12G05G04G20G27G28G09G17G02G10
 123341180.819 7  96110019.138 6  23471035.875                    23471042.621
 130093373.305 6 101371509.668 6  24755936.273                    24755948.445
 105583179.108 8  82272783.97146  20091788.133                    20091795.824
 132378994.75215                  25190870.680
 118759973.064 7  92540285.83645  22599270.039                    22599278.285
 120569137.216 7  93950078.58244  22943538.688                    22943546.461
 116619187.254 7  90872172.17645  22191899.797                    22191907.508
 115531944.616 7  90024974.846 7  21984961.031                    21984968.000
 111467566.105 8  86857885.60746  21211531.797                    21211537.715
 115781621.905 7  90219484.82945  22032480.094                    22032488.004
 11  7 30  0 38  0.0000000  0 10G12G05G04G20G27G28G09G17G02G10
 123246650.491 7  96036359.193 6  23453046.781                    23453054.488
 129989091.935 6 101290251.685 6  24736092.586                    24736104.492
 105617030.610 8  82299161.76146  20098229.836                    20098237.645
 132453826.91215                  25205108.031
 118790776.780 7  92564288.69745  22605132.250                    22605139.746
 120651291.628 7  94014094.93844  22959172.242                    22959180.301
 116647262.793 7  90894049.19545  22197242.148                    22197250.047
 115570567.305 8  90055070.438 7  21992310.313                    21992318.000
 111418553.806 8  86819694.22446  21202205.211                    21202210.492
 115705503.829 7  90160172.07845  22017995.109                    22018003.371
 11  7 30  0 38 30.0000000  0 10G12G05G04G20G27G28G09G17G02G10
 123152223.151 7  95962779.504 6  23435077.820                    23435085.465
 129884713.418 6 101208918.001 6  24716229.789                    24716241.801
 105651342.157 8  82325898.02246  20104759.195                    20104766.566
 132529019.997 5                  25219420.234
 118821986.073 7  92588607.58945  22611070.383                    22611079.258
 120733764.662 7  94078359.59044  22974866.023                    22974873.789
 116675909.981 7  90916371.64645  22202693.563                    22202701.094
 115609280.804 7  90085236.791 7  21999677.164                    21999684.590
 111369908.763 8  86781789.00446  21192948.391                    21192954.020
 115629729.071 7  90101126.84445  22003575.781                    22003583.809
 11  7 30  0 39  0.0000000  0 10G12G05G04G20G27G28G09G17G02G10
 123057900.969 7  95889281.737 6  23417128.664                    23417135.598
 129780239.861 6 101127510.227 6  24696349.359                    24696360.559
 105686111.242 8  82352990.80546  20111375.563                    20111382.688
 132604572.09114                  25233796.781
 118853598.832 7  92613240.86245  22617086.523                    22617095.027
 120816554.829 7  94142871.35844  22990620.086                    22990628.484
 116705126.166 7  90939137.45945  22208253.359                    22208260.969
 115648085.316 7  90115474.055 7  22007061.305                    22007069.051
 111321630.690 8  86744169.74846  21183761.563                    21183767.117
 115554300.642 7  90042351.47145  21989222.297                    21989230.273
 11  7 30  0 39 30.0000000  0  9G12G05G04G27G28G09G17G02G10
 122963687.012 7  95815868.293 6  23399200.781                    23399207.512
 129675674.876 6 101046031.207 6  24676450.594                    24676462.875
 105721336.770 8  82380439.25746  20118079.008                    20118086.430
 118885613.834 7  92638187.58245  22623178.523                    22623187.590
 120899661.280 7  94207629.54844  23006435.750                    23006443.070
 116734910.101 7  90962345.70845  22213921.047                    22213929.395
 115686981.733 7  90145782.944 7  22014462.719                    22014470.824
 111273720.638 8  86706837.25546  21174644.539                    21174650.367
 115479222.538 7  89983849.09345  21974935.359                    21974943.516
 11  7 30  0 40  0.0000000  0  9G12G05G04G27G28G09G17G02G10
 122869583.111 7  95742540.615 6  23381293.625                    23381300.141
 129571020.203 6 100964482.278 6  24656536.719                    24656547.277
 105757016.150 8  82408241.35746  20124868.375                    20124875.754
 118918028.915 7  92663446.06845  22629346.602                    22629355.500
 120983082.337 7  94272632.89444  23022310.180                    23022318.285
 116765259.344 7  90985994.43845  22219696.180                    22219703.930
 115725969.770 8  90176163.221 7  22021882.688                    22021889.699
 111226178.506 8  86669791.44746  21165597.070                    21165602.777
 115404497.485 7  89925621.81445  21960715.602                    21960723.742
 11  7 30  0 40 30.0000000  0  9G12G05G04G27G28G09G17G02G10
 122775591.045 7  95669300.064 6  23363407.156                    23363414.465
 129466277.996 6 100882865.163 6  24636603.719                    24636615.406
 105793146.768 8  82436395.08746  20131743.719                    20131750.973
 118950841.475 7  92689014.24845  22635590.914                    22635599.422
 121066816.541 7  94337880.23144  23038243.961                    23038252.203
 116796171.469 7  91010081.78045  22225578.227                    22225586.754
 115765049.493 8  90206614.930 7  22029319.531                    22029326.570
 111179004.013 8  86633032.11146  21156620.445                    21156625.914
 115330128.171 7  89867671.74545  21946563.250                    21946571.820
 11  7 30  0 41  0.0000000  0  9G12G05G04G27G28G09G17G02G10
 122681712.599 7  95596148.083 6  23345543.109                    23345550.250
 129361451.036 6 100801181.982 6  24616656.148                    24616667.332
 105829726.724 8  82464898.94346  20138704.672                    20138712.199
 118984049.812 7  92714890.83145  22641910.648                    22641918.891
 121150862.499 7  94403370.51644  23054237.633                    23054245.211
 116827644.651 7  91034606.28845  22231567.938                    22231576.547
 115804221.261 8  90237138.373 7  22036773.086                    22036780.813
 111132197.287 8  86596559.35646  21147713.117                    21147718.719
 115256118.006 7  89810001.51845  21932479.609                    21932487.723
 11  7 30  0 41 30.0000000  0  9G12G05G04G27G28G09G17G02G10
 122587950.817 7  95523086.984 6  23327700.414                    23327707.461
 129256542.097 6 100719434.942 6  24596693.000                    24596703.598
 105866754.314 8  82493751.59746  20145750.906                    20145758.410
 119017652.469 7  92741074.68445  22648304.875                    22648313.457
 121235219.135 7  94469102.89944  23070290.023                    23070298.207
 116859677.021 7  91059566.52345  22237663.320                    22237671.918
 115843485.806 8  90267734.111 7  22044244.875                    22044252.105
 111085759.072 8  86560373.75046  21138876.266                    21138881.867
 115182470.121 7  89752613.58545  21918465.008                    21918473.348
 11  7 30  0 42  0.0000000  0  9G12G05G04G27G28G09G17G02G10
 122494307.788 7  95450118.424 6  23309880.891                    23309887.156
 129151553.698 6 100637626.008 6  24576713.242                    24576724.488
 105904227.498 8  82522951.47346  20152882.242                    20152889.238
 119051647.683 7  92767564.41345  22654774.188                    22654782.074
 121319885.007 7  94535076.22644  23086401.586                    23086409.621
 116892266.403 7  91084960.82645  22243864.563                    22243873.020
 115882843.321 7  90298402.286 7  22051734.539                    22051741.691
 111039689.641 8  86524475.50546  21130109.648                    21130115.191
 115109188.026 7  89695510.68345  21904519.914                    21904528.258
 11  7 30  0 42 30.0000000  0  9G12G05G04G27G28G09G17G02G10
 122400785.909 7  95377244.262 6  23292083.484                    23292090.699
 129046488.349 7 100555757.083 6  24556720.375                    24556731.402
 105942144.156 8  82552496.91146  20160097.203                    20160104.734
 119086033.351 7  92794358.41145  22661317.703                    22661325.637
 121404858.915 7  94601289.57744  23102571.742                    23102579.961
 116925410.657 7  91110787.47445  22250171.813                    22250180.129
 115922293.899 7  90329142.957 7  22059241.922                    22059249.543
 110993988.848 8  86488864.52646  21121412.820                    21121418.320
 115036274.507 7  89638694.97945  21890644.742                    21890653.379
 11  7 30  0 43  0.0000000  0  9G12G05G04G27G28G09G17G02G10
 122307387.126 7  95304466.034 7  23274310.273                    23274318.137
 128941348.154 6 100473829.814 6  24536712.719                    24536723.484
 105980501.298 8  82582385.57646  20167396.148                    20167403.281
 119120806.937 7  92821454.68045  22667934.430                    22667942.875
 121490138.743 7  94667741.31544  23118800.109                    23118808.383
 116959106.965 7  91137044.30945  22256584.250                    22256593.051
 115961837.422 8  90359956.085 7  22066766.719                    22066773.762
 110948656.035 8  86453540.27246  21112786.484                    21112792.164
 114963732.126 7  89582168.48845  21876840.320                    21876848.379
 11  7 30  0 43 30.0000000  0  9G12G05G04G27G28G09G17G02G10
 122214114.413 7  95231786.046 6  23256561.000                    23256568.707
 128836136.281 6 100391846.695 5  24516691.430                    24516701.820
 106019298.045 8  82612616.80846  20174778.758                    20174786.184
 119155967.384 7  92848852.40045  22674625.289                    22674633.445
 121575724.248 7  94734431.22944  23135086.523                    23135094.633
 116993353.787 7  91163730.11345  22263101.172                    22263109.375
 116001475.067 8  90390842.524 7  22074309.211                    22074316.879
 110903692.841 8  86418504.04046  21104230.219                    21104235.891
 114891565.238 7  89525934.58645  21863107.688                    21863115.637
 11  7 30  0 44  0.0000000  0  9G12G05G04G27G28G09G17G02G10
 122120969.252 7  95159205.421 6  23238836.828                    23238843.906
 128730854.969 6 100309809.467 6  24496656.828                    24496667.563
 106058531.546 8  82643188.35046  20182244.898                    20182252.004
 119191511.981 7  92876549.45345  22681389.336                    22681398.000
 121661612.836 7  94801357.30544  23151430.523                    23151439.199
 117028148.401 7  91190842.76045  22269722.703                    22269730.465
 116041207.017 8  90421802.462 7  22081870.008                    22081877.445
 110859098.253 8  86383755.02446  21095744.055                    21095749.500
 114819775.947 7  89469994.91345  21849446.234                    21849454.867
 11  7 30  0 44 30.0000000  0  9G12G05G04G27G28G09G17G02G10
 122027954.481 7  95086726.431 6  23221135.664                    23221143.305
 128625507.401 6 100227720.627 6  24476609.172                    24476620.375
 106098200.265 8  82674099.03346  20189793.375                    20189801.332
 119227439.267 7  92904544.71144  22688226.156                    22688234.426
 121747804.081 7  94868519.23244  23167832.023                    23167840.848
 117063488.928 7  91218380.79945  22276448.156                    22276456.191
 116081033.393 8  90452835.983 7  22089448.961                    22089456.527
 110814872.886 8  86349293.71146  21087328.820                    21087334.035
 114748368.252 7  89414352.57445  21835858.469                    21835866.574
 11  7 30  0 45  0.0000000  0  9G12G05G04G27G28G09G17G02G10
 121935072.464 7  95014350.856 6  23203461.148                    23203468.684
 128520095.659 6 100145581.751 6  24456550.219                    24456560.879
 106138301.597 8  82705346.81246  20197424.766                    20197431.746
 119263746.966 7  92932836.37145  22695135.188                    22695143.473
 121834296.394 7  94935915.74344  23184290.789                    23184299.535
 117099372.889 7  91246342.28845  22283275.820                    22283283.910
 116120954.315 8  90483943.155 7  22097045.867                    22097052.895
 110771016.811 8  86315120.17346  21078982.766                    21078988.250
 114677344.909 7  89359009.74645  21822343.008                    21822350.543
 11  7 30  0 45 30.0000000  0  9G12G05G04G27G28G09G17G02G10
 121842325.269 7  94942080.339 6  23185811.953                    23185819.309
 128414622.433 6 100063395.008 6  24436478.867                    24436489.797
 106178833.330 8  82736929.97746  20205137.523                    20205144.859
 119300432.998 7  92961422.85444  22702116.383                    22702124.934
 121921087.984 7  95003545.49444  23200806.914                    23200815.242
 117135798.148 7  91274725.56845  22290208.086                    22290216.484
 116160970.391 8  90515124.477 7  22104660.711                    22104667.883
 110727529.842 8  86281234.23946  21070707.656                    21070712.688
 114606708.910 7  89303968.72445  21808901.039                    21808909.363
 11  7 30  0 46  0.0000000  0  9G12G05G04G27G28G09G17G02G10
 121749715.684 7  94869917.053 6  23168189.336                    23168196.168
 128309090.403 6  99981162.449 6  24416397.172                    24416407.660
 106219793.820 8  82768847.23646  20212932.258                    20212939.316
 119337495.673 7  92990302.82145  22709168.930                    22709177.832
 122008177.515 7  95071407.40044  23217380.445                    23217388.094
 117172762.481 7  91303528.88745  22297242.430                    22297250.473
 116201082.176 8  90546380.361 7  22112294.109                    22112300.543
 110684412.540 8  86247636.35246  21062502.445                    21062507.965
 114536463.326 7  89249231.95045  21795533.875                    21795542.344
 11  7 30  0 46 30.0000000  0  9G12G05G04G27G28G09G17G02G10
 121657245.654 7  94797862.527 6  23150592.508                    23150599.535
 128203502.248 6  99898886.129 6  24396304.453                    24396314.969
 106261180.488 8  82801096.58646  20220807.789                    20220815.141
 119374932.596 7  93019474.41145  22716293.320                    22716301.547
 122095563.720 7  95139500.45144  23234008.633                    23234017.180
 117210263.342 7  91332750.30845  22304378.227                    22304386.121
 116241289.735 7  90577710.895 7  22119944.906                    22119952.422
 110641664.561 8  86214326.24446  21054367.906                    21054373.457
 114466610.960 7  89194801.56945  21782241.250                    21782249.168
 11  7 30  0 47  0.0000000  0  9G12G05G04G27G28G09G17G02G10
 121564917.486 7  94725918.542 6  23133022.992                    23133030.340
 128097860.803 6  99816568.291 6  24376200.805                    24376212.277
 106302991.332 8  82833676.45146  20228764.359                    20228771.867
 119412741.859 7  93048936.13345  22723488.117                    22723496.852
 122183245.120 7  95207823.54744  23250694.844                    23250702.746
 117248298.416 7  91362387.99345  22311615.820                    22311624.090
 116281593.784 7  90609116.603 7  22127614.438                    22127621.984
 110599286.167 8  86181304.14046  21046303.430                    21046309.168
 114397155.388 7  89140680.36645  21769024.578                    21769032.344
 11  7 30  0 47 30.0000000  0  9G12G05G04G27G28G09G17G02G10
 121472733.575 7  94654086.942 6  23115480.797                    23115488.645
 127992168.242 6  99734210.617 6  24356088.883                    24356098.930
 106345223.753 8  82866584.82246  20236800.609                    20236807.832
 119450921.188 7  93078686.20445  22730753.586                    22730762.016
 122271219.986 7  95276375.34444  23267435.828                    23267444.152
 117286865.369 7  91392440.12045  22318954.719                    22318963.301
 116321994.332 8  90640597.525 7  22135302.617                    22135310.254
 110557277.096 8  86148569.81146  21038309.578                    21038315.133
 114328099.545 8  89086870.65345  21755883.648                    21755891.699
 11  7 30  0 48  0.0000000  0  9G12G05G04G27G28G09G17G02G10
 121380696.422 7  94582369.726 6  23097967.016                    23097974.621
 127886427.213 6  99651815.173 6  24335966.867                    24335977.156
 106387876.288 8  82899820.56946  20244917.039                    20244924.746
 119489468.802 7  93108723.27345  22738088.680                    22738097.793
 122359487.165 7  95345154.89444  23284232.570                    23284240.926
 117325962.066 7  91422905.06045  22326394.867                    22326402.969
 116362492.424 7  90672154.445 7  22143008.828                    22143016.484
 110515637.869 8  86116123.67446  21030385.508                    21030391.520
 114259446.627 7  89033374.91145  21742819.250                    21742827.203
 11  7 30  0 48 30.0000000  0  9G12G05G04G27G28G09G17G02G10
 121288808.620 7  94510768.883 6  23080480.977                    23080488.258
 127780640.822 6  99569384.393 6  24315835.711                    24315846.492
 106430946.667 8  82933381.88846  20253113.258                    20253120.785
 119528382.793 7  93139045.82445  22745493.281                    22745502.473
 122448045.196 7  95414161.07944  23301084.422                    23301092.504
 117365586.031 7  91453780.81545  22333935.211                    22333943.195
 116403087.838 7  90703787.200 7  22150734.227                    22150741.121
 110474368.414 8  86083965.68046  21022532.422                    21022537.816
 114191199.625 7  88980195.45445  21729832.219                    21729840.184
 11  7 30  0 49  0.0000000  0  9G12G05G04G27G28G09G17G02G10
 121197072.306 7  94439286.069 6  23063024.383                    23063031.164
 127674811.811 6  99486920.435 6  24295697.219                    24295708.227
 106474432.376 8  82967266.85046  20261388.383                    20261396.129
 119567660.720 7  93169651.94844  22752968.398                    22752976.809
 122536892.452 6  95483392.60743  23317991.852                    23317999.594
 117405734.636 7  91485065.39645  22341575.453                    22341583.551
 116443781.114 8  90735496.221 7  22158477.617                    22158485.141
 110433468.680 8  86052095.76846  21014749.438                    21014754.805
 114123361.494 7  88927334.60345  21716923.023                    21716930.879
 11  7 30  0 49 30.0000000  0  9G12G05G04G27G28G09G17G02G10
 121105489.980 7  94367923.234 6  23045597.141                    23045604.195
 127568942.611 7  99404425.099 6  24275550.414                    24275561.004
 106518331.326 8  83001473.81546  20269741.773                    20269749.297
 119607300.583 7  93200540.09545  22760511.828                    22760520.059
 122626027.467 7  95552848.36144  23334953.539                    23334960.941
 117446405.410 7  91516756.89445  22349314.500                    22349322.785
 116484572.417 7  90767281.631 7  22166240.180                    22166247.582
 110392938.451 8  86020513.78546  21007036.516                    21007042.277
 114055935.366 7  88874794.79045  21704091.758                    21704100.141
 11  7 30  0 50  0.0000000  0  9G12G05G04G27G28G09G17G02G10
 121014064.019 7  94296682.256 6  23028199.328                    23028206.449
 127463035.974 6  99321900.589 6  24255396.984                    24255407.039
 106562641.238 8  83036001.01546  20278173.641                    20278181.285
 119647300.175 7  93231708.55445  22768123.445                    22768132.359
 122715448.552 7  95622527.07743  23351969.766                    23351977.762
 117487595.753 7  91548853.20645  22357153.258                    22357160.902
 116525462.469 8  90799143.982 7  22174021.438                    22174028.578
 110352778.080 8  85989220.01146  20999394.359                    20999399.789
 113988924.001 7  88822578.17545  21691340.289                    21691348.090
 11  7 30  0 50 30.0000000  0  9G12G05G04G27G28G09G17G02G10
 120922796.694 7  94225564.906 7  23010831.586                    23010838.949
 127357094.300 6  99239348.806 6  24235236.461                    24235247.133
 106607360.005 8  83070846.79746  20286683.422                    20286691.105
 119687657.197 7  93263155.53444  22775803.234                    22775811.754
 122805154.291 7  95692427.63343  23369040.227                    23369047.508
 117529303.340 7  91581352.58845  22365089.609                    22365097.652
 116566451.782 7  90831083.689 7  22181821.359                    22181828.469
 110312987.160 8  85958214.11446  20991822.336                    20991828.090
 113922330.361 7  88770687.04845  21678667.969                    21678675.953
 11  7 30  0 51  0.0000000  0  9G12G05G04G27G28G09G17G02G10
 120831690.447 7  94154573.052 6  22993494.656                    22993501.672
 127251120.593 6  99156772.035 6  24215070.797                    24215080.430
 106652485.101 8  83106009.20346  20295270.531                    20295277.930
 119728369.348 7  93294879.23944  22783550.445                    22783559.461
 122895142.916 7  95762548.57743  23386163.906                    23386172.082
 117571525.647 7  91614253.05945  22373123.734                    22373132.602
 116607540.556 7  90863100.898 7  22189640.109                    22189647.863
 110273565.547 8  85927495.98646  20984320.953                    20984325.813
 113856157.712 7  88719123.98245  21666075.406                    21666083.371
 11  7 30  0 51 30.0000000  0  9G12G05G04G27G28G09G17G02G10
 120740748.006 7  94083708.841 6  22976188.766                    22976195.547
 127145117.483 6  99074172.360 6  24194899.250                    24194908.996
 106698014.966 8  83141487.00546  20303934.719                    20303942.242
 119769434.923 7  93326878.34844  22791364.672                    22791373.863
 122985413.240 7  95832889.01344  23403342.164                    23403350.496
 117614260.466 7  91647552.89845  22381256.109                    22381264.199
 116648729.168 8  90895195.918 7  22197477.625                    22197485.652
 110234513.687 8  85897065.97146  20976889.500                    20976894.785
 113790409.009 7  88667891.25245  21653564.070                    21653572.523
 11  7 30  0 52  0.0000000  0  9G12G05G04G27G28G09G17G02G10
 120649971.567 7  94012973.977 7  22958914.789                    22958922.035
 127039087.959 6  98991552.100 6  24174721.852                    24174731.645
 106743947.077 8  83177278.25646  20312674.969                    20312682.602
 119810851.679 7  93359151.08844  22799246.281                    22799255.023
 123075963.490 7  95903447.52744  23420573.625                    23420582.250
 117657505.133 7  91681249.98945  22389485.898                    22389493.664
 116690018.293 8  90927369.256 7  22205335.359                    22205342.520
 110195831.430 8  85866923.96746  20969528.156                    20969534.344
 113725087.096 8  88616991.08845  21641133.742                    21641141.691
 11  7 30  0 52 30.0000000  0  9G12G05G04G27G28G09G17G02G10
 120559363.397 7  93942370.221 7  22941672.719                    22941679.840
 126933034.288 6  98908913.005 6  24154540.430                    24154550.828
 106790278.881 8  83213380.95046  20321491.750                    20321499.473
 119852617.114 7  93391695.53744  22807193.836                    22807202.582
 123166792.043 6  95974222.93643  23437857.422                    23437865.914
 117701256.674 7  91715342.04845  22397811.688                    22397819.867
 116731407.822 7  90959620.826 7  22213212.000                    22213218.551
 110157518.174 8  85837069.48646  20962237.914                    20962242.996
 113660194.696 7  88566425.61145  21628784.953                    21628792.957
 11  7 30  0 53  0.0000000  0  9G12G05G04G27G28G09G17G02G10
 120468926.055 7  93871899.596 6  22924462.406                    22924470.605
 126826959.238 6  98826257.261 6  24134355.914                    24134365.578
 106837008.223 8  83249793.41046  20330384.234                    20330392.125
 119894729.199 7  93424510.11245  22815207.820                    22815216.793
 123257897.331 6  96045214.00743  23455194.836                    23455202.969
 117745512.608 7  91749827.16345  22406232.766                    22406241.605
 116772898.744 7  90991951.397 7  22221106.984                    22221114.496
 110119574.247 8  85807502.80746  20955017.172                    20955022.496
 113595734.960 7  88516197.26145  21616518.531                    21616526.785
 11  7 30  0 53 30.0000000  0  9G12G05G04G27G28G09G17G02G10
 120378662.109 7  93801564.103 6  22907285.680                    22907293.488
 126720865.701 6  98743587.129 6  24114166.109                    24114176.594
 106884132.965 8  83286513.97546  20339351.727                    20339359.305
 119937185.931 7  93457593.22845  22823287.203                    22823296.285
 123349277.752 6  96116419.43643  23472583.430                    23472591.465
 117790270.619 7  91784703.50545  22414750.039                    22414758.621
 116814491.103 8  91024361.034 7  22229021.609                    22229028.602
 110081999.636 8  85778223.88546  20947866.914                    20947872.473
 113531711.025 7  88466308.51345  21604335.438                    21604343.410
 11  7 30  0 54  0.0000000  0  9G12G05G04G27G28G09G17G02G10
 120288573.795 7  93731365.437 6  22890142.578                    22890149.449
 126614756.369 6  98660904.630 6  24093974.523                    24093984.449
 106931650.752 8  83323540.82546  20348394.102                    20348401.699
 119979984.734 7  93490942.90744  22831431.617                    22831440.289
 123440931.718 6  96187838.04743  23490024.688                    23490033.172
 117835527.905 7  91819968.87745  22423362.977                    22423370.820
 116856185.425 8  91056850.096 7  22236956.016                    22236962.992
 110044793.992 8  85749232.48846  20940787.219                    20940792.363
 113468125.571 7  88416761.44045  21592235.672                    21592243.563
 11  7 30  0 54 30.0000000  0  9G12G05G04G27G28G09G17G02G10
 120198663.395 7  93661305.394 7  22873033.398                    22873040.293
 126508633.990 6  98578212.028 6  24073779.828                    24073789.703
 106979559.176 8  83360872.05246  20357510.820                    20357518.121
 120023123.256 7  93524557.28645  22839640.680                    22839649.402
 123532857.335 6  96259468.33344  23507517.953                    23507526.230
 117881281.697 7  91855621.14345  22432069.305                    22432077.438
 116897982.455 8  91089419.206 7  22244909.586                    22244917.273
 110007956.835 8  85720528.21946  20933777.094                    20933782.418
 113404981.406 7  88367558.21545  21580219.469                    21580227.285
 11  7 30  0 55  0.0000000  0  9G12G05G04G27G28G09G17G02G10
 120108934.053 7  93591386.451 7  22855958.102                    22855965.824
 126402501.544 6  98495511.577 6  24053583.867                    24053592.945
 107027856.395 8  83398506.23846  20366701.555                    20366709.273
 120066599.726 7  93558435.00944  22847913.719                    22847923.160
 123625053.327 6  96331309.32744  23525061.781                    23525070.363
 117927529.392 7  91891658.27845  22440869.680                    22440878.477
 116939882.098 8  91122068.250 7  22252882.914                    22252889.848
 109971488.899 8  85692111.66046  20926837.539                    20926843.227
 113342281.749 7  88318701.37545  21568287.852                    21568295.883
 11  7 30  0 55 30.0000000  0  9G12G05G04G27G28G09G17G02G10
 120019387.987 7  93521610.318 7  22838918.328                    22838925.988
 126296361.619 7  98412805.285 6  24033385.023                    24033395.316
 107076540.279 8  83436441.72746  20375965.633                    20375973.422
 120110411.693 7  93592574.15845  22856251.406                    22856259.844
 123717518.169 6  96403359.77743  23542657.641                    23542665.949
 117974268.374 7  91928078.23845  22449763.875                    22449772.043
 116981885.291 7  91154797.995 7  22260875.883                    22260883.227
 109935389.704 8  85663982.42146  20919968.094                    20919973.531
 113280029.598 7  88270193.23845  21556441.695                    21556449.855
 11  7 30  0 56  0.0000000  0  9G12G05G04G27G28G09G17G02G10
 119930027.391 7  93451978.718 6  22821913.148                    22821920.633
 126190216.804 7  98330095.173 6  24013186.156                    24013196.566
 107125607.994 8  83474676.30146  20385303.195                    20385310.777
 120154556.655 7  93626972.78644  22864651.508                    22864659.898
 123810249.952 6  96475618.24244  23560304.367                    23560312.703
 118021495.769 7  91964878.76344  22458750.852                    22458758.930
 117023992.180 7  91187608.543 7  22268888.625                    22268895.617
 109899658.755 8  85636140.15146  20913168.398                    20913174.117
 113218227.499 7  88222035.77645  21544681.586                    21544689.465
 11  7 30  0 56 30.0000000  0  9G12G05G04G27G28G09G17G02G10
 119840854.714 7  93382493.534 7  22804944.641                    22804951.465
 126084069.671 7  98247383.250 6  23992987.539                    23992996.957
 107175057.003 8  83513207.98846  20394712.930                    20394720.109
 120199032.062 7  93661628.88244  22873115.008                    22873123.707
 123903246.778 6  96548083.20744  23578000.977                    23578009.691
 118069208.637 7  92002057.56845  22467830.695                    22467839.023
 117066202.979 7  91220500.051 7  22276920.656                    22276928.637
 109864295.517 8  85608584.38746  20906439.211                    20906444.520
 113156877.894 8  88174230.92845  21533006.992                    21533014.680
 11  7 30  0 57  0.0000000  0  9G12G05G04G27G28G09G17G02G10
 119751872.624 7  93313156.858 7  22788011.430                    22788019.152
 125977923.396 7  98164672.008 6  23972788.367                    23972798.152
 107224885.865 8  83552035.68146  20404194.992                    20404202.465
 120243836.186 7  93696541.13544  22881641.078                    22881649.555
 123996507.410 6  96620753.78144  23595748.016                    23595756.379
 118117404.782 7  92039612.97545  22477001.313                    22477009.746
 117108518.619 8  91253473.259 7  22284973.398                    22284981.121
 109829300.562 8  85581315.61446  20899779.883                    20899785.617
 113095984.376 8  88126781.47345  21521419.117                    21521427.211
 11  7 30  0 57 30.0000000  0  9G12G05G04G27G28G09G17G02G10
 119663083.402 7  93243970.493 7  22771115.313                    22771123.137
 125871780.710 7  98081963.561 6  23952589.898                    23952600.172
 107275091.698 8  83591157.10746  20413748.930                    20413756.270
 120288966.506 7  93731707.55945  22890229.266                    22890238.141
 124090029.719 7  96693628.23244  23613544.758                    23613553.473
 118166081.125 7  92077542.54045  22486264.797                    22486272.961
 117150939.457 7  91286528.437 7  22293046.023                    22293053.414
 109794673.288 8  85554333.33846  20893190.516                    20893195.910
 113035549.235 7  88079689.18545  21509918.352                    21509926.762
 11  7 30  0 58  0.0000000  0  9G12G05G04G27G28G09G17G02G10
 119574489.765 7  93174936.540 7  22754256.406                    22754264.320
 125765644.605 7  97999260.261 6  23932393.188                    23932402.434
 107325672.531 8  83630570.73846  20423374.039                    20423381.379
 120334420.673 7  93767126.35944  22898878.523                    22898887.332
 124183812.193 6  96766705.41744  23631391.148                    23631400.188
 118215235.109 7  92115844.31045  22495618.953                    22495627.152
 117193465.923 7  91319665.929 7  22301138.195                    22301145.875
 109760413.736 8  85527637.60546  20886671.031                    20886676.523
 112975575.544 7  88032956.47945  21498506.195                    21498513.844
 11  7 30  0 58 30.0000000  0  9G12G05G04G27G28G09G17G02G10
 119486093.923 7  93106056.687 7  22737435.406                    22737442.727
 125659517.551 7  97916563.973 6  23912197.219                    23912207.004
 107376626.025 8  83670274.76246  20433070.297                    20433077.746
 120380196.283 7  93802795.60944  22907588.938                    22907598.652
 124277853.166 6  96839984.02243  23649286.578                    23649295.121
 118264863.927 7  92154516.09245  22505062.344                    22505071.066
 117236098.749 7  91352886.276 7  22309251.391                    22309258.398
 109726521.594 8  85501228.14746  20880221.852                    20880227.176
 112916065.712 7  87986585.21645  21487181.531                    21487189.445
 11  7 30  0 59  0.0000000  0  9G12G05G04G27G28G09G17G02G10
 119397898.536 7  93037333.024 6  22720652.883                    22720659.293
 125553402.601 7  97833877.168 6  23892004.063                    23892014.438
 107427949.782 8  83710267.29546  20442836.430                    20442844.004
 120426291.269 7  93838713.70744  22916361.016                    22916369.621
 124372151.134 6  96913462.89243  23667230.695                    23667239.191
 118314965.064 7  92193555.90245  22514596.547                    22514604.934
 117278837.964 7  91386189.554 7  22317383.883                    22317391.852
 109692996.787 8  85475104.95046  20873842.313                    20873847.516
 112857022.968 7  87940577.93045  21475946.211                    21475954.344
 11  7 30  0 59 30.0000000  0  9G12G05G04G27G28G09G17G02G10
 119309906.342 7  92968767.698 7  22703908.688                    22703915.012
 125447302.373 6  97751201.798 6  23871813.641                    23871823.488
 107479641.640 8  83750546.66246  20452673.219                    20452681.035
 120472703.236 7  93874878.82144  22925193.227                    22925201.840
 124466704.234 6  96987140.59943  23685223.766                    23685232.035
 118365535.331 7  92232961.23845  22524219.938                    22524228.496
 117321684.112 8  91419576.153 7  22325537.570                    22325544.875
 109659838.993 8  85449267.73546  20867532.305                    20867537.383
 112798449.836 7  87894936.55845  21464799.930                    21464807.922
 11  7 30  1  0  0.0000000  0  9G12G05G04G27G28G09G17G02G10
 119222119.815 7  92900362.645 7  22687202.563                    22687209.934
 125341219.751 7  97668540.116 6  23851626.813                    23851636.664
 107531698.964 8  83791110.81446  20462579.250                    20462586.863
 120519429.668 7  93911288.98844  22934084.578                    22934093.832
 124561510.478 6  97061015.50243  23703264.703                    23703273.016
 118416571.566 7  92272729.70245  22533931.570                    22533939.984
 117364637.738 8  91453046.477 7  22333711.234                    22333718.484
 109627047.814 8  85423716.17946  20861292.563                    20861297.348
 112740349.219 7  87849663.39845  21453743.773                    21453751.543
 11  7 30  1  0 30.0000000  0  9G12G05G04G27G28G09G17G02G10
 119134541.231 7  92832119.605 7  22670537.398                    22670544.313
 125235157.276 7  97585894.159 6  23831443.672                    23831453.285
 107584119.492 8  83831957.97146  20472554.602                    20472562.285
 120566468.044 7  93947942.21944  22943036.016                    22943044.844
 124656568.172 6  97135086.39543  23721353.102                    23721361.789
 118468071.216 7  92312859.25745  22543731.438                    22543740.457
 117407699.237 7  91486600.870 7  22341905.047                    22341913.211
 109594622.745 8  85398449.89346  20855122.047                    20855127.602
 112682723.788 7  87804760.49445  21442777.977                    21442786.082
 11  7 30  1  1  0.0000000  0  9G12G05G04G27G28G09G17G02G10
 119047173.082 7  92764040.560 7  22653911.484                    22653918.676
 125129117.881 7  97503266.176 6  23811265.078                    23811275.094
 107636900.850 8  83873086.29246  20482598.609                    20482606.266
 120613816.053 7  93984836.71744  22952045.695                    22952054.836
 124751875.771 6  97209351.98943  23739489.836                    23739498.418
 118520031.476 7  92353347.74445  22553619.617                    22553627.637
 117450869.182 7  91520239.753 7  22350120.500                    22350128.145
 109562563.796 8  85373468.90746  20849021.742                    20849027.074
 112625575.977 8  87760229.77345  21431903.109                    21431910.816
 11  7 30  1  1 30.0000000  0  9G12G05G04G27G28G09G17G02G10
 118960017.830 7  92696127.412 7  22637326.484                    22637333.445
 125023104.380 7  97420658.345 6  23791091.109                    23791101.281
 107690040.871 8  83914494.09546  20492711.195                    20492718.594
 120661471.332 7  94021970.62444  22961114.125                    22961123.586
 124847431.419 6  97283810.87443  23757673.484                    23757682.395
 118572449.344 7  92394192.78845  22563594.375                    22563603.102
 117494148.178 7  91553963.642 7  22358355.914                    22358363.773
 109530870.539 8  85348772.87246  20842990.375                    20842995.715
 112568908.714 8  87716073.49245  21421119.555                    21421127.426
 11  7 30  1  2  0.0000000  0  9G12G05G04G27G28G09G17G02G10
 118873078.089 7  92628382.202 6  22620782.227                    22620789.367
 124917119.773 7  97338073.040 6  23770923.359                    23770933.320
 107743537.190 8  83956179.53446  20502890.898                    20502898.375
 120709431.317 7  94059342.00844  22970240.852                    22970249.703
 124943233.281 6  97358461.59243  23775904.477                    23775912.797
 118625321.871 7  92435392.11344  22573655.641                    22573664.289
 117537536.442 7  91587772.657 7  22366612.438                    22366620.676
 109499542.579 8  85324361.50046  20837028.750                    20837034.324
 112512724.792 8  87672293.84445  21410428.648                    21410435.859
 11  7 30  1  2 30.0000000  0  9G12G05G04G27G28G09G17G02G10
 118786356.474 7  92560806.925 7  22604280.094                    22604286.789
 124811166.910 7  97255512.458 6  23750760.734                    23750770.125
 107797387.393 8  83998140.71446  20513138.391                    20513145.719
 120757693.672 7  94096948.98644  22979425.531                    22979433.945
 125039279.213 6  97433302.50143  23794180.766                    23794189.355
 118678646.320 7  92476943.57445  22583803.031                    22583811.348
 117581034.740 7  91621667.411 7  22374890.500                    22374897.969
 109468579.718 8  85300234.61646  20831136.844                    20831142.316
 112457026.508 8  87628892.61445  21399829.508                    21399837.324
 11  7 30  1  3  0.0000000  0  9G12G05G04G27G28G09G17G02G10
 118699855.375 7  92493403.501 7  22587819.344                    22587826.613
 124705248.407 7  97172978.650 6  23730605.391                    23730615.027
 107851589.232 8  84040375.89446  20523452.680                    20523460.402
 120806255.912 7  94134789.62744  22988666.297                    22988674.734
 125135567.844 6  97508332.52443  23812504.234                    23812512.656
 118732419.634 7  92518844.81845  22594035.898                    22594044.391
 117624643.364 7  91655648.135 7  22383188.836                    22383196.191
 109437981.494 8  85276391.86546  20825313.977                    20825319.391
 112401816.580 8  87585871.91345  21389323.141                    21389331.074
 11  7 30  1  3 30.0000000  0  9G12G05G04G27G28G09G17G02G10
 118613577.475 7  92426174.013 7  22571401.063                    22571408.547
 124599367.599 7  97090474.199 6  23710456.727                    23710466.652
 107906140.496 8  84082883.36146  20533833.359                    20533841.266
 120855115.684 7  94172862.13144  22997964.008                    22997972.563
 125232097.392 6  97583550.27743  23830872.930                    23830881.805
 118786638.988 7  92561093.61445  22604353.352                    22604361.938
 117668362.834 7  91689715.224 7  22391508.625                    22391515.684
 109407747.843 8  85252833.18246  20819561.047                    20819566.660
 112347097.631 8  87543233.80545  21378910.859                    21378918.324
 11  7 30  1  4  0.0000000  0  9G12G05G04G27G28G09G17G02G10
 118527525.303 7  92359120.401 7  22555025.914                    22555032.629
 124493526.953 7  97008001.069 6  23690316.000                    23690325.215
 107961038.676 8  84125661.13646  20544280.344                    20544287.668
 120904270.768 7  94211164.74144  23007318.141                    23007326.465
 125328865.993 6  97658954.31043  23849287.977                    23849296.133
 118841301.621 7  92603687.82445  22614755.555                    22614763.582
 117712193.692 7  91723869.118 7  22399849.391                    22399856.934
 109377878.543 8  85229558.41946  20813876.914                    20813882.387
 112292872.478 8  87500980.45446  21368591.758                    21368599.344
 11  7 30  1  4 30.0000000  0  9G12G05G04G27G28G09G17G02G10
 118441701.191 7  92292244.483 7  22538693.922                    22538700.566
 124387729.001 7  96925561.205 6  23670182.844                    23670193.168
 108016281.482 8  84168707.46946  20554792.414                    20554800.109
 120953718.395 7  94249695.32144  23016727.578                    23016736.094
 125425871.651 6  97734543.07343  23867747.039                    23867755.707
 118896404.139 7  92646624.77845  22625241.047                    22625249.043
 117756136.376 7  91758110.159 7  22408211.516                    22408218.988
 109348372.578 8  85206566.77346  20808262.250                    20808267.414
 112239143.468 8  87459113.71645  21358367.586                    21358374.820
 11  7 30  1  5  0.0000000  0  9G12G05G04G27G28G09G17G02G10
 118356107.945 7  92225548.464 7  22522406.234                    22522413.035
 124281977.411 7  96843157.468 6  23650059.609                    23650068.777
 108071866.893 8  84212020.76346  20565369.953                    20565377.891
 121003456.473 7  94288452.20744  23026192.383                    23026201.109
 125523112.963 6  97810315.48343  23886252.305                    23886260.238
 118951944.037 7  92689902.58545  22635810.563                    22635818.074
 117800191.907 7  91792439.121 7  22416594.625                    22416601.832
 109319230.624 8  85183858.78546  20802716.461                    20802721.789
 112185913.720 8  87417636.01845  21348238.273                    21348246.180
 11  7 30  1  5 30.0000000  0  9G12G05G04G27G28G09G17G02G10
 118270747.837 7  92159034.131 7  22506162.852                    22506170.098
 124176274.590 7  96760791.729 6  23629944.898                    23629953.707
 108127792.222 8  84255598.91346  20576012.422                    20576019.984
 121053482.009 7  94327433.09844  23035711.758                    23035721.344
 125620587.840 6  97886269.85443  23904800.852                    23904809.250
 119007917.897 7  92733518.49744  22646461.461                    22646470.430
 117844360.227 8  91826856.011 7  22424999.719                    22425007.652
 109290451.321 8  85161433.37246  20797240.250                    20797245.586
 112133185.205 8  87376548.90645  21338204.125                    21338212.168
 11  7 30  1  6  0.0000000  0  9G12G05G04G27G28G09G17G02G10
 118185623.509 7  92092703.516 7  22489964.453                    22489971.160
 124070623.336 7  96678466.163 6  23609839.820                    23609848.980
 108184054.964 8  84299440.00046  20586718.484                    20586726.199
 121103792.519 7  94366636.04344  23045285.984                    23045294.715
 125718294.465 7  97962404.80343  23923394.344                    23923402.828
 119064322.916 7  92777470.42745  22657194.992                    22657203.504
 117888641.758 8  91861361.066 7  22433426.648                    22433433.609
 109262034.443 8  85139290.36546  20791832.602                    20791837.824
 112080960.398 8  87335854.27445  21328266.234                    21328274.250
 11  7 30  1  6 30.0000000  0  9G12G05G04G27G28G09G17G02G10
 118100737.587 7  92026558.670 7  22473810.711                    22473817.750
 123965026.468 7  96596182.988 6  23589745.211                    23589754.473
 108240652.940 8  84343542.29846  20597488.938                    20597496.285
 121154385.541 7  94406059.11444  23054913.422                    23054922.430
 125816230.635 6  98038718.62743  23942030.664                    23942040.281
 119121155.864 7  92821755.77945  22668010.219                    22668018.359
 117933037.060 8  91895954.810 7  22441874.250                    22441881.461
 109233979.592 8  85117429.46746  20786493.805                    20786498.898
 112029241.715 8  87295554.03346  21318424.227                    21318432.285
 11  7 30  1  7  0.0000000  0  9G12G05G04G27G28G09G17G02G10
 118016092.580 7  91960601.532 7  22457703.563                    22457710.145
 123859487.115 7  96513944.631 6  23569661.289                    23569670.707
 108297583.793 8  84387903.99146  20608322.602                    20608330.480
 121205258.570 7  94445700.40044  23064594.570                    23064603.891
 125914394.698 6  98115210.03343  23960709.898                    23960720.215
 119178413.559 7  92866372.11345  22678905.383                    22678914.555
 117977546.966 7  91930637.845 7  22450344.648                    22450351.535
 109206286.371 8  85095850.35446  20781223.930                    20781229.238
 111978031.861 8  87255650.28445  21308679.648                    21308687.141
 11  7 30  1  7 30.0000000  0  9G12G05G04G27G28G09G17G02G10
 117931691.090 7  91894834.150 7  22441642.367                    22441649.262
 123754007.958 7  96431753.175 6  23549589.203                    23549599.047
 108354845.014 8  84432523.10946  20619219.086                    20619226.852
 121256409.239 7  94485557.98444  23074328.648                    23074337.602
 126012784.740 6  98191877.49843  23979433.453                    23979442.398
 119236093.044 7  92911317.08545  22689881.898                    22689890.816
 118022171.657 8  91965410.306 7  22458836.109                    22458843.594
 109178954.168 8  85074552.54546  20776022.617                    20776028.254
 111927333.328 8  87216144.97246  21299032.273                    21299039.922
 11  7 30  1  8  0.0000000  0  9G12G05G04G27G28G09G17G02G10
 117847535.623 7  91829258.479 7  22425627.664                    22425635.277
 123648592.248 7  96349611.155 6  23529529.383                    23529538.684
 108412434.458 8  84477397.99346  20630178.016                    20630185.797
 121307835.007 7  94525629.97544  23084114.320                    23084123.051
 126111399.068 6  98268719.78643  23998199.758                    23998208.320
 119294191.340 7  92956588.42644  22700937.836                    22700947.133
 118066911.850 7  92000272.771 7  22467349.938                    22467357.391
 109151982.951 8  85053536.02946  20770890.375                    20770895.434
 111877148.747 8  87177040.12546  21289482.016                    21289489.820
 11  7 30  1  8 30.0000000  0  9G12G05G04G27G28G09G17G02G10
 117763628.749 7  91763876.517 7  22409660.844                    22409668.430
 123543242.150 7  96267520.252 6  23509481.820                    23509490.785
 108470349.475 8  84522526.56946  20641198.898                    20641206.219
 121359533.134 7  94565914.16944  23093952.102                    23093960.680
 126210235.565 6  98345735.14743  24017007.234                    24017016.199
 119352705.326 7  93002183.68345  22712072.766                    22712081.559
 118111767.578 8  92035225.267 7  22475885.688                    22475893.523
 109125371.639 8  85032799.95346  20765826.352                    20765831.594
 111827480.102 8  87138337.33245  21280030.266                    21280038.289
 11  7 30  1  9  0.0000000  0  9G12G05G04G27G28G09G17G02G10
 117679972.980 7  91698690.247 7  22393742.039                    22393749.238
 123437961.171 7  96185483.183 6  23489447.688                    23489456.813
 108528588.146 8  84567907.34946  20652281.320                    20652289.047
 121411501.482 7  94606408.90744  23103841.352                    23103850.387
 126309292.464 6  98422922.29843  24035857.336                    24035866.426
 119411632.032 7  93048100.55645  22723286.086                    22723295.133
 118156739.889 7  92070268.625 7  22484443.336                    22484451.664
 109099120.282 8  85012344.36446  20760831.000                    20760836.023
 111778330.118 8  87100038.67146  21270677.133                    21270684.938
 11  7 30  1  9 30.0000000  0  9G12G05G04G27G28G09G17G02G10
 117596570.826 7  91633701.557 7  22377871.016                    22377878.164
 123332752.172 7  96103502.236 6  23469427.195                    23469436.055
 108587148.241 8  84613538.57446  20663425.039                    20663432.496
 121463737.509 7  94647112.23444  23113781.703                    23113790.934
 126408568.021 6  98500279.85143  24054748.742                    24054757.781
 119470968.364 7  93094336.60744  22734577.711                    22734586.047
 118201829.587 7  92105403.425 7  22493023.891                    22493031.520
 109073228.480 8  84992168.94146  20755903.938                    20755909.336
 111729701.439 8  87062146.23845  21261423.313                    21261431.117
 11  7 30  1 10  0.0000000  0  9G12G05G04G27G28G09G17G02G10
 117513425.150 7  91568912.737 7  22362049.008                    22362056.051
 123227618.145 7  96021579.682 6  23449420.906                    23449429.969
 108646027.498 8  84659418.50146  20674629.297                    20674636.605
 121516238.680 7  94688022.17644  23123772.234                    23123781.211
 126508060.194 6  98577806.18443  24073682.109                    24073690.598
 119530711.526 7  93140889.67744  22745946.266                    22745955.074
 118247036.930 7  92140629.897 7  22501625.930                    22501633.938
 109047695.852 8  84972273.39346  20751045.289                    20751050.395
 111681596.527 8  87024661.91345  21252269.617                    21252277.133
 11  7 30  1 10 30.0000000  0  9G12G05G04G27G28G09G17G02G10
 117430538.199 7  91504325.519 7  22346275.867                    22346282.965
 123122561.620 7  95939717.535 6  23429429.234                    23429437.824
 108705222.993 8  84705544.85846  20685893.828                    20685901.441
 121569002.119 7  94729136.48144  23133812.266                    23133822.234
 126607767.028 6  98655499.81943  24092655.617                    24092663.734
 119590858.059 7  93187757.05245  22757392.070                    22757400.219
 118292362.253 7  92175948.296 7  22510250.953                    22510259.363
 109022521.528 8  84952657.04446  20746254.609                    20746259.762
 111634017.295 8  86987587.21746  21243215.930                    21243223.262
 11  7 30  1 11  0.0000000  0  9G12G05G04G27G28G09G17G02G10
 117347912.718 7  91439942.036 7  22330552.984                    22330559.758
 123017585.519 7  95857918.052 6  23409452.797                    23409461.465
 108764732.410 8  84751915.81646  20697218.125                    20697225.602
 121622025.262 7  94770453.14644  23143902.914                    23143911.707
 126707686.553 6  98733359.11343  24111669.516                    24111678.883
 119651404.540 7  93234936.09844  22768913.539                    22768921.707
 118337806.143 7  92211359.106 7  22518899.805                    22518906.875
 108997704.957 8  84933319.46546  20741532.211                    20741537.500
 111586965.945 8  86950923.86545  21234262.023                    21234269.605
 11  7 30  1 11 30.0000000  0  9G12G05G04G27G28G09G17G02G10
 117265551.172 7  91375764.226 7  22314879.742                    22314886.895
 122912693.050 7  95776183.709 6  23389492.891                    23389501.113
 108824553.616 8  84798529.73146  20708601.852                    20708608.969
 121675305.646 7  94811970.27344  23154041.219                    23154050.801
 126807816.792 6  98811382.67643  24130723.422                    24130732.566
 119712348.115 7  93282424.53544  22780510.633                    22780519.551
 118383369.132 7  92246862.687 7  22527569.641                    22527577.496
 108973245.782 8  84914260.38146  20736877.625                    20736882.738
 111540445.016 8  86914673.82445  21225409.117                    21225416.863
 11  7 30  1 12  0.0000000  0  9G12G05G04G27G28G09G17G02G10
 117183456.017 7  91311794.000 7  22299257.875                    22299264.895
 122807886.898 7  95694516.624 6  23369548.633                    23369557.461
 108884683.948 8  84845384.53246  20720043.773                    20720051.293
 121728840.378 7  94853685.59144  23164228.891                    23164237.754
 126908155.584 6  98889568.72643  24149816.617                    24149826.602
 119773685.480 7  93330219.84344  22792182.922                    22792191.254
 118429051.575 7  92282459.373 7  22536262.961                    22536270.500
 108949143.000 8  84895479.00646  20732291.320                    20732296.422
 111494456.469 8  86878838.62446  21216658.156                    21216665.625
 11  7 30  1 12 30.0000000  0  9G12G05G04G27G28G09G17G02G10
 117101630.152 7  91248033.592 7  22283686.883                    22283693.973
 122703170.165 7  95612919.262 6  23349621.445                    23349630.258
 108945121.491 8  84892478.70746  20731544.898                    20731552.492
 121782627.336 7  94895597.43644  23174464.195                    23174473.395
 127008701.374 6  98967916.04043  24168951.375                    24168959.707
 119835413.797 7  93378319.78944  22803929.219                    22803938.059
 118474854.361 7  92318149.818 7  22544978.734                    22544986.250
 108925396.648 8  84876975.37546  20727772.344                    20727777.230
 111449003.316 8  86843420.60746  21208008.516                    21208016.145
 11  7 30  1 13  0.0000000  0  9G12G05G04G27G28G09G17G02G10
 117020076.090 7  91184484.963 7  22268167.391                    22268174.168
 122598545.827 7  95531393.883 6  23329711.758                    23329721.105
 109005863.854 8  84939810.40346  20743103.844                    20743111.645
 121836663.626 7  94937703.57644  23184747.922                    23184756.359
 127109451.957 6  99046422.96443  24188122.500                    24188132.027
 119897529.528 7  93426721.58744  22815749.477                    22815758.148
 118520777.718 7  92353934.226 7  22553717.984                    22553725.301
 108902005.698 8  84858748.65746  20723321.266                    20723326.266
 111404087.470 8  86808421.27946  21199461.086                    21199468.914
 11  7 30  1 13 30.0000000  0  9G12G05G04G27G28G09G17G02G10
 116938796.551 7  91121150.272 7  22252700.688                    22252708.008
 122494016.956 7  95449942.885 6  23309820.328                    23309829.371
 109066908.777 8  84987377.86346  20754720.539                    20754727.570
 121890947.058 7  94980002.29544  23195076.969                    23195086.293
 127210405.855 6  99125088.35043  24207333.602                    24207342.840
 119960029.950 7  93475423.18244  22827642.586                    22827651.180
 118566822.629 7  92389813.355 7  22562480.414                    22562487.484
 108878970.610 8  84840799.26246  20718937.586                    20718942.922
 111359711.533 8  86773842.64646  21191016.680                    21191024.328
 11  7 30  1 14  0.0000000  0  9G12G05G04G27G28G09G17G02G10
 116857793.564 7  91058031.098 7  22237285.633                    22237293.223
 122389586.056 7  95368568.252 6  23289947.797                    23289956.715
 109128253.518 8  85035178.95046  20766394.227                    20766401.473
 121945474.630 7  95022491.22444  23205454.203                    23205462.770
 127311560.672 6  99203910.23042  24226582.500                    24226591.777
 120022911.387 7  93524421.64344  22839609.039                    22839616.734
 118612989.366 7  92425787.410 7  22571265.250                    22571272.879
 108856289.946 8  84823126.03246  20714621.617                    20714626.840
 111315876.797 8  86739685.73246  21182675.070                    21182682.922
 11  7 30  1 14 30.0000000  0  9G12G05G04G27G28G09G17G02G10
 116777070.042 7  90995129.663 7  22221925.203                    22221932.367
 122285256.264 7  95287272.369 7  23270094.219                    23270103.859
 109189895.838 8  85083211.91546  20778124.070                    20778131.777
 122000243.688 7  95065168.33944  23215875.969                    23215885.023
 127412914.367 6  99282887.08943  24245869.953                    24245879.020
 120086170.668 7  93573714.55344  22851645.977                    22851655.496
 118659278.432 7  92461856.781 7  22580073.844                    22580081.395
 108833963.144 8  84805728.54046  20710373.367                    20710378.105
 111272585.905 8  86705952.58646  21174437.281                    21174444.887
 11  7 30  1 15  0.0000000  0 10G12G05G25G04G27G28G09G17G02G10
 116696628.596 8  90932448.034 7  22206617.750                    22206624.445
 122181030.550 7  95206057.589 7  23250261.273                    23250269.980
 133097136.57814 103712174.69913  25327557.047
 109251833.657 8  85131475.13246  20789910.594                    20789918.434
 122055251.724 7  95108031.68144  23226343.547                    23226353.113
 127514465.084 6  99362017.52743  24265194.555                    24265203.559
 120149804.824 7  93623299.53244  22863756.250                    22863764.609
 118705690.230 7  92498021.799 7  22588905.711                    22588912.809
 108811989.680 8  84788606.36246  20706191.789                    20706196.645
 111229841.045 8  86672644.93445  21166303.094                    21166310.848
 11  7 30  1 15 30.0000000  0 10G12G05G25G04G27G28G09G17G02G10
 116616471.796 7  90869988.201 7  22191364.039                    22191371.055
 122076911.754 7  95124926.144 7  23230447.781                    23230457.367
 132991594.58515 103629934.18914  25307474.422
 109314064.302 8  85179966.54346  20801752.711                    20801759.805
 122110496.057 7  95151079.16344  23236856.305                    23236865.121
 127616210.776 6  99441299.86643  24284555.656                    24284565.258
 120213810.633 6  93673174.15644  22875936.141                    22875944.617
 118752225.588 7  92534283.098 7  22597761.148                    22597768.531
 108790369.026 8  84771759.10846  20702077.625                    20702082.801
 111187644.368 8  86639764.43246  21158273.023                    21158281.215
 11  7 30  1 16  0.0000000  0 10G12G05G25G04G27G28G09G17G02G10
 116536602.237 7  90807752.182 7  22176165.594                    22176172.664
 121972903.060 7  95043880.464 6  23210655.727                    23210663.953
 132886082.378 4 103547716.946 4  25287395.500
 109376585.810 8  85228684.58946  20813650.180                    20813657.793
 122165974.327 7  95194308.89344  23247413.438                    23247422.156
 127718149.431 6  99520732.59242  24303953.922                    24303963.313
 120278184.606 7  93723335.60244  22888186.195                    22888194.848
 118798885.005 7  92570641.066 7  22606640.180                    22606647.629
 108769100.616 8  84755186.33046  20698029.984                    20698035.113
 111145998.125 8  86607312.83946  21150348.117                    21150355.715
 11  7 30  1 16 30.0000000  0 10G12G05G25G04G27G28G09G17G02G10
 116457022.493 7  90745742.005 7  22161021.945                    22161028.988
 121869007.035 7  94962922.594 6  23190885.070                    23190893.785
 132780602.32415 103465524.74115  25267324.781
 109439395.284 8  85277627.02046  20825602.555                    20825609.625
 122221683.462 7  95237718.56244  23258014.070                    23258023.652
 127820278.920 6  99600313.96242  24323388.086                    24323398.090
 120342923.580 7  93773781.48944  22900506.180                    22900513.762
 118845668.931 7  92607096.040 7  22615542.680                    22615549.996
 108748183.627 8  84738887.39546  20694049.859                    20694055.000
 111104904.180 8  86575291.60546  21142528.063                    21142535.742
 11  7 30  1 17  0.0000000  0 10G12G05G25G04G27G28G09G17G02G10
 116377735.001 8  90683959.569 7  22145933.609                    22145940.914
 121765226.738 7  94882054.914 7  23171135.844                    23171145.105
 132675156.223 5 103383358.979 5  25247259.953
 109502490.833 8  85326792.38146  20837609.180                    20837616.422
 122277621.227 7  95281306.34544  23268658.711                    23268668.656
 127922597.263 6  99680042.54742  24342859.188                    24342868.191
 120408024.486 7  93824509.43544  22912893.703                    22912903.066
 118892578.005 7  92643648.523 7  22624469.539                    22624476.949
 108727617.639 8  84722861.95646  20690136.023                    20690140.969
 111064364.785 8  86543702.49046  21134813.773                    21134821.531
 11  7 30  1 17 30.0000000  0 10G12G05G25G04G27G28G09G17G02G10
 116298742.581 8  90622407.049 7  22130902.188                    22130908.988
 121661565.480 7  94801279.983 6  23151409.750                    23151418.313
 132569746.911 5 103301221.857 5  25227199.742
 109565870.130 8  85376178.84846  20849669.516                    20849677.523
 122333785.004 7  95325070.26244  23279346.391                    23279356.246
 128025102.776 6  99759916.92243  24362364.719                    24362374.203
 120473484.062 7  93875516.81745  22925350.797                    22925359.762
 118939612.734 7  92680298.957 7  22633419.906                    22633427.539
 108707402.207 8  84707109.66746  20686289.555                    20686294.566
 111024382.105 8  86512547.18146  21127205.258                    21127213.195
 11  7 30  1 18  0.0000000  0 10G12G05G25G04G27G28G09G17G02G10
 116220047.563 8  90561086.266 7  22115926.781                    22115933.910
 121558026.196 7  94720600.085 6  23131706.516                    23131716.086
 132464376.108 5 103219114.785 5  25207149.023
 109629530.643 8  85425784.41846  20861784.102                    20861791.230
 122390171.733 7  95369007.88744  23290076.664                    23290087.000
 128127793.489 6  99839935.60643  24381906.867                    24381915.879
 120539298.585 7  93926800.80044  22937874.383                    22937883.793
 118986773.586 7  92717047.659 6  22642394.461                    22642401.246
 108687536.413 8  84691629.82846  20682508.836                    20682513.922
 110984957.896 8  86481827.04346  21119703.086                    21119711.141
 11  7 30  1 18 30.0000000  0 10G12G05G25G04G27G28G09G17G02G10
 116141652.258 7  90499999.028 7  22101009.070                    22101016.063
 121454611.141 7  94640017.007 6  23112027.789                    23112036.230
 132359045.786 4 103137039.266 5  25187105.547
 109693469.652 8  85475607.02146  20873951.063                    20873959.020
 122446778.397 6  95413116.90144  23300848.664                    23300858.008
 128230666.552 6  99920096.44742  24401483.047                    24401492.648
 120605464.839 6  93978358.86044  22950465.344                    22950474.535
 119034060.857 7  92753894.841 7  22651392.242                    22651400.016
 108668018.724 8  84676421.23846  20678795.008                    20678800.055
 110946093.714 8  86451543.30646  21112307.500                    21112314.789
 11  7 30  1 19  0.0000000  0 10G12G05G25G04G27G28G09G17G02G10
 116063559.928 7  90439147.886 7  22086148.688                    22086155.848
 121351324.030 7  94559533.625 6  23092372.703                    23092381.723
 132253758.912 5 103054997.575 5  25167070.133
 109757685.669 8  85525645.46846  20886171.180                    20886178.387
 122503603.104 7  95457395.83144  23311662.211                    23311671.980
 128333720.437 6 100000398.17443  24421094.773                    24421102.426
 120671980.094 7  94030188.88444  22963122.938                    22963132.133
 119081475.601 7  92790841.387 7  22660415.039                    22660423.402
 108648849.853 8  84661484.46446  20675147.203                    20675152.539
 110907792.281 8  86421698.05146  21105019.172                    21105026.727
 11  7 30  1 19 30.0000000  0 10G12G05G25G04G27G28G09G17G02G10
 115985772.819 7  90378534.575 7  22071345.938                    22071353.109
 121248167.500 7  94479151.984 7  23072741.961                    23072751.867
 132148517.218 5 102972991.096 5  25147043.156
 109822175.977 8  85575897.65646  20898443.516                    20898450.770
 122560643.051 6  95501842.47244  23322516.148                    23322526.199
 128436953.158 6 100080839.22143  24440737.828                    24440746.820
 120738840.794 7  94082288.05644  22975846.539                    22975854.992
 119129018.194 7  92827887.539 7  22669462.414                    22669470.039
 108630028.513 8  84646818.50946  20671565.336                    20671570.859
 110870055.445 8  86392292.76145  21097837.930                    21097845.699
 11  7 30  1 20  0.0000000  0 10G12G05G25G04G27G28G09G17G02G10
 115908293.732 7  90318161.278 7  22056602.102                    22056609.180
 121145144.613 7  94398874.506 7  23053137.969                    23053147.406
 132043323.227 5 102891021.773 5  25127025.234                    25127036.695
 109886938.119 8  85626361.65946  20910766.938                    20910774.738
 122617895.480 6  95546454.67844  23333411.453                    23333420.086
 128540362.412 6 100161417.80842  24460415.813                    24460425.246
 120806043.496 7  94134653.72744  22988634.984                    22988643.910
 119176689.018 7  92865033.605 7  22678533.945                    22678541.344
 108611554.169 8  84632422.93046  20668050.156                    20668055.004
 110832884.821 8  86363328.66646  21090764.633                    21090772.289
 11  7 30  1 20 30.0000000  0 10G12G05G25G04G27G28G09G17G02G10
 115831124.706 8  90258029.571 7  22041917.969                    22041924.469
 121042258.244 7  94318703.362 7  23033559.602                    23033568.496
 131938179.119 5 102809091.337 5  25107016.078                    25107028.938
 109951970.068 8  85677035.89946  20923142.133                    20923149.664
 122675357.720 7  95591230.36444  23344346.133                    23344355.777
 128643946.694 6 100242132.80642  24480127.492                    24480136.078
 120873585.187 7  94187283.56944  23001486.922                    23001496.418
 119224488.987 7  92902280.300 7  22687629.492                    22687638.105
 108593426.149 8  84618297.21546  20664600.273                    20664605.457
 110796282.670 8  86334807.54246  21083799.766                    21083806.883
 11  7 30  1 21  0.0000000  0 10G12G05G25G04G27G28G09G17G02G10
 115754268.613 7  90198141.735 7  22027292.141                    22027299.238
 120939511.289 7  94238640.903 7  23014007.336                    23014016.316
 131833087.168 5 102727201.541 5  25087019.211                    25087030.242
 110017269.385 8  85727918.46646  20935568.594                    20935575.949
 122733026.827 7  95636167.25944  23355320.867                    23355330.098
 128747703.427 6 100322982.16343  24499872.234                    24499880.867
 120941462.522 7  94240174.94944  23014404.406                    23014413.938
 119272418.378 7  92939627.846 7  22696751.102                    22696758.359
 108575643.394 8  84604440.51546  20661216.516                    20661221.590
 110760250.694 8  86306730.70846  21076942.633                    21076950.340
 11  7 30  1 21 30.0000000  0 10G12G05G25G04G27G28G09G17G02G10
 115677728.076 8  90138499.782 7  22012727.148                    22012733.781
 120836906.678 7  94158689.353 6  22994482.336                    22994491.223
 131728049.467 5 102645353.991 5  25067030.281                    25067041.953
 110082833.483 8  85779007.36446  20948044.555                    20948052.457
 122790900.320 6  95681263.42044  23366333.336                    23366343.223
 128851630.580 6 100403964.32842  24519648.039                    24519657.605
 121009672.010 7  94293325.10244  23027384.508                    23027393.137
 119320477.644 7  92977076.629 6  22705895.719                    22705902.766
 108558205.380 8  84590852.46846  20657897.906                    20657903.066
 110724790.606 8  86279099.49546  21070195.445                    21070202.609
 11  7 30  1 22  0.0000000  0 10G12G05G25G04G27G28G09G17G02G10
 115601505.598 8  90079105.653 7  21998222.625                    21998229.484
 120734447.648 7  94078851.230 7  22974984.719                    22974993.102
 131623068.416 5 102563550.599 5  25047052.547                    25047064.797
 110148660.293 8  85830300.97146  20960570.914                    20960578.727
 122848975.433 6  95726516.67244  23377384.453                    23377394.148
 128955726.403 6 100485077.90543  24539456.469                    24539466.180
 121078210.191 7  94346731.42344  23040426.281                    23040435.012
 119368667.479 7  93014627.133 7  22715066.203                    22715073.973
 108541111.274 8  84577532.39546  20654645.273                    20654650.188
 110689904.485 8  86251915.53746  21063556.336                    21063563.895
 11  7 30  1 22 30.0000000  0 10G12G05G25G04G27G28G09G17G02G10
 115525603.897 7  90019961.483 7  21983778.828                    21983785.480
 120632137.265 7  93999128.910 7  22955516.195                    22955524.613
 131518146.493 5 102481793.281 5  25027086.641                    25027098.273
 110214747.524 8  85881797.49746  20973147.219                    20973154.508
 122907249.803 7  95771925.21344  23388474.180                    23388483.125
 129059988.552 6 100566321.09742  24559298.156                    24559307.223
 121147073.913 7  94400391.40344  23053530.820                    23053539.953
 119416988.590 7  93052279.912 7  22724261.664                    22724269.371
 108524360.763 8  84564480.05346  20651457.586                    20651463.195
 110655594.475 8  86225180.50246  21057027.258                    21057034.719
 11  7 30  1 23  0.0000000  0 10G12G05G25G04G27G28G09G17G02G10
 115450025.341 8  89961069.129 7  21969396.422                    21969403.574
 120529978.259 7  93919524.598 7  22936075.602                    22936084.438
 131413285.698 5 102400083.586 5  25007132.484
 110281092.937 8  85933495.20946  20985772.125                    20985779.379
 122965720.219 7  95817486.50044  23399600.523                    23399610.258
 129164414.774 6 100647692.12942  24579169.617                    24579178.996
 121216259.671 7  94454302.32444  23066696.484                    23066704.863
 119465441.232 7  93090035.205 7  22733481.430                    22733489.402
 108507952.436 8  84551694.34346  20648335.422                    20648339.926
 110621861.816 8  86198895.34746  21050608.086                    21050615.652
 11  7 30  1 23 30.0000000  0 10G12G05G25G04G27G28G09G17G02G10
 115374772.639 8  89902430.675 7  21955076.516                    21955083.066
 120427973.649 7  93840040.597 7  22916664.648                    22916673.508
 131308488.83915 102318423.71715  24987190.227
 110347693.996 8  85985392.12746  20998446.125                    20998453.281
 123024384.371 6  95863198.76744  23410764.445                    23410773.332
 129269003.434 6 100729189.80342  24599071.703                    24599081.090
 121285764.632 7  94508461.97144  23079922.883                    23079932.113
 119514026.224 7  93127893.615 7  22742726.891                    22742735.055
 108491886.272 8  84539175.26746  20645278.055                    20645282.707
 110588708.664 8  86173061.74146  21044299.352                    21044306.840
 11  7 30  1 24  0.0000000  0 10G12G05G25G04G27G28G09G17G02G10
 115299848.211 7  89844048.027 7  21940818.297                    21940825.840
 120326126.691 7  93760679.393 7  22897283.242                    22897292.273
 131203757.900 6 102236815.235 5  24967259.883
 110414548.822 8  86037486.77946  21011167.836                    21011175.191
 123083239.299 6  95909059.66444  23421963.891                    23421973.133
 129373752.199 6 100810812.23942  24619004.688                    24619014.418
 121355585.211 7  94562867.57344  23093209.094                    23093217.934
 119562744.107 7  93165855.567 7  22751997.547                    22752005.910
 108476161.347 8  84526922.08446  20642285.656                    20642290.547
 110556136.377 8  86147680.76346  21038100.969                    21038108.402
 11  7 30  1 24 30.0000000  0 10G12G05G25G04G27G28G09G17G02G10
 115225254.945 8  89785923.433 7  21926624.195                    21926631.445
 120224440.135 7  93681443.216 7  22877933.578                    22877941.613
 131099095.315 6 102155260.003 5  24947343.727                    24947354.289
 110481654.860 8  86089777.17946  21023937.750                    21023945.270
 123142282.393 7  95955067.19944  23433199.469                    23433209.176
 129478659.133 6 100892557.81642  24638968.133                    24638977.543
 121425718.022 7  94617516.43444  23106555.453                    23106564.539
 119611595.363 7  93203921.479 7  22761293.688                    22761301.695
 108460776.848 8  84514934.17146  20639357.977                    20639363.203
 110524146.920 8  86122753.93346  21032013.453                    21032021.281
 11  7 30  1 25  0.0000000  0 10G12G05G25G04G27G28G09G17G02G10
 115150995.320 7  89728058.810 7  21912492.641                    21912499.477
 120122916.754 7  93602334.176 7  22858613.961                    22858622.727
 130994503.164 6 102073759.630 5  24927440.586                    24927451.328
 110549009.613 8  86142261.38546  21036755.000                    21036762.430
 123201510.738 7  96001219.10944  23444470.242                    23444479.949
 129583721.837 6 100974424.82442  24658961.695                    24658970.500
 121496159.366 7  94672405.73144  23119960.203                    23119968.828
 119660580.632 7  93242091.776 7  22770615.344                    22770623.289
 108445731.723 8  84503210.71046  20636495.047                    20636500.195
 110492741.656 8  86098282.32246  21026037.109                    21026045.270
 11  7 30  1 25 30.0000000  0 10G12G05G25G04G27G28G09G17G02G10
 115077071.499 8  89670455.834 7  21898425.875                    21898432.820
 120021559.880 7  93523354.892 7  22839326.219                    22839335.148
 130889983.994 6 101992316.148 5  24907551.469                    24907562.012
 110616610.818 8  86194937.63546  21049618.906                    21049626.930
 123260921.653 6  96047513.24544  23455776.297                    23455785.035
 129688938.207 5 101056411.60642  24678983.445                    24678992.391
 121566906.154 7  94727533.05744  23133422.555                    23133431.414
 119709700.167 7  93280366.717 7  22779962.648                    22779970.008
 108431025.183 8  84491751.07346  20633696.898                    20633701.402
 110461922.427 8  86074267.34746  21020172.859                    21020180.270
 11  7 30  1 26  0.0000000  0 10G12G05G25G04G27G28G09G17G02G10
 115003486.139 7  89613116.619 7  21884422.750                    21884430.438
 119920372.057 7  93444507.321 7  22820070.820                    22820079.031
 130785540.105 6 101910931.348 6  24887676.695                    24887686.609
 110684456.515 8  86247804.39246  21062529.906                    21062537.254
 123320512.362 6  96093947.49144  23467115.383                    23467125.637
 129794306.335 5 101138516.56642  24699033.992                    24699044.133
 121637954.914 7  94782895.64344  23146943.031                    23146951.852
 119758954.599 7  93318746.792 7  22789335.203                    22789343.055
 108416656.335 8  84480554.58546  20630962.297                    20630967.617
 110431690.737 8  86050710.19946  21014419.953                    21014427.195
 11  7 30  1 26 30.0000000  0 10G12G05G25G04G27G28G09G17G02G10
 114930242.037 8  89556043.327 7  21870484.883                    21870491.660
 119819356.591 7  93365794.076 7  22800847.719                    22800856.227
 130681174.068 6 101829607.219 6  24867816.031                    24867827.012
 110752544.364 8  86300859.82746  21075486.563                    21075494.055
 123380280.702 6  96140520.12044  23478488.750                    23478499.199
 129899824.58815                  24719114.141
 121709302.611 7  94838491.18344  23160519.969                    23160528.961
 119808344.784 7  93357232.600 7  22798733.891                    22798742.113
 108402624.850 8  84469620.98346  20628291.914                    20628297.297
 110402048.636 8  86027612.47646  21008779.117                    21008786.465
 11  7 30  1 27  0.0000000  0 10G12G05G25G04G27G28G09G17G02G10
 114857341.661 7  89499237.836 7  21856612.703                    21856619.695
 119718516.475 7  93287217.446 7  22781658.516                    22781666.867
 130576887.919 6 101748345.362 5  24847970.977                    24847981.910
 110820872.028 8  86354102.15846  21088488.969                    21088496.285
 123440223.664 6  96187228.85044  23489895.969                    23489905.816
 130005489.45115                  24739220.102
 121780945.589 7  94894316.82144  23174153.430                    23174162.504
 119857871.051 7  93395824.478 7  22808158.680                    22808166.848
 108388929.734 8  84458949.48446  20625685.898                    20625691.176
 110372997.408 8  86004975.16846  21003250.922                    21003258.035
 11  7 30  1 27 30.0000000  0 10G12G05G25G04G27G28G09G17G02G10
 114784787.636 7  89442702.252 7  21842805.977                    21842812.738
 119617854.523 7  93208779.630 7  22762503.172                    22762511.441
 130472684.187 6 101667147.716 5  24828141.461                    24828151.707
 110889437.068 8  86407529.45146  21101536.250                    21101543.773
 123500338.169 6  96234071.24344  23501335.742                    23501345.316
 130111299.72515                  24759354.500
 121852880.475 6  94950369.93544  23187841.742                    23187850.543
 119907533.822 7  93434522.711 6  22817609.219                    22817616.695
 108375569.835 8  84448539.18246  20623143.398                    20623148.625
 110344538.412 8  85982799.35146  20997835.352                    20997842.813
 11  7 30  1 28  0.0000000  0 10G12G05G25G04G27G28G09G17G02G10
 114712582.243 8  89386438.328 7  21829065.867                    21829072.313
 119517373.709 7  93130482.986 7  22743382.078                    22743390.902
 130368565.332 6 101586016.187 5  24808328.656                    24808338.027
 110958237.392 8  86461140.08046  21114628.648                    21114636.063
 123560621.829 6  96281045.43144  23512807.617                    23512816.352
 130217253.527 5                  24779518.352
 121925103.852 7  95006647.81544  23201585.547                    23201594.422
 119957333.897 7  93473327.944 7  22827086.023                    22827093.777
 108362544.818 8  84438389.82946  20620664.922                    20620669.820
 110316673.549 8  85961086.49246  20992532.609                    20992539.961
 11  7 30  1 28 30.0000000  0 10G12G05G25G04G27G28G09G17G02G10
 114640727.976 8  89330448.004 7  21815392.398                    21815399.348
 119417077.152 7  93052329.908 7  22724296.141                    22724304.785
 130264533.602 6 101504952.530 5  24788531.352                    24788541.684
 111027270.587 8  86514932.15146  21127765.180                    21127773.000
 123621071.541 6  96328149.04644  23524310.719                    23524320.262
 130323348.136 5 101550702.64052  24799708.039                    24799719.277
 121997612.577 7  95063148.06144  23215383.438                    23215392.703
 120007271.743 7  93512240.530 6  22836588.672                    22836596.445
 108349853.487 8  84428500.48546  20618249.547                    20618254.961
 110289404.209 8  85939837.67546  20987343.289                    20987351.184
 11  7 30  1 29  0.0000000  0 10G12G05G25G04G27G28G09G17G02G10
 114569227.545 8  89274733.409 7  21801786.219                    21801793.430
 119316967.927 7  92974322.807 7  22705246.258                    22705254.910
 130160591.432 6 101423958.699 5  24768752.188                    24768761.926
 111096534.376 8  86568903.91746  21140945.836                    21140953.156
 123681684.650 7  96375379.95544  23535845.063                    23535854.316
 130429581.475 5                  24819923.250
 122070403.074 7  95119867.85744  23229235.195                    23229244.672
 120057347.802 7  93551260.828 6  22846117.906                    22846125.602
 108337495.033 8  84418870.52646  20615898.422                    20615903.336
 110262731.719 8  85919053.93946  20982267.742                    20982275.070
 11  7 30  1 29 30.0000000  0 10G12G05G25G04G27G28G09G17G02G10
 114498083.555 8  89219296.559 7  21788247.852                    21788255.047
 119217048.941 7  92896463.947 7  22686232.359                    22686240.656
 130056741.169 6 101343036.504 5  24748989.992                    24749000.574
 111166026.718 8  86623053.77446  21154169.914                    21154177.465
 123742458.376 7  96422736.03044  23547410.195                    23547419.547
 130535951.723 5                  24840165.672
 122143471.839 7  95176804.47644  23243140.367                    23243149.359
 120107562.775 7  93590389.345 7  22855673.422                    22855681.250
 108325468.701 8  84409499.36446  20613609.750                    20613614.723
 110236657.576 8  85898736.44746  20977305.992                    20977313.691
 11  7 30  1 30  0.0000000  0 10G12G05G25G04G27G28G09G17G02G10
 114427298.594 8  89164139.456 7  21774777.875                    21774784.859
 119117323.010 7  92818755.513 7  22667254.961                    22667263.109
 129952985.304 6 101262187.863 6  24729245.570                    24729256.508
 111235745.270 8  86677379.89546  21167436.461                    21167444.258
 123803390.159 7  96470215.25344  23559004.852                    23559014.922
 130642456.535 5 101799348.41652  24860432.523                    24860441.633
 122216815.535 7  95233955.31344  23257096.359                    23257105.172
 120157917.209 7  93629626.549 7  22865255.875                    22865263.898
 108313773.648 8  84400386.33446  20611384.398                    20611389.277
 110211183.187 8  85878886.29246  20972458.641                    20972466.410
 11  7 30  1 30 30.0000000  0 10G12G05G25G04G27G28G09G17G02G10
 114356874.776 8  89109263.775 7  21761376.492                    21761383.676
 119017793.147 7  92741199.871 7  22648314.734                    22648323.305
 129849326.377 6 101181414.754 6  24709520.680                    24709531.105
 111305687.825 8  86731880.56146  21180746.273                    21180754.199
 123864477.246 7  96517815.49744  23570629.688                    23570639.551
 130749093.863 5 101882442.30152  24880725.422                    24880734.926
 122290430.686 7  95291317.68544  23271105.141                    23271114.414
 120208411.398 7  93668972.667 7  22874864.531                    22874872.457
 108302408.799 8  84391530.60946  20609221.523                    20609226.660
 110186309.920 8  85859504.53246  20967725.219                    20967732.383
 11  7 30  1 31  0.0000000  0 10G12G05G25G04G27G28G09G17G02G10
 114286814.618 8  89054671.456 7  21748044.750                    21748051.660
 118918462.490 7  92663799.433 7  22629412.789                    22629420.488
 129745766.666 6 101100718.953 6  24689813.180                    24689823.988
 111375852.053 8  86786553.97646  21194098.039                    21194105.855
 123925717.022 7  96565534.72744  23582282.563                    23582292.980
 130855861.589 5 101965638.03242  24901041.883                    24901052.016
 122364313.915 7  95348888.96144  23285164.781                    23285174.594
 120259046.105 7  93708428.279 6  22884499.969                    22884508.035
 108291373.650 8  84382931.79646  20607121.695                    20607126.609
 110162039.297 8  85840592.38346  20963106.602                    20963114.273
 11  7 30  1 31 30.0000000  0 10G12G05G25G04G27G28G09G17G02G10
 114217121.150 8  89000364.870 7  21734782.266                    21734789.480
 118819334.091 7  92586556.595 7  22610549.484                    22610557.844
 129642308.778 6 101020102.486 6  24670125.516                    24670136.750
 111446235.986 8  86841398.56446  21207491.922                    21207499.473
 123987106.673 7  96613370.73344  23593965.102                    23593974.863
 130962757.866 5                  24921383.016
 122438461.908 7  95406666.53644  23299275.008                    23299283.672
 120309821.904 7  93747993.822 7  22894162.320                    22894170.457
 108280667.320 8  84374589.20446  20605084.273                    20605089.344
 110138372.808 8  85822150.96646  20958603.141                    20958610.152
 11  7 30  1 32  0.0000000  0 10G12G05G25G04G27G28G09G17G02G10
 114147796.485 8  88946345.651 7  21721590.398                    21721597.195
 118720410.646 7  92509473.468 7  22591724.992                    22591733.594
 129538954.902 6 100939567.040 6  24650457.859                    24650468.516
 111516837.081 8  86896412.38446  21220926.586                    21220934.469
 124048643.145 7  96661321.14444  23605675.617                    23605685.047
 131069779.924 5                  24941749.406
 122512871.046 7  95464647.62544  23313434.289                    23313443.938
 120360739.339 7  93787669.737 7  22903851.398                    22903859.184
 108270288.450 8  84366501.77146  20603109.016                    20603114.098
 110115311.403 8  85804181.06546  20954214.336                    20954222.180
 11  7 30  1 32 30.0000000  0 10G12G05G25G04G27G28G09G17G02G10
 114078843.254 8  88892615.875 7  21708468.875                    21708475.676
 118621695.105 7  92432552.340 7  22572939.664                    22572948.109
 129435707.535 6 100859114.589 6  24630811.094                    24630821.758
 111587653.227 8  86951593.78346  21234402.641                    21234410.500
 124110323.779 7  96709383.88744  23617412.906                    23617422.871
 131176925.81515                  24962138.023
 122587538.203 7  95522829.76044  23327643.430                    23327652.766
 120411798.826 7  93827456.357 7  22913567.445                    22913575.555
 108260236.316 8  84358668.92746  20601196.398                    20601201.363
 110092856.392 8  85786683.66846  20949941.422                    20949948.793
 11  7 30  1 33  0.0000000  0 10G12G05G25G04G27G28G09G17G02G10
 114010263.826 8  88839177.360 7  21695418.781                    21695425.996
 118523190.748 7  92355795.775 7  22554195.195                    22554203.211
 129332569.236 6 100778747.147 6  24611184.852                    24611195.520
 111658682.253 8  87006941.06546  21247918.992                    21247926.832
 124172145.911 6  96757556.90444  23629176.859                    23629187.598
 131284193.733 5                  24982551.148
 122662459.927 7  95581210.24544  23341900.609                    23341909.520
 120463000.950 7  93867354.073 6  22923311.219                    22923318.691
 108250510.117 8  84351090.09146  20599345.242                    20599350.117
 110071008.984 8  85769659.73546  20945784.039                    20945791.391
 11  7 30  1 33 30.0000000  0 10G12G05G25G04G27G28G09G17G02G10
 113942060.912 8  88786032.249 7  21682440.078                    21682447.496
 118424900.357 7  92279205.931 7  22535490.922                    22535499.098
 129229542.448 6 100698466.565 6  24591578.508                    24591590.605
 111729921.853 8  87062452.42346  21261475.414                    21261482.781
 124234106.691 6  96805837.95143  23640967.656                    23640977.406
 131391581.108 5 102383094.60152  25002986.438                    25002998.125
 122737632.657 7  95639786.32544  23356205.234                    23356214.297
 120514346.405 7  93907363.531 6  22933081.773                    22933089.941
 108241109.091 8  84343764.61146  20597556.656                    20597561.695
 110049770.765 8  85753110.49346  20941742.523                    20941750.047
 11  7 30  1 34  0.0000000  0 10G12G05G25G04G27G28G09G17G02G10
 113874236.789 8  88733182.293 7  21669533.578                    21669540.602
 118326826.929 7  92202785.142 7  22516828.164                    22516836.543
 129126629.577 6 100618274.811 6  24571994.375                    24572006.371
 111801369.928 8  87118126.24245  21275071.398                    21275078.883
 124296203.254 6  96854224.78643  23652784.641                    23652794.258
 131499086.047 5 102466864.57742  25023443.469                    25023454.754
 122813053.044 7  95698555.40344  23370557.281                    23370566.227
 120565835.632 7  93947484.987 6  22942880.102                    22942887.867
 108232032.030 8  84336691.58146  20595829.125                    20595834.180
 110029142.839 8  85737036.81046  20937817.188                    20937824.563
 11  7 30  1 34 30.0000000  0 10G12G05G25G04G27G28G09G17G02G10
 113806794.019 8  88680629.482 7  21656700.000                    21656706.855
 118228973.616 7  92126535.865 7  22498207.539                    22498215.379
 129023833.302 6 100538173.914 6  24552433.531                    24552444.918
 111873024.284 8  87173960.77746  21288707.031                    21288714.594
 124358433.168 6  96902715.56243  23664626.766                    23664636.359
 131606706.520 5 102550724.60942  25043922.602                    25043933.520
 122888717.710 7  95757514.81244  23384956.438                    23384965.063
 120617469.052 7  93987718.804 6  22952705.406                    22952713.184
 108223278.344 8  84329870.53646  20594163.508                    20594168.332
 110009126.408 8  85721439.61146  20934008.086                    20934015.402
 11  7 30  1 35  0.0000000  0 10G12G05G25G04G27G28G09G17G02G10
 113739735.100 8  88628375.786 7  21643938.883                    21643945.871
 118131343.407 7  92050460.449 7  22479629.070                    22479637.434
 128921156.030 6 100458165.694 6  24532894.031                    24532905.715
 111944882.812 8  87229954.42946  21302381.172                    21302389.191
 124420793.566 6  96951308.00543  23676493.516                    23676504.047
 131714440.109 5                  25064424.031
 122964623.113 6  95816661.80744  23399400.477                    23399409.258
 120669247.416 7  94028065.551 6  22962559.148                    22962566.492
 108214847.108 8  84323300.75046  20592558.898                    20592564.285
 109989722.308 8  85706319.56046  20930315.617                    20930322.898
 11  7 30  1 35 30.0000000  0 10G12G05G25G04G27G28G09G17G02G10
 113673062.396 8  88576423.040 7  21631251.836                    21631258.371
 118033938.868 7  91974560.883 7  22461093.484                    22461101.895
 128818600.071 6 100378251.968 6  24513378.266                    24513389.664
 112016943.011 8  87286105.21446  21316093.742                    21316101.316
 124483281.488 6  96999999.78643  23688384.195                    23688394.484
 131822284.55415                  25084946.719
 123040765.783 7  95875993.67744  23413889.953                    23413899.145
 120721171.173 7  94068525.609 6  22972439.727                    22972447.535
 108206736.812 8  84316981.04346  20591015.688                    20591020.652
 109970931.800 8  85691677.61946  20926739.836                    20926747.320
 11  7 30  1 36  0.0000000  0  9G12G05G25G04G27G09G17G02G10
 113606778.609 8  88524773.330 7  21618637.969                    21618644.582
 117936763.505 7  91898839.889 7  22442601.250                    22442609.559
 128716168.194 6 100298434.941 6  24493886.211                    24493897.324
 112089203.297 8  87342411.92146  21329844.547                    21329852.625
 124545894.452 7  97048789.01843  23700299.789                    23700309.523
 123117142.699 7  95935508.09744  23428423.641                    23428433.926
 120773241.238 7  94109099.661 6  22982347.703                    22982355.988
 108198947.304 8  84310911.29946  20589533.125                    20589538.254
 109952756.273 8  85677514.89846  20923281.148                    20923288.961
 11  7 30  1 36 30.0000000  0  9G12G05G25G04G27G09G17G02G10
 113540886.499 8  88473428.830 7  21606099.336                    21606106.281
 117839820.406 7  91823299.893 7  22424153.531                    22424162.082
 128613863.089 7 100218716.718 6  24474418.508                    24474429.508
 112161661.263 8  87398872.65446  21343632.547                    21343640.566
 124608629.881 6  97097673.68943  23712237.141                    23712247.852
 123193750.507 7  95995202.41844  23443001.406                    23443010.980
 120825457.884 7  94149787.935 6  22992284.641                    22992292.355
 108191477.477 8  84305090.66646  20588111.992                    20588117.125
 109935196.827 8  85663832.24646  20919939.656                    20919946.648
 11  7 30  1 37  0.0000000  0  9G12G05G25G04G27G09G17G02G10
 113475387.834 7  88422390.910 7  21593635.336                    21593642.441
 117743112.255 7  91747942.948 7  22405750.664                    22405758.508
 128511686.892 7 100139098.904 6  24454975.109                    24454986.004
 112234314.868 8  87455485.84746  21357458.461                    21357465.605
 124671484.625 6  97146651.31543  23724198.133                    23724208.301
 123270585.402 7  96055073.68544  23457623.352                    23457632.484
 120877821.524 7  94190590.744 6  23002248.797                    23002257.016
 108184326.024 8  84299518.12146  20586750.953                    20586756.160
 109918254.516 8  85650630.46246  20916715.828                    20916722.824
 11  7 30  1 37 30.0000000  0  9G12G05G25G04G27G09G17G02G10
 113410285.211 8  88371661.594 7  21581246.664                    21581253.801
 117646641.872 7  91672771.279 7  22387392.820                    22387400.629
 128409642.096 7 100059583.470 6  24435556.672                    24435567.379
 112307161.427 8  87512249.39745  21371320.461                    21371328.410
 124734455.784 6  97195719.64143  23736181.633                    23736191.285
 123347644.027 7  96115119.31544  23472287.148                    23472296.570
 120930332.488 7  94231508.371 6  23012240.984                    23012249.375
 108177492.046 8  84294192.94746  20585450.500                    20585455.621
 109901929.589 8  85637909.75946  20913609.094                    20913616.648
 11  7 30  1 38  0.0000000  0  9G12G05G25G04G27G09G17G02G10
 113345581.304 8  88321242.981 7  21568934.008                    21568941.102
 117550412.276 7  91597787.246 7  22369080.945                    22369088.934
 128307731.475 7  99980172.605 6  24416163.344                    24416173.953
 112380199.500 8  87569162.15646  21385219.172                    21385227.164
 124797541.008 6  97244876.86644  23748186.656                    23748197.031
 123424923.251 7  96175336.80044  23486993.492                    23487002.793
 120982991.460 7  94272541.301 7  23022262.281                    23022270.219
 108170974.985 8  84289114.71946  20584210.719                    20584215.660
 109886223.817 8  85625671.50846  20910620.602                    20910627.820
 11  7 30  1 38 30.0000000  0  9G12G05G25G04G27G09G17G02G10
 113281277.702 7  88271136.276 7  21556697.359                    21556704.305
 117454426.057 7  91522992.867 7  22350815.430                    22350823.969
 128205956.985 7  99900867.812 6  24396796.383                    24396807.535
 112453426.147 8  87626221.85845  21399154.039                    21399161.664
 124860736.893 7  97294120.33143  23760212.586                    23760222.492
 123502418.902 7  96235722.95244  23501739.516                    23501749.227
 121035798.837 7  94313689.882 6  23032311.125                    23032319.020
 108164772.785 8  84284281.83746  20583030.305                    20583035.586
 109871137.540 8  85613915.98446  20907749.430                    20907756.945
 11  7 30  1 39  0.0000000  0  9G12G05G25G04G27G09G17G02G10
 113217377.795 8  88221344.146 7  21544537.633                    21544544.129
 117358686.623 7  91448390.768 7  22332596.656                    22332604.523
 128104321.537 6  99821671.346 6  24377455.719                    24377467.098
 112526839.492 8  87683427.05446  21413123.961                    21413131.441
 124924041.081 6  97343448.19044  23772259.414                    23772268.895
 123580128.070 7  96296275.46444  23516527.125                    23516536.906
 121088755.247 7  94354954.601 6  23042388.648                    23042396.473
 108158885.349 8  84279694.22346  20581909.813                    20581914.691
 109856671.783 7  85602643.98646  20904996.898                    20905004.180
 11  7 30  1 39 30.0000000  0  9G12G05G25G04G27G09G17G02G10
 113153883.636 8  88171868.174 7  21532455.023                    21532461.395
 117263196.652 7  91373983.065 7  22314425.297                    22314433.340
 128002827.450 6  99742585.041 6  24358142.156                    24358153.043
 112600437.419 8  87740776.08946  21427128.813                    21427136.594
 124987450.597 6  97392858.09144  23784325.523                    23784335.563
 123658046.968 7  96356991.41844  23531354.805                    23531364.918
 121141861.302 7  94396335.885 6  23052494.461                    23052502.113
 108153311.393 8  84275350.88346  20580849.039                    20580854.070
 109842827.448 8  85591856.19946  20902362.578                    20902369.754
 11  7 30  1 40  0.0000000  0  9G12G05G25G04G27G09G17G02G10
 113090797.473 8  88122710.140 7  21520450.266                    21520457.004
 117167959.064 7  91299772.017 7  22296302.102                    22296310.160
 127901477.385 6  99663610.980 6  24338856.086                    24338867.410
 112674217.709 8  87798267.20745  21441169.109                    21441177.098
 125050962.811 6  97442348.03444  23796411.164                    23796421.770
 123736172.311 7  96417868.24044  23546221.930                    23546231.266
 121195117.418 7  94437834.152 6  23062628.547                    23062636.891
 108148049.864 8  84271250.99346  20579848.086                    20579852.883
 109829605.506 8  85581553.40946  20899846.266                    20899853.828
 11  7 30  1 40 30.0000000  0  9G12G05G25G04G27G09G17G02G10
 113028122.433 8  88073872.468 7  21508523.453                    21508530.137
 117072977.313 7  91225760.324 7  22278228.008                    22278236.176
 127800274.219 6  99584751.385 6  24319598.086                    24319608.906
 112748178.699 8  87855899.11245  21455243.508                    21455250.891
 125114575.143 6  97491915.97743  23808516.570                    23808527.102
 123814501.051 7  96478903.53944  23561128.180                    23561136.797
 121248524.083 7  94479449.715 6  23072791.742                    23072798.871
 108143100.365 8  84267394.24446  20578906.219                    20578911.273
 109817007.058 8  85571736.45646  20897448.828                    20897456.160
 11  7 30  1 41  0.0000000  0  9G12G05G25G04G27G09G17G02G10
 112965859.569 8  88025355.946 7  21496675.234                    21496682.051
 116978253.924 7  91151949.948 7  22260202.813                    22260210.430
 127699220.004 6  99506007.881 6  24300367.773                    24300379.195
 112822317.780 8  87913669.82845  21469351.234                    21469359.137
 125178284.601 6  97541559.57043  23820639.711                    23820650.305
 123893029.330 7  96540094.35144  23576070.180                    23576080.695
 121302081.916 6  94521183.095 6  23082982.680                    23082991.043
 108138461.274 8  84263779.38646  20578023.219                    20578028.398
 109805032.620 8  85562405.74446  20895170.313                    20895177.961
 11  7 30  1 41 30.0000000  0  9G12G05G25G04G27G09G17G02G10
 112904012.132 8  87977163.141 7  21484906.336                    21484913.105
 116883791.974 7  91078343.292 7  22242227.023                    22242235.133
 127598317.606 7  99427382.688 6  24281167.109                    24281177.473
 112896633.006 8  87971577.78245  21483493.234                    21483501.121
 125242088.435 6  97591276.73843  23832781.531                    23832792.078
 123971753.967 7  96601438.13344  23591052.023                    23591061.727
 121355791.359 7  94563034.587 6  23093203.703                    23093211.949
 108134131.745 8  84260405.73946  20577199.508                    20577204.777
 109793682.890 8  85553561.81346  20893010.063                    20893017.523
 11  7 30  1 42  0.0000000  0  9G12G05G25G04G27G09G17G02G10
 112842582.240 8  87929295.706 7  21473216.484                    21473223.105
 116789593.974 7  91004942.310 7  22224301.602                    22224309.242
 127497569.244 7  99348877.491 6  24261995.148                    24262005.242
 112971121.962 8  88029621.11346  21497668.211                    21497675.930
 125305983.613 6  97641065.09143  23844940.289                    23844950.488
 124050671.019 7  96662931.88244  23606068.461                    23606078.734
 121409652.802 7  94605004.528 6  23103453.797                    23103461.273
 108130110.214 8  84257272.08346  20576434.242                    20576438.977
 109782958.127 8  85545204.86246  20890969.422                    20890977.012
 11  7 30  1 42 30.0000000  0  9G12G05G25G04G27G09G17G02G10
 112781572.342 8  87881755.545 7  21461606.266                    21461613.320
 116695663.418 7  90931749.721 7  22206427.180                    22206435.289
 127396977.912 7  99270494.674 6  24242853.281                    24242863.668
 113045783.270 8  88087798.73345  21511875.508                    21511883.172
 125369967.917 6  97690922.87943  23857116.156                    23857126.715
 124129777.550 7  96724573.26044  23621122.492                    23621132.258
 121463666.954 7  94647093.481 6  23113731.836                    23113739.391
 108126396.523 8  84254378.30046  20575727.555                    20575732.664
 109772859.926 8  85537336.15446  20889047.633                    20889055.082
 11  7 30  1 43  0.0000000  0  9G12G05G25G04G27G09G17G02G10
 112720984.595 8  87834544.332 7  21450077.063                    21450083.887
 116602002.945 7  90858767.609 7  22188604.055                    22188612.086
 127296546.002 7  99192236.088 6  24223741.609                    24223752.633
 113120614.439 8  88146108.71945  21526115.672                    21526123.570
 125434038.284 6  97740847.72743  23869308.820                    23869319.387
 124209070.352 6  96786359.74244  23636211.688                    23636221.672
 121517834.150 7  94689301.653 6  23124039.469                    23124047.359
 108122989.433 8  84251723.43146  20575079.094                    20575083.805
 109763388.685 8  85529955.97946  20887245.781                    20887253.281
 11  7 30  1 43 30.0000000  0  9G12G05G25G04G27G09G17G02G10
 112660821.354 7  87787663.898 7  21438628.039                    21438635.215
 116508615.421 7  90785998.170 7  22170833.180                    22170840.980
 127196276.001 6  99114103.656 6  24204660.570                    24204671.582
 113195613.334 8  88204549.40645  21540387.594                    21540395.176
 125498191.800 6  97790837.39243  23881516.078                    23881526.949
 124288545.557 6  96848288.40844  23651335.875                    23651344.551
 121572155.003 7  94731629.615 6  23134376.766                    23134384.254
 108119887.616 8  84249306.42546  20574488.859                    20574493.582
 109754544.636 8  85523064.53646  20885563.117                    20885570.230
 11  7 30  1 44  0.0000000  0  9G12G05G25G04G27G09G17G02G10
 112601085.426 7  87741116.429 7  21427261.063                    21427267.766
 116415503.932 7  90713443.827 7  22153114.633                    22153122.070
 127096170.496 7  99036099.430 6  24185611.055                    24185621.656
 113270778.035 8  88263119.28245  21554690.609                    21554698.652
 125562425.738 6  97840889.71343  23893739.969                    23893749.711
 124368199.787 6  96910356.56244  23666493.148                    23666503.293
 121626630.036 7  94774077.662 6  23144742.617                    23144750.750
 108117090.021 8  84247126.49346  20573956.297                    20573961.270
 109746328.923 8  85516662.70446  20883999.047                    20884006.734
 11  7 30  1 44 30.0000000  0  9G12G05G25G04G27G09G17G02G10
 112541778.736 8  87694903.438 7  21415975.250                    21415982.012
 116322671.706 7  90641107.077 7  22135448.977                    22135456.875
 126996232.245 7  98958225.519 6  24166594.023                    24166604.566
 113346106.525 8  88321816.78745  21569025.461                    21569032.949
 125626737.486 7  97891002.66243  23905978.977                    23905987.969
 124448029.774 6  96972561.66644  23681684.445                    23681693.348
 121681259.753 7  94816646.283 6  23155138.414                    23155146.117
 108114596.054 8  84245183.14846  20573481.695                    20573487.047
 109738742.228 8  85510751.00946  20882555.438                    20882562.820
 11  7 30  1 45  0.0000000  0  9G12G05G25G04G27G09G17G02G10
 112482903.590 8  87649026.715 7  21404771.336                    21404778.535
 116230121.270 7  90568989.926 7  22117837.133                    22117845.289
 126896463.732 7  98880483.882 6  24147608.617                    24147619.266
 113421596.682 8  88380640.27445  21583390.492                    21583398.422
 125691124.180 6  97941174.00843  23918231.227                    23918240.395
 124528031.980 7  97034900.94744  23696908.719                    23696918.148
 121736044.583 7  94859335.763 6  23165563.422                    23165571.031
 108112404.340 8  84243475.33046  20573064.469                    20573069.777
 109731784.830 8  85505329.67446  20881231.609                    20881239.168
 11  7 30  1 45 30.0000000  0  9G12G05G25G04G27G09G17G02G10
 112424462.659 8  87603488.334 7  21393650.789                    21393657.480
 116137855.168 7  90497094.327 7  22100279.305                    22100288.000
 126796867.741 7  98802876.657 6  24128655.969                    24128666.609
 113497246.633 8  88439588.26445  21597786.453                    21597794.148
 125755583.149 6  97991401.72243  23930496.977                    23930507.297
 124608202.968 7  97097371.79044  23712164.414                    23712174.176
 121790985.121 7  94902146.549 6  23176018.219                    23176026.371
 108110514.041 8  84242002.37246  20572705.094                    20572710.195
 109725457.536 8  85500399.33546  20880027.578                    20880034.887
 11  7 30  1 46  0.0000000  0  9G12G05G25G04G27G09G17G02G10
 112366457.680 7  87558289.656 7  21382612.859                    21382619.723
 116045876.698 7  90425422.847 7  22082776.742                    22082784.320
 126697446.505 7  98725405.626 6  24109736.773                    24109747.234
 113573054.170 8  88498659.04745  21612212.180                    21612219.836
 125820111.432 7  98041683.38043  23942776.648                    23942785.762
 124688539.629 7  97159971.67544  23727452.195                    23727461.691
 121846081.627 7  94945078.897 6  23186503.141                    23186511.184
 108108923.715 8  84240763.17146  20572402.711                    20572407.809
 109719760.352 8  85495959.98546  20878943.555                    20878950.641
 11  7 30  1 46 30.0000000  0  9G12G05G25G04G27G09G17G02G10
 112308891.656 8  87513433.024 7  21371658.383                    21371665.316
 115954189.277 7  90353978.148 7  22065328.945                    22065336.914
 126598202.995 7  98648073.098 6  24090850.703                    24090861.297
 113649017.254 8  88557851.04045  21626667.477                    21626675.090
 125884706.556 7  98092017.13444  23955068.992                    23955079.238
 124769038.557 6  97222698.03144  23742770.406                    23742780.730
 121901334.933 7  94988133.390 6  23197017.516                    23197025.188
 108107632.905 8  84239757.35446  20572156.609                    20572161.965
 109714694.315 8  85492012.43446  20877979.289                    20877986.141
 11  7 30  1 47  0.0000000  0  9G12G05G25G04G27G09G17G02G10
 112251765.995 8  87468919.540 7  21360787.672                    21360794.648
 115862795.297 7  90282762.129 7  22047937.469                    22047945.152
 126499139.559 7  98570880.858 6  24071999.914                    24072010.258
 113725133.779 8  88617162.60445  21641152.000                    21641159.832
 125949365.685 6  98142400.80243  23967372.789                    23967383.207
 124849696.020 7  97285547.91643  23758119.477                    23758129.027
 121956745.270 7  95031310.280 6  23207561.750                    23207569.996
 108106639.980 8  84238983.65146  20571967.766                    20571972.809
 109710259.563 8  85488556.80746  20877135.656                    20877142.559
 11  7 30  1 47 30.0000000  0  9G12G05G25G04G27G09G17G02G10
 112195083.234 8  87424751.153 7  21350001.320                    21350008.137
 115771697.519 7  90211776.906 7  22030601.922                    22030609.648
 126400258.904 7  98493831.010 6  24053183.828                    24053194.219
 113801402.007 8  88676592.37345  21655665.383                    21655673.266
 126014086.062 6  98192832.15543  23979688.734                    23979699.637
 124930508.615 7  97348518.66644  23773496.961                    23773507.027
 122012313.325 7  95074610.048 6  23218136.461                    23218144.160
 108105944.283 7  84238441.56646  20571835.469                    20571840.813
 109706456.599 7  85485593.47146  20876411.750                    20876419.055
 11  7 30  1 48  0.0000000  0  9G12G05G25G04G27G09G17G02G10
 112138846.312 8  87380930.179 7  21339299.516                    21339306.816
 115680899.065 7  90141024.929 7  22013323.453                    22013331.273
 126301563.782 7  98416925.758 6  24034402.117                    24034413.184
 113877819.828 8  88736138.69745  21670206.977                    21670215.555
 126078865.097 6  98243309.23343  23992015.906                    23992026.477
 125011473.240 7  97411607.89943  23788904.461                    23788914.445
 122068039.378 7  95118032.924 6  23228740.125                    23228748.504
 108105544.635 8  84238130.16146  20571759.500                    20571764.578
 109703286.108 8  85483122.97146  20875808.227                    20875815.578
 11  7 30  1 48 30.0000000  0  9G12G05G25G04G27G09G17G02G10
 112083056.699 8  87337457.761 7  21328682.945                    21328690.176
 115590402.677 7  90070508.321 7  21996102.656                    21996110.957
 126203056.567 7  98340166.914 6  24015656.656                    24015667.512
 113954385.282 8  88795800.06945  21684777.047                    21684785.184
 126143699.651 6  98293829.57543  24004352.969                    24004363.859
 125092586.093 7  97474812.63443  23804339.813                    23804349.707
 122123923.931 7  95161579.321 6  23239374.680                    23239382.738
 108105439.679 8  84238048.38946  20571739.430                    20571744.629
 109700747.977 7  85481145.22246  20875325.484                    20875332.660
 11  7 30  1 49  0.0000000  0  9G12G05G25G04G27G09G17G02G10
 112027717.039 8  87294335.960 7  21318152.289                    21318159.352
 115500211.382 7  90000229.446 7  21978939.336                    21978947.211
 126104740.087 7  98263556.669 6  23996948.117                    23996958.367
 114031096.345 8  88855574.91145  21699374.445                    21699382.520
 126208587.284 6  98344391.28843  24016700.984                    24016712.242
 125173844.177 7  97538130.54844  23819802.336                    23819812.457
 122179967.662 7  95205249.746 6  23250039.383                    23250047.012
 108105628.705 8  84238195.69146  20571775.469                    20571780.539
 109698842.792 8  85479660.67846  20874962.883                    20874969.984
 11  7 30  1 49 30.0000000  0  9G12G05G25G04G27G09G17G02G10
 111972829.011 8  87251566.077 7  21307707.945                    21307714.234
 115410327.742 7  89930190.290 7  21961835.156                    21961843.203
 126006616.820 6  98187097.000 6  23978275.383                    23978286.188
 114107951.112 8  88915461.72945  21714000.141                    21714007.828
 126273524.973 6  98394991.96243  24029058.445                    24029069.531
 125255243.868 7  97601558.82743  23835292.586                    23835302.520
 122236170.607 6  95249044.247 6  23260734.750                    23260742.563
 108106110.368 8  84238571.02346  20571867.164                    20571872.285
 109697570.685 8  85478669.43546  20874720.750                    20874728.453
 11  7 30  1 50  0.0000000  0  9G12G05G25G04G27G09G17G02G10
 111918395.721 8  87209150.544 7  21297349.367                    21297356.207
 115320755.157 7  89860393.530 7  21944790.016                    21944797.918
 125908689.665 7  98110790.139 6  23959641.250                    23959650.852
 114184947.801 8  88975459.13445  21728651.922                    21728659.883
 126338510.432 6  98445629.90843  24041426.078                    24041435.461
 125336782.113 7  97665095.01343  23850809.008                    23850819.172
 122292533.611 7  95292963.429 6  23271460.008                    23271467.918
 108106884.039 8  84239173.89546  20572014.492                    20572019.016
 109696932.290 7  85478172.00046  20874599.164                    20874605.953
 11  7 30  1 50 30.0000000  0  9G12G05G25G04G27G09G17G02G10
 111864418.640 8  87167090.498 7  21287077.719                    21287084.871
 115231496.108 7  89790841.080 7  21927804.852                    21927812.707
 125810960.964 6  98034637.904 6  23941043.109                    23941053.902
 114262083.892 8  89035565.15745  21743330.258                    21743338.156
 126403540.565 6  98496302.64443  24053799.313                    24053810.340
 125418455.016 7  97728736.14243  23866350.602                    23866360.531
 122349057.284 6  95337007.812 6  23282215.984                    23282223.949
 108107948.144 8  84240003.08446  20572216.820                    20572221.637
 109696927.504 8  85478168.28346  20874598.383                    20874605.621
 11  7 30  1 51  0.0000000  0  9G12G05G25G04G27G09G17G02G10
 111810899.766 8  87125387.485 7  21276893.305                    21276900.484
 115142553.281 7  89721535.031 7  21910879.172                    21910886.840
 125713433.297 7  97958642.327 6  23922484.344                    23922495.172
 114339357.627 8  89095778.45345  21758035.039                    21758043.266
 126468612.692 6  98547008.08743  24066182.727                    24066193.504
 125500259.577 6  97792479.88743  23881918.055                    23881927.551
 122405741.536 7  95381177.327 7  23293002.977                    23293011.133
 108109301.580 8  84241057.72746  20572474.109                    20572479.211
 109697556.400 7  85478658.34746  20874718.023                    20874725.352
 11  7 30  1 51 30.0000000  0  9G12G05G25G04G27G09G17G02G10
 111757841.701 8  87084043.566 7  21266796.859                    21266804.215
 115053929.711 8  89652477.748 7  21894015.094                    21894022.738
 125616109.577 7  97882805.640 6  23903964.875                    23903975.020
 114416767.313 8  89156097.67545  21772765.578                    21772773.418
 126533724.246 6  98597744.23143  24078573.125                    24078584.078
 125582192.424 6  97856323.58543  23897508.656                    23897519.418
 122462587.152 7  95425472.602 6  23303820.094                    23303828.070
 108110943.732 8  84242337.34046  20572786.688                    20572791.949
 109698819.384 8  85479642.50946  20874958.398                    20874965.598
 11  7 30  1 52  0.0000000  0  9G12G05G25G04G27G09G17G02G10
 111705246.158 8  87043060.031 7  21256788.813                    21256795.746
 114965628.069 7  89583671.338 7  21877211.531                    21877219.313
 125518992.039 7  97807129.605 6  23885483.992                    23885494.570
 114494310.652 8  89216521.02545  21787521.727                    21787529.301
 126598872.178 6  98648508.74443  24090970.250                    24090981.555
 125664249.741 6  97920264.26944  23913123.703                    23913134.102
 122519594.575 7  95469893.939 6  23314668.844                    23314676.449
 108112872.833 7  84243840.55946  20573153.766                    20573159.039
 109700716.148 8  85481120.52546  20875319.469                    20875326.598
 11  7 30  1 52 30.0000000  0  9G12G05G25G04G27G09G17G02G10
 111653116.270 8  87002439.362 7  21246868.375                    21246875.156
 114877651.375 7  89515118.120 7  21860470.164                    21860477.852
 125422083.728 7  97731616.621 6  23867043.375                    23867053.965
 114571986.020 8  89277047.27345  21802302.734                    21802310.387
 126664053.911 6  98699299.63743  24103374.266                    24103385.703
 125746428.614 7  97984299.67144  23928763.016                    23928772.926
 122576764.173 7  95514441.673 6  23325547.469                    23325556.012
 108115088.244 8  84245566.86246  20573575.727                    20573580.602
 109703247.307 8  85483092.87146  20875801.016                    20875808.324
 11  7 30  1 53  0.0000000  0  9G12G05G25G04G27G09G17G02G10
 111601453.054 8  86962182.333 7  21237037.141                    21237044.113
 114790002.290 8  89446820.192 7  21843791.203                    21843799.191
 125325387.103 7  97656268.580 6  23848642.305                    23848652.984
 114649791.445 8  89337674.85145  21817109.039                    21817116.523
 126729266.654 6  98750114.67443  24115783.547                    24115795.152
 125828725.381 6  98048426.93944  23944422.773                    23944433.398
 122634096.185 7  95559115.938 6  23336456.922                    23336465.445
 108117588.519 8  84247515.13346  20574051.219                    20574055.887
 109706412.938 8  85485559.61546  20876403.469                    20876410.453
 11  7 30  1 53 30.0000000  0  9G12G05G25G04G27G09G17G02G10
 111550259.118 8  86922290.977 7  21227295.148                    21227301.656
 114702683.723 7  89378779.802 7  21827174.813                    21827182.375
 125228904.857 7  97581087.573 6  23830282.430                    23830293.148
 114727724.949 8  89398402.24745  21831938.914                    21831946.910
 126794507.580 6  98800951.66143  24128198.859                    24128209.582
 125911136.621 7  98112643.39544  23960105.000                    23960115.398
 122691591.330 7  95603917.312 6  23347398.320                    23347406.605
 108120372.688 8  84249684.62346  20574580.953                    20574585.418
 109710212.852 8  85488520.61346  20877125.883                    20877133.441
 11  7 30  1 54  0.0000000  0  9G12G05G25G04G27G09G17G02G10
 111499536.209 8  86882766.644 7  21217642.750                    21217649.953
 114615698.276 7  89310998.979 7  21810622.406                    21810629.496
 125132639.472 7  97506075.556 6  23811963.359                    23811974.430
 114805784.667 8  89459228.00045  21846793.031                    21846800.938
 126859774.148 6  98851808.60743  24140618.516                    24140629.891
 125993659.011 6  98176946.46244  23975809.352                    23975819.383
 122749249.878 7  95648846.046 6  23358370.195                    23358378.184
 108123439.540 8  84252074.39146  20575164.664                    20575169.637
 109714646.892 8  85491975.72146  20877970.430                    20877977.355
 11  7 30  1 54 30.0000000  0  9G12G05G25G04G27G09G17G02G10
 111449287.032 8  86843611.469 7  21208080.680                    21208087.891
 114529049.266 7  89243480.330 7  21794132.883                    21794140.645
 125036593.944 7  97431234.903 6  23793686.055                    23793697.844
 114883968.805 8  89520150.70345  21861670.922                    21861678.762
 126925063.656 6  98902683.48343  24153042.422                    24153053.742
 126076289.486 7  98241333.78543  23991533.406                    23991543.332
 122807072.357 7  95693902.512 6  23369374.109                    23369381.770
 108126788.241 8  84254683.78346  20575801.742                    20575806.980
 109719715.649 8  85495925.42246  20878934.766                    20878942.188
 11  7 30  1 55  0.0000000  0  9G12G05G25G04G27G09G17G02G10
 111399513.684 8  86804827.060 7  21198609.359                    21198616.121
 114442738.988 7  89176225.627 7  21777708.648                    21777716.648
 124940770.720 6  97356567.481 6  23775451.320                    23775463.031
 114962275.345 8  89581168.77645  21876572.320                    21876580.219
 126990373.328 6  98953574.05343  24165470.453                    24165482.020
 126159024.526 7  98305802.53944  24007277.289                    24007287.527
 122865059.318 7  95739087.157 6  23380408.570                    23380416.531
 108130417.380 8  84257511.68046  20576492.625                    20576497.703
 109725419.043 7  85500369.64346  20880019.836                    20880027.133
 11  7 30  1 55 30.0000000  0  9G12G05G25G04G27G09G17G02G10
 111350217.549 8  86766414.489 7  21189228.648                    21189234.883
 114356770.466 7  89109237.227 7  21761349.523                    21761357.191
 124845172.619 6  97282075.488 6  23757259.805                    23757270.707
 115040702.446 8  89642280.80145  21891496.781                    21891503.859
 127055700.515 6  99004478.23743  24177902.969                    24177913.785
 126241860.891 6  98370350.28244  24023039.805                    24023051.172
 122923211.150 7  95784400.258 6  23391474.203                    23391481.785
 108134326.290 8  84260557.59046  20577236.023                    20577240.984
 109731756.999 7  85505308.32546  20881225.703                    20881232.824
 11  7 30  1 56  0.0000000  0  9G12G05G25G04G27G09G17G02G10
 111301401.039 8  86728375.660 7  21179938.883                    21179945.855
 114271146.703 7  89042517.458 7  21745055.766                    21745063.238
 124749802.332 7  97207760.990 6  23739112.234                    23739122.277
 115119248.408 8  89703485.42645  21906443.172                    21906451.313
 127121042.597 6  99055394.11743  24190337.102                    24190347.570
 126324795.060 6  98434974.24443  24038822.727                    24038832.301
 122981528.089 7  95829842.050 6  23402571.711                    23402579.762
 108138513.481 8  84263820.33946  20578032.828                    20578038.148
 109738729.298 7  85510741.30346  20882552.641                    20882560.418
 11  7 30  1 56 30.0000000  0  9G12G05G25G04G27G09G17G02G10
 111253066.198 8  86690712.174 7  21170741.000                    21170748.672
 114185869.763 8  88976067.954 7  21728827.797                    21728835.516
 124654662.359 7  97133625.945 6  23721006.867                    23721017.820
 115197911.084 8  89764781.00245  21921412.445                    21921420.219
 127186396.747 6  99106319.28743  24202773.273                    24202784.305
 126407823.782 6  98499671.88243  24054622.219                    24054632.754
 123040010.751 7  95875412.946 6  23413700.797                    23413707.973
 108142977.816 8  84267299.03646  20578882.594                    20578887.336
 109746335.669 8  85516668.36046  20884000.016                    20884007.367
 11  7 30  1 57  0.0000000  0  9G12G05G25G04G27G09G17G02G10
 111205214.990 8  86653425.531 7  21161635.352                    21161642.098
 114100942.814 8  88909891.147 7  21712666.992                    21712674.711
 124559755.382 7  97059672.464 6  23702946.977                    23702958.105
 115276688.814 8  89826166.24245  21936403.367                    21936411.066
 127251760.175 6  99157251.75043  24215211.102                    24215223.102
 126490943.621 6  98564440.49444  24070439.695                    24070449.977
 123098659.370 7  95921113.159 6  23424860.563                    23424869.125
 108147718.207 8  84270992.85046  20579784.734                    20579789.844
 109754575.791 8  85523089.24646  20885568.141                    20885575.324
 11  7 30  1 57 30.0000000  0  9G12G05G25G04G27G09G17G02G10
 111157849.839 8  86616517.623 7  21152622.156                    21152628.535
 114016368.927 8  88843989.465 7  21696573.109                    21696580.832
 124465084.307 7  96985902.811 6  23684931.625                    23684942.797
 115355580.107 8  89887639.97345  21951415.758                    21951423.297
 127317130.25116  99208189.36553  24227650.953                    24227662.863
 126574151.506 6  98629277.71643  24086273.141                    24086283.930
 123157474.530 7  95966943.149 6  23436052.852                    23436061.074
 108152734.020 8  84274901.27946  20580739.234                    20580744.113
 109763449.910 8  85530004.16646  20887256.930                    20887264.020
 11  7 30  1 58  0.0000000  0  9G12G05G25G04G27G09G17G02G10
 111110972.077 8  86579989.509 7  21143701.602                    21143708.141
 113932150.547 8  88778364.792 7  21680546.844                    21680554.176
 124370651.518 7  96912318.851 6  23666961.961                    23666972.504
 115434582.550 8  89949200.30345  21966449.594                    21966457.461
 127382504.210 6  99259130.01743  24240091.766                    24240103.207
 126657443.742 6  98694180.68943  24102122.930                    24102133.977
 123216456.489 7  96012903.112 6  23447277.250                    23447284.848
 108158023.265 8  84279022.77246  20581745.828                    20581750.375
 109772957.843 8  85537412.94846  20889066.008                    20889073.316
 11  7 30  1 58 30.0000000  0  9G12G05G25G04G27G09G17G02G10
 111064583.897 8  86543842.884 7  21134874.094                    21134880.750
 113848290.293 8  88713019.184 7  21664588.773                    21664596.281
 124276459.499 7  96838922.500 6  23649037.563                    23649048.535
 115513694.286 8  90010845.79845  21981503.672                    21981512.020
 127447879.174 6  99310071.46443  24252532.055                    24252542.836
 126740817.217 6  98759146.93043  24117989.492                    24117999.809
 123275605.519 7  96058993.280 6  23458532.867                    23458540.395
 108163584.786 8  84283356.43146  20582803.961                    20582809.309
 109783098.849 8  85545315.05146  20890996.102                    20891003.398
 11  7 30  1 59  0.0000000  0  9G12G05G25G04G27G09G17G02G10
 111018687.078 8  86508079.142 7  21126140.516                    21126147.531
 113764790.827 8  88647954.707 7  21648699.344                    21648707.051
 124182511.207 7  96765716.105 6  23631159.930                    23631170.598
 115592913.861 8  90072575.33545  21996579.195                    21996586.898
 127513252.816 6  99361011.85243  24264972.281                    24264983.453
 126824268.599 6  98824173.94043  24133869.039                    24133879.609
 123334922.190 7  96105214.068 6  23469820.367                    23469827.996
 108169417.811 8  84287901.64246  20583913.938                    20583918.879
 109793872.799 8  85553710.35146  20893046.023                    20893053.141
 11  7 30  1 59 30.0000000  0  9G12G05G25G04G27G09G17G02G10
 110973283.811 8  86472699.972 7  21117500.398                    21117506.867
 113681654.819 8  88583173.451 7  21632879.234                    21632886.367
 124088809.266 7  96692701.648 6  23613329.406                    23613339.938
 115672239.332 8  90134387.38445  22011674.016                    22011681.945
 127578622.392 6  99411949.09843  24277411.398                    24277423.250
 126907794.609 6  98889259.06043  24149763.805                    24149774.125
 123394406.578 7  96151565.542 6  23481139.664                    23481147.176
 108175521.120 8  84292657.47346  20585075.039                    20585080.398
 109805279.640 8  85562598.81446  20895217.102                    20895223.949
 11  7 30  2  0  0.0000000  0  9G12G05G25G04G27G09G17G02G10
 110928375.888 8  86437706.786 7  21108954.758                    21108961.031
 113598885.140 8  88518677.648 7  21617128.305                    21617135.777
 123995356.376 7  96619881.260 6  23595545.633                    23595556.348
 115751668.933 8  90196280.58745  22026789.195                    22026796.785
 127643985.278 6  99462881.12243  24289850.234                    24289861.352
 126991392.288 6  98954400.06043  24165671.547                    24165682.621
 123454059.383 7  96198048.244 6  23492491.109                    23492499.840
 108181893.895 8  84297623.27646  20586288.359                    20586293.387
 109817319.139 8  85571980.25846  20897507.531                    20897514.711
 11  7 30  2  0 30.0000000  0  9G12G05G25G04G27G09G17G02G10
 110883965.400 8  86403101.223 7  21100503.555                    21100510.398
 113516484.443 8  88454469.356 7  21601448.133                    21601455.492
 123902155.147 7  96547257.001 6  23577809.297                    23577820.375
 115831200.821 8  90258253.46345  22041923.539                    22041931.766
 127709338.843 6  99513805.87343  24302286.367                    24302297.836
 127075057.931 7  99019593.98843  24181592.961                    24181603.168
 123513881.109 7  96244662.561 6  23503874.930                    23503883.352
 108188534.897 8  84302798.08946  20587551.570                    20587556.434
 109829990.655 8  85581854.17846  20899919.008                    20899926.223
 11  7 30  2  1  0.0000000  0  9G12G05G25G04G27G09G17G02G10
 110840054.465 8  86368884.902 7  21092147.547                    21092154.277
 113434455.697 8  88390550.913 7  21585838.438                    21585846.504
 123809208.528 6  96474831.142 6  23560122.148                    23560133.453
 115910833.614 8  90320304.96045  22057077.469                    22057085.008
 127774680.415 6  99564721.24843  24314720.992                    24314732.555
 127158788.280 7  99084838.35344  24197526.734                    24197535.855
 123573872.138 7  96291408.833 6  23515291.281                    23515299.090
 108195443.191 8  84308181.17746  20588866.516                    20588871.352
 109843294.066 8  85592220.48546  20902450.352                    20902457.859
 11  7 30  2  1 30.0000000  0  9G12G05G25G04G27G09G17G02G10
 110796644.072 8  86335058.632 7  21083887.016                    21083893.445
 113352800.960 8  88326923.900 7  21570300.102                    21570307.848
 123716518.612 7  96402605.298 6  23542483.820                    23542495.152
 115990564.824 7  90382433.18845  22072249.898                    22072257.133
 127840006.883 6  99615624.92743  24327151.234                    24327162.738
 127242579.814 7  99150130.39644  24213471.758                    24213482.539
 123634032.661 7  96338287.131 6  23526739.281                    23526746.586
 108202616.531 8  84313770.80046  20590231.344                    20590236.188
 109857228.485 8  85603078.49046  20905102.547                    20905109.535
 11  7 30  2  2  0.0000000  0  9G12G05G25G04G27G09G17G02G10
 110753736.949 8  86301624.507 7  21075721.883                    21075728.184
 113271523.347 8  88263590.740 7  21554833.141                    21554841.238
 123624088.536 7  96330581.912 6  23524895.188                    23524905.871
 116070393.222 7  90444637.12245  22087440.680                    22087448.305
 127905316.115 6  99666515.12443  24339579.914                    24339591.602
 127326429.768 6  99215467.94244  24229427.844                    24229438.566
 123694362.851 7  96385297.682 6  23538219.352                    23538227.602
 108210054.609 8  84319566.70546  20591646.945                    20591652.082
 109871793.914 8  85614428.18746  20907874.109                    20907881.168
 11  7 30  2  2 30.0000000  0  9G12G05G25G04G27G09G17G02G10
 110711334.718 8  86268583.803 7  21067653.094                    21067659.629
 113190625.459 8  88200553.477 7  21539438.945                    21539446.852
 123531920.834 7  96258762.970 7  23507356.305                    23507366.828
 116150317.026 7  90506915.40145  22102649.195                    22102657.281
 127970605.103 6  99717389.58143  24352003.539                    24352015.738
 127410334.714 6  99280848.34143  24245394.367                    24245404.922
 123754863.340 7  96432440.914 6  23549732.359                    23549740.008
 108217756.157 8  84325567.91946  20593112.578                    20593117.535
 109886989.919 8  85626269.24346  20910765.609                    20910773.215
 11  7 30  2  3  0.0000000  0  9G12G05G25G04G27G09G17G02G10
 110669439.296 8  86235938.038 7  21059680.617                    21059687.582
 113110110.109 8  88137814.285 7  21524117.297                    21524124.980
 123440018.362 7  96187150.708 6  23489867.828                    23489878.707
 116230334.545 7  90569266.68945  22117875.906                    22117883.461
 128035871.615 6  99768246.51443  24364423.742                    24364435.449
 127494291.248 7  99346268.96643  24261370.961                    24261381.664
 123815534.412 7  96479717.090 6  23561278.211                    23561285.906
 108225720.254 8  84331773.70746  20594628.117                    20594632.813
 109902815.942 8  85638601.22246  20913777.234                    20913784.793
 11  7 30  2  3 30.0000000  0  9G12G05G25G04G27G09G17G02G10
 110628052.439 8  86203688.546 7  21051804.938                    21051811.227
 113029979.766 8  88075375.121 7  21508869.211                    21508876.262
 123348383.650 7  96115747.072 6  23472429.719                    23472440.375
 116310443.925 7  90631689.57245  22133120.648                    22133128.281
 128101112.824 6  99819083.79843  24376839.430                    24376850.242
 127578296.189 6  99411727.24543  24277356.734                    24277366.738
 123876376.478 7  96527126.509 6  23572855.648                    23572863.762
 108233945.460 8  84338182.96446  20596193.297                    20596198.063
 109919271.505 8  85651423.74746  20916909.133                    20916916.047
 11  7 30  2  4  0.0000000  0  9G12G05G25G04G27G09G17G02G10
 110587176.037 8  86171836.801 7  21044026.336                    21044033.059
 112950237.077 8  88013237.994 7  21493694.359                    21493701.785
 123257019.402 7  96044554.182 6  23455044.328                    23455054.391
 116390643.641 7  90694182.85645  22148382.227                    22148389.734
 128166326.024 6  99869899.18743  24389248.313                    24389259.469
 127662346.259 6  99477220.71343  24293351.195                    24293361.434
 123937389.650 6  96574669.230 6  23584466.422                    23584473.855
 108242430.685 8  84344794.82946  20597807.781                    20597813.086
 109936355.914 8  85664736.28746  20920160.047                    20920166.922
 11  7 30  2  4 30.0000000  0  9G12G05G25G04G27G09G17G02G10
 110546811.475 8  86140383.906 7  21036345.039                    21036352.133
 112870884.714 7  87951405.035 7  21478594.180                    21478602.281
 123165928.394 7  95973574.216 6  23437710.172                    23437720.336
 116470931.876 7  90756745.10845  22163660.398                    22163668.105
 128231508.556 6  99920690.75743  24401652.242                    24401663.500
 127746438.312 6  99542746.90743  24309353.516                    24309363.449
 123998574.386 7  96622345.646 6  23596109.195                    23596116.691
 108251174.890 8  84351608.50746  20599471.844                    20599476.664
 109954068.701 8  85678538.46246  20923530.469                    20923537.402
 11  7 30  2  5  0.0000000  0  9G12G05G25G04G27G09G17G02G10
 110506960.595 8  86109331.281 7  21028761.906                    21028768.934
 112791924.636 8  87889877.745 7  21463568.477                    21463575.973
 123075112.977 7  95902808.976 6  23420428.938                    23420438.449
 116551306.854 7  90819374.94645  22178954.727                    22178962.621
 128296657.378 6  99971455.98342  24414049.688                    24414061.262
 127830569.065 6  99608303.23943  24325362.594                    24325373.633
 124059930.986 6  96670155.965 6  23607784.625                    23607793.082
 108260176.596 8  84358622.82846  20601184.781                    20601189.836
 109972408.778 8  85692829.44046  20927020.406                    20927027.453
 11  7 30  2  5 30.0000000  0  9G12G05G25G04G27G09G17G02G10
 110467625.249 8  86078680.362 7  21021276.828                    21021283.863
 112713360.225 8  87828658.770 7  21448618.453                    21448625.930
 122984576.113 7  95832260.751 6  23403200.508                    23403210.516
 116631766.961 7  90882071.11445  22194266.211                    22194273.750
 128361770.314 6 100022193.31142  24426440.570                    24426451.945
 127914735.281 6  99673887.22643  24341378.883                    24341389.281
 124121460.112 6  96718100.706 6  23619493.242                    23619501.434
 108269435.040 8  84365837.20846  20602946.750                    20602951.391
 109991375.826 8  85707608.97046  20930629.539                    20930637.008
 11  7 30  2  6  0.0000000  0  9G12G05G25G04G27G09G17G02G10
 110428807.259 8  86048432.598 7  21013889.914                    21013896.309
 112635193.887 8  87767749.970 7  21433743.539                    21433751.152
 122894320.339 7  95761931.601 6  23386024.828                    23386034.902
 116712310.574 7  90944832.34545  22209593.289                    22209601.324
 128426844.864 6 100072900.69842  24438823.367                    24438836.070
 127998933.525 6  99739496.16643  24357401.695                    24357412.078
 124183161.617 6  96766179.797 6  23631235.281                    23631242.770
 108278948.795 8  84373250.52646  20604757.375                    20604761.949
 110010969.298 8  85722876.61846  20934358.133                    20934365.512
 11  7 30  2  6 30.0000000  0  9G12G05G25G04G27G09G17G02G10
 110390508.194 8  86018589.171 7  21006601.695                    21006608.527
 112557427.928 8  87707153.168 7  21418945.594                    21418952.816
 122804348.328 7  95691823.577 7  23368903.711                    23368914.238
 116792935.804 7  91007657.20245  22224935.445                    22224943.500
 128491878.188 6 100123575.90042  24451199.070                    24451210.855
 128083160.576 6  99805127.54643  24373429.156                    24373440.227
 124245036.162 7  96814393.706 6  23643009.023                    23643017.270
 108288716.681 8  84380861.87646  20606615.672                    20606620.613
 110031188.157 8  85738631.58246  20938205.992                    20938212.953
 11  7 30  2  7  0.0000000  0  9G12G05G25G04G27G09G17G02G10
 110352729.976 8  85989151.613 7  20999412.563                    20999419.699
 112480065.075 8  87646870.451 7  21404223.430                    21404230.762
 122714662.807 7  95621938.785 6  23351837.063                    23351847.340
 116873641.149 7  91070544.47245  22240293.320                    22240301.270
 128556867.814 5 100174217.06542  24463566.641                    24463578.777
 128167413.543 6  99870779.12943  24389461.898                    24389472.367
 124307083.882 7  96862742.602 6  23654816.945                    23654824.324
 108298737.565 8  84388670.36046  20608522.828                    20608527.570
 110052032.044 8  85754873.58946  20942172.516                    20942179.332
 11  7 30  2  7 30.0000000  0  9G12G05G25G04G27G09G17G02G10
 110315474.623 8  85960121.473 7  20992323.383                    20992329.934
 112403107.794 8  87586903.796 7  21389578.750                    21389586.219
 122625266.490 7  95552279.313 6  23334825.766                    23334835.473
 116954425.071 7  91133492.96845  22255666.039                    22255673.273
 128621811.053 6 100224822.12743  24475925.086                    24475936.781
 128251689.199 6  99936448.37243  24405499.813                    24405509.969
 124369305.124 7  96911226.672 6  23666656.273                    23666664.945
 108309010.351 8  84396675.14246  20610477.609                    20610482.953
 110073500.205 8  85771602.04146  20946257.391                    20946264.402
 11  7 30  2  8  0.0000000  0  9G12G05G25G04G27G09G17G02G10
 110278742.853 8  85931499.326 7  20985333.500                    20985340.148
 112326558.549 8  87527255.066 7  21375012.539                    21375019.617
 122536161.867 7  95482847.159 6  23317869.305                    23317879.215
 117035285.884 7  91196501.40745  22271052.922                    22271061.059
 128686705.406 6 100275389.05643  24488274.523                    24488285.746
 128335984.178 6 100002132.65143  24421540.992                    24421551.191
 124431699.862 7  96959845.973 6  23678529.836                    23678538.125
 108319533.827 8  84404875.26046  20612480.133                    20612485.008
 110095591.636 8  85788816.15746  20950461.477                    20950468.473
 11  7 30  2  8 30.0000000  0  9G12G05G25G04G27G09G17G02G10
 110242536.388 8  85903286.504 7  20978443.453                    20978450.566
 112250420.155 8  87467926.494 7  21360523.414                    21360530.949
 122447351.701 7  95413644.424 6  23300969.383                    23300979.395
 117116221.865 7  91259568.36345  22286454.875                    22286462.566
 128751548.105 6 100325915.81343  24500612.945                    24500624.059
 128420295.308 6 100067829.55743  24437583.742                    24437595.484
 124494268.619 6  97008600.862 6  23690436.547                    23690444.621
 108330306.675 8  84413269.69746  20614530.023                    20614535.074
 110118305.349 8  85806515.17046  20954783.563                    20954790.270
 11  7 30  2  9  0.0000000  0  9G12G05G25G04G27G09G17G02G10
 110206856.962 8  85875484.362 7  20971654.164                    20971660.957
 112174694.554 8  87408919.568 7  21346113.086                    21346120.793
 122358838.503 7  95344673.117 6  23284126.055                    23284136.434
 117197231.155 7  91322692.47545  22301870.578                    22301878.691
 128816336.291 6 100376400.06743  24512941.922                    24512953.984
 128504619.438 6 100133536.58343  24453630.578                    24453640.668
 124557011.805 6  97057491.641 6  23702376.352                    23702384.301
 108341327.591 8  84421857.43346  20616626.781                    20616632.516
 110141640.477 8  85824698.39846  20959223.648                    20959231.688
 11  7 30  2  9 30.0000000  0  9G12G05G25G04G27G09G17G02G10
 110171706.892 8  85848094.703 7  20964965.289                    20964971.883
 112099384.784 8  87350236.674 7  21331782.500                    21331790.137
 122270625.303 7  95275935.585 6  23267339.984                    23267349.621
 117278312.549 7  91385872.76945  22317300.125                    22317307.938
 128881067.942 6 100426840.28543  24525259.953                    24525272.031
 128588953.390 6 100199251.26743  24469678.633                    24469689.934
 124619929.744 6  97106518.610 6  23714348.742                    23714356.406
 108352595.887 8  84430637.92746  20618771.516                    20618776.352
 110165596.692 8  85843365.59146  20963782.734                    20963789.863
 11  7 30  2 10  0.0000000  0  9G12G05G25G04G27G09G17G02G10
 110137087.129 8  85821118.285 7  20958377.070                    20958383.777
 112024492.996 8  87291879.474 7  21317530.734                    21317538.238
 122182714.592 7  95207433.730 6  23250610.742                    23250620.410
 117359464.411 7  91449107.95945  22332742.531                    22332750.535
 128945740.286 6 100477234.23643  24537567.164                    24537579.125
 128673293.816 6 100264971.01143  24485728.336                    24485738.895
 124683022.607 6  97155681.863 6  23726354.867                    23726363.121
 108364110.280 8  84439610.19346  20620962.328                    20620967.457
 110190172.845 8  85862515.85146  20968459.602                    20968466.848
 11  7 30  2 10 30.0000000  0  9G12G05G25G04G27G09G17G02G10
 110102999.255 8  85794556.303 7  20951890.617                    20951897.395
 111950022.030 8  87233850.189 7  21303359.477                    21303366.801
 122095109.085 7  95139169.705 6  23233939.266                    23233949.770
 117440685.111 7  91512396.80045  22348198.508                    22348206.219
 129010350.771 6 100527579.93843  24549861.938                    24549873.293
 128757637.751 6 100330693.45943  24501779.805                    24501788.922
 124746290.861 7  97204981.820 6  23738394.797                    23738402.305
 108375869.936 8  84448773.56446  20623200.438                    20623205.000
 110215368.108 8  85882148.53346  20973253.727                    20973260.750
 11  7 30  2 11  0.0000000  0  9G12G05G25G04G27G09G17G02G10
 110069445.203 8  85768410.297 7  20945505.313                    20945511.934
 111875974.372 8  87176150.763 7  21289268.672                    21289276.031
 122007811.513 7  95071145.676 6  23217327.789                    23217338.426
 117521973.356 7  91575738.25745  22363666.992                    22363674.313
 129074896.837 6 100577875.52243  24562145.648                    24562156.379
 128841982.178 6 100396416.32343  24517828.953                    24517839.953
 124809734.531 6  97254418.444 6  23750467.883                    23750475.371
 108387873.415 8  84458126.92646  20625484.633                    20625489.371
 110241181.405 8  85902262.80046  20978166.125                    20978172.777
 11  7 30  2 11 30.0000000  0  9G12G05G25G04G27G09G17G02G10
 110036426.175 8  85742681.196 7  20939222.211                    20939228.766
 111802352.046 8  87118782.756 7  21275258.992                    21275266.238
 121920824.350 7  95003363.512 6  23200774.438                    23200785.254
 117603327.045 7  91639130.73145  22379147.984                    22379156.066
 129139375.889 6 100628118.85043  24574415.352                    24574426.504
 128926323.728 6 100462136.94443  24533878.547                    24533888.918
 124873353.913 7  97303991.994 6  23762574.172                    23762582.563
 108400119.134 8  84467669.04346  20627814.945                    20627819.766
 110267611.679 8  85922857.83146  20983195.633                    20983202.660
 11  7 30  2 12  0.0000000  0  9G12G05G25G04G27G09G17G02G10
 110003943.655 8  85717370.139 7  20933040.844                    20933047.629
 111729157.596 8  87061748.156 7  21261330.406                    21261337.727
 121834150.282 7  94935825.306 6  23184280.930                    23184291.305
 117684745.120 7  91702573.37644  22394641.148                    22394649.008
 129203785.192 6 100678307.84743  24586671.102                    24586683.355
 129010659.490 6 100527853.02743  24549927.391                    24549938.113
 124937149.217 7  97353702.598 6  23774714.141                    23774721.934
 108412606.300 8  84477399.30746  20630191.211                    20630195.953
 110294658.014 7  85943932.90946  20988342.258                    20988349.141
 11  7 30  2 12 30.0000000  0  9G12G05G25G04G27G09G17G02G10
 109971999.703 8  85692478.759 7  20926961.938                    20926968.863
 111656393.726 8  87005049.068 7  21247483.719                    21247491.438
 121747792.135 7  94868533.243 6  23167847.867                    23167858.102
 117766225.841 7  91766064.82345  22410146.906                    22410154.426
 129268122.608 6 100728440.83543  24598913.961                    24598926.195
 129094986.153 6 100593562.07143  24565974.180                    24565985.063
 125001120.848 7  97403550.605 6  23786887.367                    23786894.965
 108425333.893 8  84487316.91746  20632613.063                    20632617.633
 110322319.443 8  85965487.28346  20993605.695                    20993612.813
 11  7 30  2 13  0.0000000  0  9G12G05G25G04G27G09G17G02G10
 109940594.950 8  85668007.535 7  20920986.172                    20920992.906
 111584062.348 8  86948686.998 7  21233719.695                    21233727.082
 121661752.320 7  94801489.249 6  23151474.836                    23151485.367
 117847767.475 7  91829603.74645  22425663.852                    22425671.512
 129332385.309 6 100778515.64343  24611143.125                    24611154.836
 129179300.627 6 100659261.58743  24582018.727                    24582029.070
 125065268.987 7  97453536.145 6  23799094.250                    23799102.176
 108438300.365 8  84497420.66746  20635080.430                    20635085.355
 110350595.104 8  85987520.26346  20998986.453                    20998993.883
 11  7 30  2 13 30.0000000  0  9G12G05G25G04G27G09G17G02G10
 109909730.975 8  85643957.697 7  20915112.984                    20915119.398
 111512166.091 8  86892663.969 7  21220038.625                    21220045.355
 121576033.525 7  94734695.407 6  23135162.867                    23135173.031
 117929368.858 7  91893189.21645  22441191.781                    22441200.379
 129396570.897 6 100828530.34743  24623357.688                    24623369.133
 129263599.703 6 100724949.05043  24598060.867                    24598070.742
 125129593.864 7  97503659.453 6  23811335.203                    23811342.559
 108451504.997 8  84507709.99246  20637593.461                    20637597.531
 110379483.605 8  86010030.78346  21004484.281                    21004491.285
 11  7 30  2 14  0.0000000  0 10G12G05G25G29G04G27G09G17G02G10
 109879409.690 8  85620330.729 7  20909343.078                    20909349.207
 111440707.367 8  86836981.891 7  21206440.125                    21206447.121
 121490638.594 7  94668153.926 6  23118912.836                    23118923.367
 132233411.33215 103039235.62215  25163222.836
 118011028.249 7  91956819.89345  22456731.234                    22456739.238
 129460676.918 5 100878483.00342  24635556.453                    24635567.809
 129347880.488 6 100790622.32743  24614098.688                    24614109.133
 125194095.797 6  97553920.687 6  23823609.594                    23823617.863
 108464946.260 8  84518183.70846  20640151.219                    20640156.289
 110408983.817 8  86033017.97246  21010097.781                    21010104.629
 11  7 30  2 14 30.0000000  0 10G12G05G25G29G04G27G09G17G02G10
 109849631.997 8  85597127.356 7  20903676.133                    20903683.164
 111369688.508 8  86781642.547 7  21192925.414                    21192932.695
 121405569.963 7  94601866.719 7  23102725.133                    23102734.777
 132156014.013 5 102978926.042 5  25148494.086
 118092744.106 7  92020494.58345  22472281.430                    22472288.926
 129524700.694 5 100928371.60742  24647739.438                    24647751.633
 129432139.871 6 100856278.88543  24630133.070                    24630144.219
 125258774.895 6  97604320.012 6  23835917.531                    23835924.871
 108478623.080 8  84528840.97646  20642753.797                    20642758.504
 110439094.401 8  86056480.77046  21015827.930                    21015834.625
 11  7 30  2 15  0.0000000  0 10G12G05G25G29G04G27G09G17G02G10
 109820399.680 8  85574348.938 7  20898113.766                    20898120.445
 111299111.962 8  86726647.871 7  21179495.039                    21179502.680
 121320830.591 7  94535836.058 6  23086599.328                    23086610.086
 132078534.423 5 102918552.398 5  25133750.750
 118174515.495 7  92084212.52844  22487841.430                    22487849.461
 129588640.164 5 100978194.46852  24659907.070                    24659919.832
 129516375.127 6 100921916.72343  24646162.148                    24646173.293
 125323631.692 6  97654857.779 6  23848258.883                    23848266.313
 108492534.907 8  84539681.36146  20645401.047                    20645405.926
 110469814.584 8  86080418.59046  21021673.469                    21021680.719
 11  7 30  2 15 30.0000000  0 10G12G05G25G29G04G27G09G17G02G10
 109791713.866 8  85551996.373 7  20892655.195                    20892661.371
 111228979.936 8  86671999.581 7  21166149.227                    21166156.711
 121236422.745 7  94470063.735 6  23070537.602                    23070547.637
 132000972.670 5 102858114.693 5  25118990.555                    25119001.012
 118256340.265 7  92147972.08545  22503412.578                    22503420.043
 129652492.000 5 101027949.13442  24672058.414                    24672069.871
 129600582.494 6 100987532.75943  24662187.078                    24662197.473
 125388665.820 6  97705533.726 6  23860634.539                    23860642.750
 108506679.783 8  84550703.34546  20648092.820                    20648097.258
 110501143.028 8  86104830.37746  21027635.250                    21027642.203
 11  7 30  2 16  0.0000000  0 10G12G05G25G29G04G27G09G17G02G10
 109763575.588 8  85530070.448 7  20887300.430                    20887307.094
 111159294.573 8  86617699.328 7  21152888.914                    21152896.215
 121152348.858 7  94404551.634 6  23054538.813                    23054548.539
 131923328.770 5 102797613.031 5  25104215.258                    25104225.828
 118338216.877 7  92211772.01645  22518993.211                    22519000.641
 129716254.000 6 101077633.69443  24684191.352                    24684203.176
 129684758.878 6 101053124.65643  24678204.508                    24678215.977
 125453877.488 6  97756348.024 6  23873043.453                    23873052.301
 108521056.394 8  84561905.90646  20650828.477                    20650833.395
 110533078.298 8  86129715.01346  21033711.945                    21033718.891
 11  7 30  2 16 30.0000000  0 10G12G05G25G29G04G27G09G17G02G10
 109735986.805 8  85508572.713 7  20882050.477                    20882057.176
 111090058.108 8  86563748.860 7  21139713.336                    21139720.402
 121068611.871 7  94339302.059 6  23038603.672                    23038614.352
 131845602.959 5 102737047.533 5  25089425.547                    25089434.703
 118420144.199 7  92275611.48144  22534583.305                    22534590.992
 129779923.733 6 101127246.45343  24696308.117                    24696319.410
 129768901.366 6 101118690.16243  24694216.133                    24694227.359
 125519267.264 6  97807301.080 6  23885487.484                    23885495.273
 108535663.979 8  84573288.45646  20653608.148                    20653613.086
 110565619.448 7  86155071.76746  21039904.430                    21039911.801
 11  7 30  2 17  0.0000000  0 10G12G05G25G29G04G27G09G17G02G10
 109708948.303 8  85487503.773 7  20876904.969                    20876911.922
 111021272.993 8  86510150.113 7  21126624.102                    21126631.789
 120985214.316 7  94274316.979 6  23022733.922                    23022744.098
 131767795.605 6 102676418.473 5  25074618.820                    25074628.758
 118502120.672 7  92339489.24644  22550182.367                    22550190.859
 129843498.660 6 101176785.33743  24708405.438                    24708417.387
 129853006.903 6 101184226.86143  24710220.813                    24710232.574
 125584835.262 6  97858393.056 6  23897964.813                    23897972.316
 108550501.285 8  84584849.99846  20656431.727                    20656436.414
 110598765.127 8  86180899.57546  21046211.758                    21046218.668
 11  7 30  2 17 30.0000000  0 10G12G05G25G29G04G27G09G17G02G10
 109682461.349 8  85466864.600 7  20871864.656                    20871871.465
 110952941.824 8  86456905.084 7  21113621.102                    21113628.395
 120902158.845 7  94209598.456 6  23006929.156                    23006938.996
 131689907.018 6 102615726.100 5  25059797.609                    25059807.848
 118584144.860 7  92403404.17144  22565791.953                    22565799.543
 129906976.583 6 101226248.57743  24720485.344                    24720496.238
 129937072.607 6 101249732.56243  24726218.039                    24726229.871
 125650581.658 6  97909623.997 6  23910475.727                    23910483.699
 108565567.422 8  84596589.85646  20659298.422                    20659303.406
 110632513.970 8  86207197.38346  21052634.000                    21052640.922
 11  7 30  2 18  0.0000000  0 10G12G05G25G29G04G27G09G17G02G10
 109656527.433 8  85446656.374 7  20866929.758                    20866936.672
 110885066.421 8  86404015.201 7  21100705.008                    21100712.297
 120819448.137 7  94145148.560 6  22991189.477                    22991199.953
 131611937.760 6 102554970.905 5  25044958.641                    25044969.629
 118666215.358 7  92467355.19244  22581408.906                    22581416.633
 129970354.726 6 101275634.08143  24732545.609                    24732557.547
 130021095.414 6 101315204.81943  24742207.203                    24742218.465
 125716506.556 6  97960994.077 6  23923020.523                    23923028.316
 108580861.016 8  84608506.95446  20662208.984                    20662213.980
 110666864.951 8  86233964.38846  21059170.742                    21059178.148
 11  7 30  2 18 30.0000000  0 10G12G05G25G29G04G27G09G17G02G10
 109631147.562 8  85426879.884 7  20862099.977                    20862106.922
 110817649.135 8  86351482.279 7  21087875.953                    21087882.961
 120737084.651 7  94080969.251 6  22975516.273                    22975526.797
 131533887.651 6 102494152.675 5  25030106.984                    25030116.672
 118748330.669 7  92531341.13644  22597035.195                    22597043.602
 130033630.555 6 101324939.94742  24744586.258                    24744598.633
 130105072.188 7 101380641.16343  24758188.305                    24758199.078
 125782610.116 6  98012503.334 6  23935600.039                    23935607.516
 108596380.359 8  84620599.95746  20665162.078                    20665167.004
 110701816.295 8  86261199.21846  21065821.539                    21065828.680
 11  7 30  2 19  0.0000000  0 10G12G05G25G29G04G27G09G17G02G10
 109606323.128 8  85407536.169 7  20857376.008                    20857382.582
 110750691.985 8  86299307.911 7  21075134.094                    21075141.441
 120655071.042 7  94017062.590 6  22959910.031                    22959919.938
 131455757.235 6 102433271.849 5  25015239.430                    25015249.137
 118830489.513 7  92595361.00744  22612669.508                    22612677.496
 130096801.858 6 101374164.22942  24756607.938                    24756619.063
 130188999.963 6 101446039.33343  24774158.711                    24774169.805
 125848892.473 6  98064151.894 6  23948212.781                    23948221.063
 108612125.307 8  84632868.76346  20668158.336                    20668163.621
 110737366.864 8  86288900.96446  21072586.781                    21072593.922
 11  7 30  2 19 30.0000000  0 10G12G05G25G29G04G27G09G17G02G10
 109582055.441 8  85388626.307 7  20852758.445                    20852764.863
 110684197.810 8  86247494.305 7  21062480.688                    21062487.910
 120573410.251 7  93953430.829 7  22944370.289                    22944380.141
 131377546.702 6 102372328.634 5  25000356.875                    25000366.066
 118912690.546 7  92659413.75944  22628311.719                    22628319.883
 130159866.252 5 101423305.25842  24768608.039                    24768619.980
 130272876.086 6 101511397.34243  24790119.664                    24790130.762
 125915354.178 6  98115940.221 6  23960859.578                    23960868.508
 108628094.625 8  84645312.40546  20671197.023                    20671201.641
 110773515.357 8  86317068.63646  21079465.945                    21079472.957
 11  7 30  2 20  0.0000000  0 10G12G05G25G29G04G27G09G17G02G10
 109558345.872 8  85370151.328 7  20848246.461                    20848252.906
 110618168.377 8  86196042.829 7  21049915.750                    21049922.840
 120492104.569 7  93890075.776 7  22928897.859                    22928907.480
 131299256.616 6 102311323.426 5  24985458.484                    24985468.336
 118994932.333 7  92723498.25944  22643961.680                    22643969.559
 130222821.376 5 101472361.16642  24780587.023                    24780600.367
 130356697.227 6 101576712.47143  24806070.492                    24806081.430
 125981995.059 6  98167868.157 6  23973540.977                    23973549.625
 108644286.896 8  84657929.76346  20674278.305                    20674283.063
 110810260.324 8  86345701.08245  21086457.883                    21086464.977
 11  7 30  2 20 30.0000000  0 10G12G05G25G29G04G27G09G17G02G10
 109535195.069 8  85352111.756 7  20843840.875                    20843847.547
 110552605.484 8  86144954.896 7  21037439.117                    21037446.809
 120411156.400 7  93826999.322 6  22913493.773                    22913504.469
 131220886.670 5 102250255.982 6  24970544.281                    24970555.258
 119077213.465 7  92787613.39844  22659619.258                    22659627.570
 130285664.377 5 101521329.70742  24792546.672                    24792559.234
 130440460.309 6 101641982.36442  24822010.039                    24822020.793
 126048815.162 6  98219935.774 6  23986256.813                    23986264.578
 108660700.578 8  84670719.65546  20677401.625                    20677406.535
 110847600.050 8  86374796.98545  21093563.414                    21093570.703
 11  7 30  2 21  0.0000000  0 10G12G05G25G29G04G27G09G17G02G10
 109512604.222 8  85334508.515 7  20839541.758                    20839548.418
 110487511.817 8  86094232.598 7  21025052.305                    21025059.547
 120330568.517 7  93764203.617 6  22898158.430                    22898168.590
 131142437.581 5 102189126.855 5  24955617.313                    24955626.984
 119159532.264 7  92851757.91844  22675283.977                    22675292.270
 130348392.883 6 101570209.03542  24804483.672                    24804495.551
 130524162.483 6 101707204.76943  24837938.477                    24837948.863
 126115814.789 6  98272143.260 6  23999006.828                    23999013.824
 108677334.984 8  84683681.53346  20680567.297                    20680571.871
 110885533.139 8  86404355.26046  21100781.781                    21100788.766
 11  7 30  2 21 30.0000000  0 10G12G05G25G29G04G27G09G17G02G10
 109490574.360 8  85317342.388 7  20835349.500                    20835356.203
 110422889.353 8  86043877.452 7  21012755.195                    21012762.301
 120250343.439 7  93701690.604 6  22882892.094                    22882901.918
 131063909.472 5 102127936.171 6  24940673.141                    24940683.316
 119241887.600 7  92915930.88744  22690956.133                    22690964.512
 130411004.606 6 101618997.31843  24816397.805                    24816410.348
 130607800.637 6 101772377.27743  24853853.648                    24853865.000
 126182993.869 6  98324490.648 6  24011790.164                    24011798.063
 108694188.711 8  84696814.31546  20683774.391                    20683779.695
 110924058.073 8  86434374.69146  21108112.813                    21108119.867
 11  7 30  2 22  0.0000000  0 10G12G05G25G29G04G27G09G17G02G10
 109469106.695 8  85300614.349 7  20831264.578                    20831271.098
 110358739.854 8  85993890.860 7  21000548.164                    21000555.273
 120170483.591 7  93639462.192 6  22867695.289                    22867705.531
 130985302.701 5 102066684.209 5  24925714.516                    24925724.961
 119324278.315 7  92980131.44245  22706634.695                    22706643.121
 130473497.013 6 101667692.66443  24828290.977                    24828303.012
 130691371.831 6 101837497.67443  24869757.359                    24869768.531
 126250352.534 6  98376977.874 6  24024608.492                    24024615.715
 108711260.443 8  84710116.97946  20687022.914                    20687027.934
 110963173.330 8  86464854.12146  21115556.836                    21115563.285
 11  7 30  2 22 30.0000000  0 10G12G05G25G29G04G27G09G17G02G10
 109448202.563 8  85284325.429 7  20827286.633                    20827293.223
 110295066.006 8  85944274.906 7  20988431.141                    20988438.320
 120090991.874 7  93577520.623 7  22852568.383                    22852578.805
 130906617.848 5 102005371.303 5  24910741.813                    24910751.266
 119406702.907 7  93044358.38744  22722319.648                    22722327.422
 130535868.005 6 101716293.37643  24840159.125                    24840171.449
 130774873.303 5 101902563.69242  24885646.828                    24885658.336
 126317891.265 6  98429605.453 6  24037460.930                    24037468.598
 108728549.679 8  84723589.12446  20690313.133                    20690318.297
 111002877.398 8  86495792.36946  21123111.914                    21123118.598
 11  7 30  2 23  0.0000000  0 10G12G05G25G29G04G27G09G17G02G10
 109427862.666 8  85268476.154 7  20823415.883                    20823422.984
 110231869.610 8  85895030.993 7  20976405.375                    20976412.586
 120011870.592 7  93515867.709 7  22837512.008                    22837522.234
 130827854.88315 101943997.51615  24895753.805                    24895764.324
 119489160.133 7  93108610.77744  22738010.656                    22738018.047
 130598115.144 5 101764797.62543  24852004.711                    24852016.566
 130858301.966 6 101967572.98743  24901523.586                    24901534.625
 126385610.130 6  98482373.372 6  24050347.375                    24050355.117
 108746054.746 8  84737229.44546  20693644.313                    20693648.563
 111043169.044 8  86527188.47846  21130779.156                    21130786.156
 11  7 30  2 23 30.0000000  0 10G12G05G25G29G04G27G09G17G02G10
 109408087.714 8  85253067.118 7  20819652.852                    20819659.844
 110169152.873 8  85846160.844 7  20964470.375                    20964477.469
 119933122.385 7  93454505.512 6  22822526.742                    22822537.012
 130749014.37215 101882563.41114  24880750.016                    24880760.441
 119571648.537 7  93172887.42744  22753707.008                    22753715.246
 130660235.910 5 101813203.28542  24863824.594                    24863838.227
 130941654.905 6 102032523.22142  24917384.367                    24917395.574
 126453509.046 6  98535281.607 6  24063268.063                    24063275.629
 108763774.797 8  84751037.29146  20697016.336                    20697020.828
 111084046.280 8  86559040.88246  21138557.602                    21138564.938
 11  7 30  2 24  0.0000000  0 10G12G05G25G29G04G27G09G17G02G10
 109388879.147 8  85238099.403 7  20815997.836                    20816004.789
 110106917.837 8  85797666.035 7  20952627.656                    20952634.781
 119854750.013 7  93393436.176 7  22807613.672                    22807623.488
 130670096.84716 101821069.32815  24865733.875                    24865742.195
 119654167.134 7  93237187.62444  22769409.859                    22769418.055
 130722228.23514 101861508.88052  24875621.664                    24875635.117
 131024929.533 6 102097412.50043  24933231.383                    24933242.715
 126521588.070 6  98588330.192 6  24076223.086                    24076230.898
 108781708.990 8  84765011.99446  20700428.844                    20700433.465
 111125507.781 8  86591348.55346  21146447.750                    21146454.539
 11  7 30  2 24 30.0000000  0  9G12G05G25G29G04G09G17G02G10
 109370238.158 8  85223573.957 7  20812450.617                    20812456.848
 110045166.576 8  85749548.200 7  20940876.703                    20940883.750
 119776756.006 8  93332661.632 7  22792771.492                    22792781.512
 130591102.903 6 101759515.605 5  24850701.500                    24850711.344
 119736714.506 7  93301510.24544  22785118.313                    22785126.387
 131108122.591 6 102162238.19143  24949062.547                    24949073.527
 126589847.691 6  98641519.488 6  24089211.492                    24089219.613
 108799855.563 8  84779152.19346  20703881.914                    20703887.109
 111167551.703 8  86624110.06646  21154448.203                    21154455.152
 11  7 30  2 25  0.0000000  0 10G12G05G25G29G04G27G09G17G02G10
 109352165.080 8  85209491.038 7  20809011.359                    20809017.836
 109983900.523 8  85701808.450 7  20929218.391                    20929225.430
 119699142.392 7  93272183.520 7  22778001.969                    22778012.488
 130512032.079 5 101697901.980 5  24835654.336                    24835664.402
 119819289.048 7  93365854.02944  22800831.563                    22800840.230
 130845814.47015                  24899141.008
 131191230.999 6 102226997.94543  24964878.117                    24964889.227
 126658287.379 6  98694849.123 6  24102236.281                    24102243.645
 108818213.541 8  84793457.12146  20707375.484                    20707380.410
 111210176.234 8  86657324.00545  21162559.141                    21162566.453
 11  7 30  2 25 30.0000000  0 10G12G05G25G29G04G27G09G17G02G10
 109334660.690 8  85195851.278 7  20805680.281                    20805687.379
 109923121.942 8  85654448.543 7  20917652.531                    20917659.656
 119621911.626 7  93212003.758 7  22763304.938                    22763315.730
 130432884.824 5 101636228.770 5  24820593.695                    24820602.961
 119901889.370 7  93430217.90244  22816550.609                    22816558.094
 130907405.864 5                  24910861.484
 131274251.697 7 102291689.30343  24980676.430                    24980687.070
 126726907.086 6  98748319.007 6  24115293.734                    24115301.383
 108836781.711 8  84807925.83446  20710909.008                    20710913.434
 111253379.835 8  86690989.16446  21170780.539                    21170788.078
 11  7 30  2 26  0.0000000  0 10G12G05G25G29G04G27G09G17G02G10
 109317726.422 8  85182655.733 7  20802457.711                    20802464.520
 109862832.912 8  85607470.119 7  20906179.773                    20906186.906
 119545066.553 7  93152124.512 6  22748682.898                    22748691.945
 130353662.073 5 101574496.762 6  24805517.578                    24805528.086
 119984514.379 7  93494601.02344  22832273.031                    22832281.207
 130968859.094 6                  24922555.266
 131357182.220 6 102356310.46843  24996456.906                    24996468.324
 126795707.257 6  98801929.527 6  24128386.094                    24128394.098
 108855559.236 8  84822557.68946  20714482.055                    20714487.004
 111297160.910 8  86725104.29746  21179111.602                    21179119.039
 11  7 30  2 26 30.0000000  0 10G12G05G25G29G04G27G09G17G02G10
 109301362.899 8  85169904.948 7  20799343.820                    20799350.844
 109803035.599 8  85560874.831 7  20894800.945                    20894807.859
 119468609.738 8  93092547.819 7  22734132.719                    22734143.293
 130274364.021 6 101512706.098 6  24790427.344                    24790437.992
 120067163.137 7  93559002.65844  22848000.711                    22848008.984
 131030171.679 6                  24934223.406
 131440019.658 7 102420859.08143  25012220.953                    25012232.309
 126864688.134 6  98855680.829 6  24141512.508                    24141520.391
 108874544.924 8  84837351.74646  20718094.992                    20718099.844
 111341517.558 7  86759667.92346  21187552.586                    21187560.016
 11  7 30  2 27  0.0000000  0 10G12G05G25G29G04G27G09G17G02G10
 109285571.294 8  85157599.802 7  20796338.992                    20796345.758
 109743731.802 8  85514664.117 7  20883515.445                    20883522.367
 119392543.620 7  93033275.574 7  22719658.250                    22719668.578
 130194991.012 6 101450856.955 5  24775324.258                    24775333.098
 120149834.197 7  93623421.65044  22863732.523                    22863740.563
 131091341.315 6                  24945863.586
 131522761.141 6 102485332.89143  25027965.547                    25027977.488
 126933849.565 6  98909572.846 6  24154673.484                    24154681.371
 108893737.421 8  84852306.95146  20721747.203                    20721751.887
 111386448.344 7  86794678.93846  21196102.945                    21196109.734
 11  7 30  2 27 30.0000000  0 10G12G05G25G29G04G27G09G17G02G10
 109270351.871 8  85145740.520 7  20793442.773                    20793449.430
 109684923.306 8  85468839.351 7  20872324.445                    20872331.500
 119316870.635 7  92974309.659 7  22705258.211                    22705268.227
 130115543.544 6 101388949.855 5  24760205.156                    24760214.707
 120232526.212 7  93687856.97644  22879468.398                    22879476.480
 131152365.635 6 102196734.12652  24957476.422                    24957486.629
 131605403.658 6 102549729.61743  25043692.383                    25043703.641
 127003191.555 7  98963605.541 6  24167868.859                    24167877.086
 108913135.591 8  84867422.42446  20725438.438                    20725443.695
 111431951.146 7  86830135.67546  21204761.547                    21204769.176
 11  7 30  2 28  0.0000000  0 10G12G05G25G29G04G27G09G17G02G10
 109255705.582 8  85134327.829 7  20790655.906                    20790662.176
 109626612.207 8  85423402.153 7  20861228.375                    20861235.434
 119241593.451 7  92915652.129 7  22690933.305                    22690943.238
 130036022.092 6 101326985.084 5  24745072.102                    24745081.973
 120315238.228 7  93752307.87544  22895208.133                    22895216.410
 131213242.661 6 102244170.71143  24969060.188                    24969071.695
 131687944.560 6 102614047.14743  25059399.266                    25059410.609
 127072714.228 7  99017779.054 6  24181098.688                    24181106.902
 108932738.842 8  84882697.69346  20729168.914                    20729174.043
 111478024.452 7  86866036.95445  21213529.063                    21213536.383
 11  7 30  2 28 30.0000000  0 10G12G05G25G29G04G27G09G17G02G10
 109241633.585 8  85123362.632 7  20787977.906                    20787983.996
 109568800.367 8  85378354.006 7  20850227.219                    20850234.586
 119166714.400 7  92857304.871 7  22676684.227                    22676694.418
 129956427.142 6 101264963.031 5  24729926.977                    24729936.027
 120397968.923 7  93816773.36944  22910951.266                    22910959.105
 131273969.973 6 102291490.69843  24980617.414                    24980628.895
 131770380.889 6 102678283.17043  25075086.742                    25075098.285
 127142417.737 6  99072093.458 6  24194363.148                    24194371.000
 108952545.615 8  84898131.55046  20732937.750                    20732942.891
 111524666.350 7  86902381.30745  21222404.438                    21222411.840
 11  7 30  2 29  0.0000000  0 10G12G05G25G29G04G27G09G17G02G10
 109228136.313 8  85112845.283 7  20785409.625                    20785416.320
 109511489.543 8  85333696.248 7  20839321.023                    20839327.785
 119092235.909 7  92799269.725 6  22662511.141                    22662521.223
 129876759.052 6 101202884.044 5  24714766.453                    24714775.305
 120480716.841 7  93881252.26244  22926697.219                    22926705.570
 131334544.950 6 102338691.97143  24992143.109                    24992155.668
 131852709.980 5 102742435.62243  25090752.859                    25090765.355
 127212301.753 6  99126548.505 6  24207660.773                    24207669.441
 108972554.762 8  84913723.11546  20736745.398                    20736750.223
 111571874.932 7  86939167.22145  21231388.383                    21231395.180
 11  7 30  2 29 30.0000000  0 10G12G05G25G29G04G27G09G17G02G10
 109215214.559 8  85102776.396 7  20782950.578                    20782957.340
 109454681.669 8  85289430.404 7  20828511.352                    20828518.105
 119018160.500 7  92741548.645 6  22648415.125                    22648425.164
 129797018.330 6 101140748.449 5  24699591.656                    24699601.805
 120563481.279 7  93945744.02044  22942447.031                    22942455.188
 131394965.732 6 102385773.02343  25003641.438                    25003653.371
 131934928.940 6 102806502.26643  25106398.805                    25106410.574
 127282366.594 7  99181144.472 6  24220994.664                    24221002.652
 108992765.654 8  84929471.87746  20740591.398                    20740596.785
 111619648.103 7  86976393.07245  21240479.086                    21240486.262
 11  7 30  2 30  0.0000000  0 10G12G05G25G29G04G27G09G17G02G10
 109202869.050 8  85093156.522 7  20780601.141                    20780607.992
 109398378.530 8  85245557.849 7  20817796.859                    20817803.883
 118944490.751 7  92684143.708 7  22634396.344                    22634406.555
 129717205.576 6 101078556.707 5  24684403.992                    24684413.207
 120646260.773 7  94010247.52644  22958199.531                    22958207.895
 131455230.169 5 102432732.29343  25015108.398                    25015120.973
 132017034.984 6 102870480.94043  25122023.719                    25122034.836
 127352612.275 6  99235881.355 6  24234361.430                    24234369.813
 109013177.110 8  84945376.91146  20744475.719                    20744480.383
 111667984.485 7  87014057.78746  21249676.891                    21249684.148
 11  7 30  2 30 30.0000000  0 10G12G05G25G29G04G27G09G17G02G10
 109191100.405 8  85083986.153 7  20778361.633                    20778367.855
 109342581.974 8  85202080.045 7  20807179.273                    20807186.426
 118871229.062 7  92627056.703 7  22620454.953                    22620465.020
 129637321.103 6 101016309.110 5  24669202.813                    24669211.914
 120729053.980 7  94074761.69544  22973954.422                    22973962.262
 131515335.74414 102479567.83552  25026546.172                    25026559.391
 132099025.252 6 102934369.37743  25137625.750                    25137636.945
 127423038.986 6  99290759.306 6  24247763.078                    24247771.273
 109033787.849 8  84961437.24846  20748397.719                    20748402.551
 111716882.116 8  87052159.83345  21258982.344                    21258989.230
 11  7 30  2 31  0.0000000  0  9G12G05G25G29G04G09G17G02G10
 109179909.357 8  85075265.860 7  20776232.156                    20776238.707
 109287293.889 8  85158998.451 7  20796658.164                    20796665.523
 118798377.827 7  92570289.556 7  22606592.180                    22606601.898
 129557365.489 6 100954006.063 5  24653987.703                    24653997.188
 120811860.119 7  94139285.93944  22989712.172                    22989720.422
 132180897.229 5 102998165.63343  25153204.492                    25153216.762
 127493646.498 6  99345778.097 6  24261199.797                    24261207.926
 109054596.801 8  84977652.02346  20752357.711                    20752362.242
 111766338.976 7  87090697.65145  21268393.625                    21268401.016
 11  7 30  2 31 30.0000000  0  9G12G05G25G29G04G09G17G02G10
 109169296.399 8  85066996.036 7  20774212.523                    20774219.043
 109232515.879 8  85116314.321 7  20786234.438                    20786241.641
 118725939.371 7  92513844.043 7  22592807.680                    22592817.145
 129477338.937 6 100891647.821 5  24638759.039                    24638768.840
 120894677.897 7  94203819.27244  23005471.914                    23005479.855
 132262647.516 6 103061867.08042  25168761.313                    25168773.441
 127564434.725 6  99400937.750 6  24274669.781                    24274678.090
 109075602.822 8  84994020.36646  20756354.688                    20756359.691
 111816352.939 7  87129669.56546  21277911.008                    21277917.785
 11  7 30  2 32  0.0000000  0 10G12G05G25G29G04G27G09G17G02G10
 109159261.988 8  85059177.016 7  20772302.984                    20772309.578
 109178249.635 8  85074028.963 7  20775907.711                    20775914.844
 118653916.037 7  92457721.998 7  22579101.781                    22579111.848
 129397242.095 6 100829234.736 6  24623517.055                    24623526.316
 120977506.129 7  94268360.75744  23021233.461                    23021241.941
 131694687.73615                  25060674.242
 132344273.81815 103125471.52152  25184295.492                    25184306.422
 127635403.535 6  99456238.105 6  24288174.789                    24288182.914
 109096804.607 8  85010541.24646  20760389.242                    20760394.605
 111866922.202 8  87169074.19745  21287533.969                    21287541.000
 11  7 30  2 32 30.0000000  0 10G12G05G25G29G04G27G09G17G02G10
 109149807.059 8  85051809.550 7  20770504.305                    20770510.027
 109124496.713 8  85032143.598 7  20765678.695                    20765685.789
 118582310.082 7  92401925.183 7  22565475.492                    22565485.758
 129317075.324 6 100766767.173 6  24608260.953                    24608271.012
 121060343.345 6  94332909.23544  23036996.492                    23037005.043
 131754134.678 6 102665636.08053  25071986.359                    25071997.566
 132425772.12915 103188976.99752  25199803.289                    25199815.656
 127706552.897 6  99511679.152 6  24301714.258                    24301722.328
 109118201.066 8  85027213.82346  20764460.867                    20764466.020
 111918044.579 8  87208909.80746  21297262.492                    21297269.340
 11  7 30  2 33  0.0000000  0 10G12G05G25G29G04G27G09G17G02G10
 109140931.772 8  85044893.739 7  20768814.523                    20768821.527
 109071258.875 8  84990659.585 7  20755547.836                    20755554.988
 118511124.139 7  92346455.657 7  22551929.422                    22551939.117
 129236839.214 6 100704245.591 6  24592993.117                    24593003.078
 121143188.711 7  94397464.04444  23052761.813                    23052769.469
 131813411.523 6 102711825.80942  25083266.555                    25083278.781
 132507141.38515 103252381.45752  25215287.008                    25215300.469
 127777882.935 6  99567260.985 6  24315287.008                    24315296.477
 109139791.398 8  85044037.46946  20768569.383                    20768574.273
 111969717.964 8  87249174.79045  21307095.242                    21307102.566
 11  7 30  2 33 30.0000000  0 10G12G05G25G29G04G27G09G17G02G10
 109132636.775 8  85038430.120 7  20767236.508                    20767242.852
 109018538.369 8  84949578.701 7  20745515.664                    20745522.758
 118440360.805 7  92291315.427 7  22538462.961                    22538473.340
 129156534.656 6 100641670.688 6  24577711.633                    24577720.512
 121226041.193 7  94462024.44844  23068528.102                    23068535.586
 131872515.933 6 102757881.18043  25094514.570                    25094526.055
 132588378.29915                  25230745.641
 127849393.799 6  99622983.740 6  24328895.938                    24328904.344
 109161574.605 8  85061011.40946  20772714.375                    20772719.516
 112021940.821 7  87289867.91145  21317033.148                    21317040.027
 11  7 30  2 34  0.0000000  0 10G12G05G25G29G04G27G09G17G02G10
 109124922.973 8  85032419.367 7  20765768.195                    20765774.984
 108966336.504 8  84908901.956 7  20735581.750                    20735588.895
 118370022.197 7  92236506.145 7  22525078.602                    22525088.875
 129076161.842 6 100579042.586 6  24562417.508                    24562426.219
 121308899.578 7  94526589.40544  23084295.141                    23084303.762
 131931445.702 6 102803800.50143  25105727.969                    25105739.953
 132669480.124 5                  25246179.000
 127921084.962 6  99678846.968 6  24342538.234                    24342546.625
 109183549.394 8  85078134.63446  20776896.125                    20776900.926
 112074711.081 8  87330987.61045  21327074.688                    21327082.055
 11  7 30  2 34 30.0000000  0 10G12G05G25G29G04G27G09G17G02G10
 109117790.202 8  85026861.370 7  20764411.438                    20764417.758
 108914654.814 8  84868630.538 7  20725747.117                    20725754.059
 118300110.627 7  92182029.638 7  22511774.516                    22511785.055
 128995721.297 6 100516361.695 6  24547109.367                    24547118.656
 121391762.788 7  94591158.15944  23100063.344                    23100072.535
 131990198.932 6 102849582.24842  25116908.680                    25116920.340
 132750443.953 5                  25261587.078
 127992956.711 6  99734850.937 6  24356215.461                    24356223.617
 109205714.682 8  85095406.29446  20781114.477                    20781119.066
 112128026.382 8  87372531.99345  21337220.594                    21337227.457
 11  7 30  2 35  0.0000000  0 10G12G05G25G29G04G27G09G17G02G10
 109111239.269 8  85021756.749 7  20763164.609                    20763171.285
 108863494.836 8  84828765.655 7  20716011.563                    20716018.406
 118230628.628 7  92127887.859 7  22498552.516                    22498562.887
 128915213.747 6 100453628.599 6  24531789.266                    24531798.836
 121474629.910 6  94655729.93444  23115832.102                    23115840.602
 132048773.235 6 102895224.56642  25128054.570                    25128066.824
 132831267.504 6 103504990.16053  25276967.641                    25276977.320
 128065008.942 6  99790995.517 6  24369926.711                    24369934.621
 109228069.648 8  85112825.76946  20785367.992                    20785373.082
 112181884.950 7  87414499.71545  21347469.047                    21347476.430
 11  7 30  2 35 30.0000000  0 10G12G05G25G29G04G27G09G17G02G10
 109105270.453 8  85017105.737 7  20762028.797                    20762035.527
 108812858.079 8  84789308.476 7  20706375.875                    20706382.625
 118161578.341 7  92074082.474 7  22485412.453                    22485423.305
 128834639.494 6 100390843.534 6  24516456.727                    24516466.168
 121557499.686 7  94720303.77743  23131602.109                    23131609.895
 132107166.312 6 102940725.71742  25139166.758                    25139179.117
 132911947.658 6 103567857.79943  25292320.156                    25292331.480
 128137241.595 6  99847280.690 6  24383671.102                    24383679.449
 109250612.945 8  85130391.99046  20789657.906                    20789662.832
 112236284.454 7  87456888.93645  21357820.977                    21357828.375
 11  7 30  2 36  0.0000000  0 10G12G05G25G29G04G27G09G17G02G10
 109099884.352 8  85012908.783 7  20761003.758                    20761010.313
 108762746.660 8  84750260.646 7  20696839.852                    20696846.938
 118092962.332 7  92020615.479 7  22472355.938                    22472365.852
 128753999.427 6 100328007.152 5  24501110.594                    24501119.898
 121640371.111 6  94784878.91744  23147371.961                    23147380.156
 132165376.563 5 102986084.43652  25150243.680                    25150256.469
 132992482.042 6 103630611.82543  25307645.961                    25307656.383
 128209654.564 6  99903706.375 5  24397451.758                    24397458.664
 109273343.771 8  85148104.33946  20793983.609                    20793988.367
 112291222.671 7  87499697.94445  21368275.492                    21368282.652
 11  7 30  2 36 30.0000000  0 10G12G05G25G29G04G27G09G17G02G10
 109095081.221 8  85009166.086 7  20760090.156                    20760096.477
 108713162.161 8  84711623.414 8  20687404.305                    20687411.434
 118024782.833 7  91967488.632 7  22459381.516                    22459391.258
 128673294.028 6 100265119.854 6  24485753.531                    24485762.375
 121723243.260 7  94849454.61244  23163142.484                    23163150.059
 132223401.538 6 103031298.69943  25161284.570                    25161298.152
 133072867.896 6 103693250.09443  25322942.430                    25322953.363
 128282247.804 6  99960272.513 5  24411265.789                    24411272.590
 109296261.442 8  85165962.26846  20798344.484                    20798349.473
 112346697.536 7  87542925.12045  21378831.641                    21378839.270
 11  7 30  2 37  0.0000000  0 10G12G05G25G29G04G27G09G17G02G10
 109090861.687 8  85005878.143 7  20759286.648                    20759293.527
 108664105.642 8  84673397.579 7  20678069.203                    20678076.051
 117957042.193 7  91914703.764 7  22446491.141                    22446500.695
 128592523.808 6 100202182.040 6  24470383.813                    24470393.680
 121806115.086 7  94914030.04644  23178912.336                    23178920.645
 132281238.765 6 103076366.66942  25172291.148                    25172303.660
 133153102.311 6 103755770.42843  25338210.227                    25338222.637
 128355021.204 6 100016979.068 6  24425113.930                    24425121.219
 109319364.132 8  85183964.37846  20802740.867                    20802746.129
 112402707.093 8  87586568.93045  21389490.508                    21389497.555
 11  7 30  2 37 30.0000000  0 10G12G05G25G29G04G27G09G17G02G10
 109087225.459 8  85003044.733 7  20758594.938                    20758601.793
 108615578.769 8  84635584.468 7  20668834.805                    20668841.535
 117889742.497 8  91862262.473 7  22433684.617                    22433693.906
 128511689.399 6 100139194.224 5  24455001.719                    24455010.652
 121888985.309 7  94978604.24144  23194682.266                    23194690.223
 132338886.211 6 103121286.76843  25183261.484                    25183273.313
 133233182.785 6 103818170.74843  25353450.023                    25353461.535
 128427974.496 6 100073825.786 5  24438995.891                    24439003.813
 109342650.972 8  85202109.97846  20807171.922                    20807177.211
 112459248.911 7  87630627.49045  21400250.250                    21400257.020
 11  7 30  2 38  0.0000000  0 10G12G05G25G29G04G27G09G17G02G10
 109084173.066 8  85000666.248 7  20758013.891                    20758020.602
 108567583.034 8  84598185.227 7  20659701.688                    20659708.531
 117822886.193 8  91810166.693 7  22420961.477                    22420971.309
 128430791.359 7 100076156.793 5  24439607.133                    24439614.977
 121971852.986 7  95043176.44944  23210451.297                    23210459.289
 132396341.74615                  25194193.969
 133313106.857 6 103880449.16643  25368658.648                    25368669.320
 128501107.877 6 100130812.882 6  24452913.000                    24452920.891
 109366121.066 8  85220398.37246  20811638.523                    20811643.605
 112516320.799 7  87675099.09145  21411110.281                    21411117.648
 11  7 30  2 38 30.0000000  0 10G12G05G25G29G04G27G09G17G02G10
 109081704.764 8  84998742.900 7  20757544.430                    20757550.820
 108520119.878 8  84561200.973 8  20650669.305                    20650676.223
 117756475.342 7  91758418.011 7  22408324.180                    22408334.320
 128349830.314 6 100013070.275 5  24424199.836                    24424209.441
 122054716.962 7  95107745.73844  23226220.234                    23226227.895
 132453603.22915                  25205090.547
 133392871.760 6 103942603.58243  25383837.359                    25383849.238
 128574421.054 6 100187939.992 6  24466864.320                    24466871.992
 109389773.188 8  85238828.60746  20816139.391                    20816143.609
 112573920.714 8  87719982.14745  21422070.992                    21422078.895
 11  7 30  2 39  0.0000000  0 10G12G05G25G29G04G27G09G17G02G10
 109079821.316 8  84997275.268 7  20757186.188                    20757192.922
 108473191.022 8  84524633.074 7  20641739.148                    20641746.199
 117690512.511 7  91707018.440 7  22395771.984                    22395781.637
 128268807.085 6  99949935.312 6  24408782.219                    24408791.500
 122137576.467 7  95172311.58844  23241987.617                    23241995.883
 132510668.800 5                  25215950.047
 133472475.079 6 104004632.11643  25398985.047                    25398997.500
 128647913.839 6 100245207.111 5  24480849.148                    24480857.070
 109413606.467 8  85257399.99546  20820674.563                    20820679.332
 112632046.648 7  87765275.07445  21433132.695                    21433138.832
 11  7 30  2 39 30.0000000  0 10G12G05G25G29G04G27G09G17G02G10
 109078522.586 8  84996263.286 7  20756938.922                    20756945.555
 108426797.676 8  84488482.440 8  20632910.781                    20632917.836
 117624999.980 7  91655969.744 7  22383305.000                    22383314.766
 128187722.302 6  99886752.415 6  24393351.656                    24393361.770
 122220430.830 7  95236873.42644  23257754.484                    23257762.246
 132567536.479 5                  25226771.922
 133551914.115 6 104066532.58942  25414101.609                    25414113.406
 128721586.266 6 100302614.186 5  24494869.320                    24494876.039
 109437620.309 8  85276112.09546  20825244.492                    20825249.469
 112690696.478 7  87810976.23845  21444293.398                    21444299.883
 11  7 30  2 40  0.0000000  0 10G12G05G25G29G04G27G09G17G02G10
 109077808.295 8  84995706.691 7  20756802.984                    20756809.430
 108380941.017 8  84452750.007 8  20624184.516                    20624191.699
 117559939.548 8  91605273.361 7  22370924.430                    22370934.402
 128106576.279 6  99823521.810 6  24377910.617                    24377920.469
 122303278.513 7  95301430.03644  23273519.242                    23273527.926
 132624204.264 5                  25237555.320
 133631186.04815 104128302.80053  25429185.648                    25429198.270
 128795437.900 6 100360160.917 5  24508921.789                    24508929.887
 109461813.010 8  85294963.54546  20829847.859                    20829853.082
 112749867.452 7  87857083.49245  21455552.289                    21455559.613
 11  7 30  2 40 30.0000000  0  9G12G05G25G29G04G27G17G02G10
 109077679.150 8  84995606.060 7  20756778.133                    20756784.973
 108335622.761 8  84417437.099 8  20615560.898                    20615567.699
 117495333.825 7  91554931.261 7  22358630.203                    22358640.293
 128025370.046 7  99760244.251 6  24362457.523                    24362466.602
 122386118.868 6  95365980.95844  23289283.477                    23289291.891
 132680669.19915                  25248298.695
 128869468.870 6 100417847.431 6  24523009.930                    24523018.188
 109486183.823 8  85313953.80446  20834485.883                    20834490.676
 112809557.391 8  87903595.14345  21466911.188                    21466917.883
 11  7 30  2 41  0.0000000  0 10G12G05G25G29G04G27G09G17G02G10
 109078135.417 8  84995961.598 7  20756864.984                    20756871.797
 108290844.394 8  84382544.902 8  20607039.719                    20607046.637
 117431185.179 7  91504945.347 7  22346423.125                    22346432.754
 127944104.412 7  99696920.422 6  24346993.500                    24347002.977
 122468951.164 7  95430525.60344  23305046.039                    23305054.398
 132736925.68115                  25259005.750
 133789216.51315 104251442.62952  25459260.242                    25459269.742
 128943679.148 6 100475673.641 5  24537131.313                    24537139.461
 109510731.914 8  85333082.20146  20839157.188                    20839161.766
 112869764.170 8  87950509.50745  21478368.219                    21478375.797
 11  7 30  2 41 30.0000000  0 10G12G05G25G29G04G27G09G17G02G10
 109079176.313 8  84996772.683 7  20757063.313                    20757069.680
 108246606.704 8  84348073.995 8  20598621.344                    20598628.363
 117367494.984 7  91455316.662 7  22334303.273                    22334312.797
 127862779.162 6  99633550.176 6  24331517.484                    24331526.531
 122551773.419 7  95495062.39644  23320806.656                    23320814.637
 132792979.82215                  25269672.695
 133867972.18615 104312810.55152  25474246.969                    25474257.570
 129018067.909 6 100533638.847 6  24551288.305                    24551295.289
 109535455.552 8  85352347.38046  20843861.813                    20843866.539
 112930485.213 7  87997824.60245  21489923.148                    21489930.414
 11  7 30  2 42  0.0000000  0 10G12G05G25G29G04G27G09G17G02G10
 109080803.466 8  84998040.592 7  20757372.539                    20757379.660
 108202911.926 8  84314026.146 8  20590306.555                    20590313.223
 117304266.640 7  91406047.865 7  22322271.469                    22322280.797
 127781396.214 7  99570134.968 6  24316030.820                    24316039.844
 122634585.963 7  95559591.64144  23336565.242                    23336573.727
 132848815.15715                  25280300.227
 133946550.986 5 104374040.70843  25489199.758                    25489211.828
 129092635.837 6 100591743.790 5  24565478.016                    24565485.102
 109560354.919 8  85371749.49246  20848599.758                    20848604.816
 112991718.881 7  88045539.13945  21501575.219                    21501582.387
 11  7 30  2 42 30.0000000  0  9G12G05G25G29G04G09G17G02G10
 109083015.526 8  84999764.273 7  20757793.828                    20757800.707
 108159760.481 8  84280401.674 8  20582094.969                    20582101.922
 117241501.352 7  91357139.885 7  22310326.961                    22310337.055
 127699955.316 7  99506674.555 6  24300532.711                    24300542.020
 122717387.028 6  95624111.94644  23352321.930                    23352329.602
 134024949.619 5 104435130.56142  25504118.781                    25504129.938
 129167381.983 6 100649987.480 5  24579700.203                    24579708.109
 109585428.249 8  85391287.15746  20853371.547                    20853375.980
 113053461.884 7  88093650.55845  21513324.852                    21513331.660
 11  7 30  2 43  0.0000000  0  9G12G05G25G29G04G09G17G02G10
 109085813.458 8  85001944.479 7  20758326.422                    20758332.602
 108117154.160 8  84247201.967 8  20573987.344                    20573994.309
 117179201.753 8  91308594.772 7  22298472.195                    22298482.082
 127618457.519 7  99443169.844 6  24285024.828                    24285033.578
 122800176.426 7  95688623.14544  23368076.516                    23368083.945
 134103166.159 6 104496078.47842  25519002.813                    25519014.402
 129242307.083 6 100708370.676 5  24593958.195                    24593966.383
 109610674.792 8  85410959.80446  20858175.555                    20858180.422
 113115712.707 7  88142157.69845  21525170.703                    21525178.047
 11  7 30  2 43 30.0000000  0 10G12G05G25G29G04G27G09G17G02G10
 109089196.939 8  85004580.953 8  20758969.883                    20758976.637
 108075094.073 8  84214427.898 8  20565983.828                    20565990.383
 117117369.888 7  91260414.137 7  22286705.914                    22286715.641
 127536903.617 6  99379621.372 6  24269505.875                    24269514.637
 122882952.878 6  95753124.26944  23383828.063                    23383835.496
 133015075.53115                  25311941.102
 134181197.970 6 104556882.45742  25533851.852                    25533863.484
 129317410.209 6 100766892.593 5  24608250.398                    24608258.254
 109636093.549 8  85430766.63746  20863012.703                    20863017.188
 113178468.595 7  88191058.38045  21537112.836                    21537119.488
 11  7 30  2 44  0.0000000  0 11G12G05G25G29G04G26G27G09G17G02G10
 109093165.805 8  85007673.580 7  20759725.227                    20759731.785
 108033581.172 8  84182080.218 8  20558083.844                    20558090.758
 117056007.782 8  91212599.530 7  22275028.875                    22275038.980
 127455294.145 6  99316029.620 6  24253975.594                    24253984.172
 122965715.298 6  95817614.46243  23399577.125                    23399584.875
 135691123.22815                  25821175.008
 133070062.27715                  25322405.305
 134259042.510 6 104617540.55342  25548665.828                    25548676.457
 129392691.146 6 100825553.023 5  24622575.047                    24622583.957
 109661683.500 8  85450706.86446  20867881.898                    20867887.035
 113241727.267 8  88240350.84745  21549150.633                    21549158.129
 11  7 30  2 44 30.0000000  0 10G12G05G25G29G04G26G09G17G02G10
 109097720.246 8  85011222.492 7  20760592.211                    20760598.664
 107992617.273 8  84150160.325 8  20550288.719                    20550295.809
 116995117.722 8  91165152.774 7  22263441.836                    22263452.051
 127373630.274 6  99252395.496 6  24238435.664                    24238444.629
 123048463.045 7  95882093.22644  23415323.891                    23415331.219
 135608613.98414                  25805475.820
 134336697.455 6 104678050.97142  25563441.734                    25563454.418
 129468150.140 6 100884352.234 5  24636935.844                    24636943.332
 109687443.648 8  85470779.72346  20872783.977                    20872788.609
 113305486.539 7  88290033.38945  21561283.383                    21561290.809
 11  7 30  2 45  0.0000000  0  9G12G05G25G29G04G09G17G02G10
 109102860.057 8  85015227.549 7  20761570.203                    20761576.500
 107952202.995 8  84118668.711 8  20542598.039                    20542605.258
 116934701.532 8  91118075.257 7  22251945.656                    22251955.004
 127291912.315 6  99188719.194 6  24222885.023                    24222894.109
 123131194.946 7  95946559.65644  23431067.352                    23431074.922
 134414159.767 6 104738411.19842  25578183.227                    25578194.977
 129543786.656 6 100943289.756 5  24651328.813                    24651337.004
 109713372.803 8  85490984.26646  20877718.188                    20877723.199
 113369743.685 7  88340103.89845  21573511.328                    21573518.648
 11  7 30  2 45 30.0000000  0  9G12G05G25G29G04G09G17G02G10
 109108584.670 8  85019688.277 7  20762659.586                    20762666.285
 107912339.329 8  84087606.134 8  20535012.352                    20535019.465
 116874761.156 8  91071368.497 7  22240538.766                    22240548.754
 127210140.541 6  99125000.940 6  24207324.852                    24207333.797
 123213910.031 7  96011012.96044  23446807.406                    23446815.387
 134491427.221 6 104798619.66542  25592886.070                    25592897.980
 129619600.263 6 101002365.240 5  24665755.203                    24665763.938
 109739469.849 8  85511319.63846  20882684.164                    20882689.145
 113434496.272 8  88390560.45545  21585833.484                    21585840.039
 11  7 30  2 46  0.0000000  0  9G12G05G25G29G04G09G17G02G10
 109114894.118 8  85024604.734 7  20763860.008                    20763866.816
 107873027.770 8  84056973.775 8  20527531.266                    20527538.711
 116815298.866 8  91025034.288 7  22229223.289                    22229233.922
 127128316.226 6  99061241.802 6  24191753.352                    24191762.852
 123296607.613 6  96075452.63944  23462543.992                    23462551.262
 134568497.278 6 104858674.22242  25607552.258                    25607563.766
 129695590.847 6 101061578.638 5  24680215.945                    24680224.055
 109765733.992 8  85531785.20846  20887682.414                    20887687.160
 113499741.851 7  88441401.15445  21598249.445                    21598256.000
 11  7 30  2 46 30.0000000  0  9G12G05G25G29G04G09G17G02G10
 109121789.225 8  85029977.538 7  20765171.984                    20765178.977
 107834269.659 8  84026772.670 8  20520155.938                    20520162.867
 116756317.021 8  90979074.439 7  22217999.641                    22218009.805
 127046439.999 6  98997442.218 6  24176172.500                    24176181.734
 123379286.984 7  96139878.11044  23478277.125                    23478284.684
 134645367.992 6 104918573.48542  25622180.297                    25622192.074
 129771758.544 6 101120930.119 5  24694710.570                    24694718.277
 109792164.725 8  85552380.58846  20892711.789                    20892716.301
 113565478.101 7  88492624.21645  21610758.320                    21610765.527
 11  7 30  2 47  0.0000000  0  9G12G05G25G29G04G09G17G02G10
 109129268.589 8  85035805.622 7  20766595.602                    20766602.082
 107796065.348 7  83997003.107 8  20512886.117                    20512892.988
 116697816.970 8  90933490.025 7  22206867.508                    22206877.637
 126964512.869 6  98933602.913 6  24160582.602                    24160591.691
 123461946.995 7  96204288.51644  23494007.102                    23494014.758
 134722036.154 6 104978314.91942  25636769.594                    25636781.133
 129848102.262 6 101180418.749 6  24709237.742                    24709245.762
 109818760.340 8  85573104.44246  20897772.844                    20897777.477
 113631702.003 7  88544227.25445  21623360.156                    21623367.531
 11  7 30  2 47 30.0000000  0  9G12G05G25G29G04G09G17G02G10
 109137332.224 8  85042088.966 7  20768129.797                    20768136.578
 107758416.029 7  83967666.000 8  20505721.672                    20505728.000
 116639800.955 8  90888282.764 7  22195827.445                    22195837.172
 126882535.685 7  98869724.643 6  24144983.344                    24144992.125
 123544586.801 7  96268683.17344  23509732.688                    23509740.945
 134798499.722 6 105037896.90043  25651320.695                    25651332.121
 129924622.302 6 101240044.759 6  24723799.281                    24723807.637
 109845520.012 8  85593956.14146  20902865.047                    20902870.156
 113698411.144 7  88596208.40345  21636054.734                    21636061.902
 11  7 30  2 48  0.0000000  0  9G12G05G25G29G04G09G17G02G10
 109145980.387 8  85048827.799 7  20769775.414                    20769782.488
 107721323.402 8  83938762.677 8  20498663.242                    20498669.965
 116582271.249 8  90843454.456 7  22184879.672                    22184889.484
 126800508.934 7  98805807.759 6  24129373.797                    24129383.367
 123627205.938 7  96333061.71744  23525454.727                    23525463.453
 134874756.373 6 105097317.57942  25665831.859                    25665844.387
 130001318.276 6 101299807.847 6  24738394.219                    24738402.023
 109872443.089 8  85614935.16746  20907988.281                    20907993.660
 113765603.629 7  88648566.17445  21648840.805                    21648847.660
 11  7 30  2 48 30.0000000  0  9G12G05G25G29G04G09G17G02G10
 109155212.787 8  85056021.869 7  20771532.438                    20771538.867
 107684788.155 8  83910293.686 8  20491710.641                    20491717.637
 116525230.010 8  90799006.757 7  22174025.016                    22174035.023
 126718433.652 7  98741853.057 6  24113755.148                    24113764.488
 123709803.678 6  96397423.59444  23541172.852                    23541180.063
 134950803.879 6 105156575.39943  25680302.930                    25680315.527
 130078190.220 6 101359708.065 6  24753022.617                    24753030.398
 109899528.971 8  85636041.04746  20913142.719                    20913147.246
 113833277.038 7  88701298.71845  21661718.883                    21661725.734
 11  7 30  2 49  0.0000000  0  9G12G05G25G29G04G09G17G02G10
 109165028.688 8  85063670.612 7  20773400.359                    20773407.320
 107648810.964 8  83882259.528 8  20484864.289                    20484871.043
 116468678.680 8  90754940.830 7  22163263.836                    22163273.789
 126636310.274 6  98677860.896 6  24098127.656                    24098137.504
 123792378.673 6  96461767.71144  23556885.477                    23556893.848
 135026639.559 6 105215668.15843  25694734.391                    25694745.953
 130155237.432 6 101419744.816 6  24767684.141                    24767691.543
 109926775.905 8  85657272.43346  20918327.188                    20918332.164
 113901428.111 7  88754403.44145  21674687.672                    21674694.320
 11  7 30  2 49 30.0000000  0  9G12G05G25G29G04G09G17G02G10
 109175428.379 8  85071774.282 7  20775379.406                    20775386.109
 107613393.284 8  83854661.366 8  20478124.539                    20478131.496
 116412619.592 8  90711258.471 7  22152596.039                    22152605.742
 126554140.176 6  98613832.310 6  24082491.766                    24082500.496
 123874930.702 6  96526093.95043  23572594.641                    23572603.172
 135102260.852 5 105274593.71042  25709123.883                    25709135.988
 130232459.792 6 101479918.070 5  24782378.625                    24782386.328
 109954183.555 8  85678629.04346  20923542.938                    20923547.961
 113970054.911 7  88807878.87545  21687746.516                    21687753.730
 11  7 30  2 50  0.0000000  0  9G12G05G25G29G04G09G17G02G10
 109186411.274 8  85080332.367 7  20777469.203                    20777475.742
 107578535.621 8  83827499.573 8  20471491.367                    20471498.508
 116357054.646 8  90667961.139 7  22142022.500                    22142032.465
 126471923.953 6  98549767.770 6  24066845.750                    24066854.570
 123957458.714 6  96590401.45244  23588300.172                    23588307.609
 135177665.695 6 105333350.72142  25723472.961                    25723485.660
 130309856.975 6 101540227.534 5  24797106.680                    24797115.090
 109981751.022 8  85700110.18646  20928788.813                    20928793.594
 114039154.921 7  88861723.03745  21700896.273                    21700903.336
 11  7 30  2 50 30.0000000  0  9G12G05G25G29G04G09G17G02G10
 109197977.123 8  85089344.717 7  20779670.352                    20779676.594
 107544239.262 8  83800775.154 8  20464965.250                    20464971.852
 116301985.885 8  90625050.440 7  22131543.336                    22131553.148
 126389662.499 6  98485668.009 6  24051192.328                    24051201.277
 124039961.935 6  96654689.67344  23603998.945                    23604008.055
 135252851.617 5 105391937.15442  25737780.305                    25737792.750
 130387429.033 6 101600673.325 5  24811867.813                    24811875.855
 110009477.305 7  85721715.09446  20934064.914                    20934069.672
 114108725.597 7  88915933.94745  21714135.141                    21714142.023
 11  7 30  2 51  0.0000000  0  9G12G05G25G29G04G09G17G02G10
 109210124.937 8  85098810.551 7  20781981.617                    20781988.438
 107510504.639 8  83774488.463 8  20458545.727                    20458552.785
 116247414.644 8  90582527.436 7  22121158.727                    22121168.613
 126307356.429 6  98421533.496 6  24035530.070                    24035538.828
 124122439.357 6  96718957.76944  23619695.063                    23619703.047
 135327816.011 5 105450350.97042  25752044.094                    25752057.813
 130465174.724 6 101661254.381 5  24826662.516                    24826670.363
 110037360.861 8  85743442.54546  20939371.047                    20939375.520
 114178763.598 7  88970509.02745  21727462.602                    21727469.465
 11  7 30  2 51 30.0000000  0  9G12G05G25G29G04G09G17G02G10
 109222855.259 8  85108730.277 7  20784404.664                    20784411.027
 107477333.235 7  83748640.629 8  20452233.305                    20452240.152
 116193343.642 8  90540394.217 7  22110869.469                    22110879.000
 126225007.124 6  98357365.269 6  24019858.641                    24019867.828
 124204890.870 6  96783205.68243  23635384.320                    23635392.805
 135402557.153 5 105508590.73442  25766270.000                    25766280.832
 130543094.594 6 101721971.177 5  24841490.133                    24841497.832
 110065401.796 7  85765292.63046  20944707.188                    20944712.020
 114249267.310 7  89025446.97345  21740879.516                    21740886.402
 11  7 30  2 52  0.0000000  0  9G12G05G25G29G04G09G17G02G10
 109236167.505 8  85119103.453 7  20786937.523                    20786944.688
 107444725.860 8  83723232.305 8  20446028.148                    20446035.043
 116139774.524 8  90498652.075 7  22100675.133                    22100684.926
 126142615.318 6  98293163.939 5  24004180.344                    24004188.602
 124287315.556 7  96847432.70443  23651069.828                    23651077.371
 135477072.89415                  25780450.125
 130621188.241 5 101782823.385 5  24856351.000                    24856359.309
 110093599.069 8  85787264.54546  20950072.914                    20950077.980
 114320234.317 7  89080745.93045  21754383.703                    21754390.934
 11  7 30  2 52 30.0000000  0  9G12G05G25G29G04G09G17G02G10
 109250060.742 8  85129929.356 7  20789581.359                    20789587.926
 107412683.278 8  83698264.095 8  20439931.094                    20439938.012
 116086709.184 8  90457302.483 7  22090577.703                    22090587.152
 126060181.960 7  98228930.189 5  23988493.703                    23988501.863
 124369712.685 7  96911638.23143  23666749.359                    23666757.121
 135551357.89915                  25794586.125
 130699455.434 6 101843810.792 5  24871245.305                    24871253.633
 110121951.527 8  85809357.36946  20955468.016                    20955473.055
 114391661.452 7  89136403.44445  21767975.891                    21767982.930
 11  7 30  2 53  0.0000000  0 10G12G05G25G29G04G26G09G17G02G10
 109264534.876 8  85141207.902 7  20792335.750                    20792342.227
 107381205.994 8  83673736.360 8  20433940.820                    20433947.645
 116034149.212 8  90416346.703 7  22080575.430                    22080585.281
 125977707.635 7  98164664.539 6  23972799.758                    23972807.574
 124452081.199 7  96975821.50343  23682423.773                    23682431.352
 134166121.07815                  25530970.500
 135625414.21515                  25808679.133
 130777895.457 6 101904932.900 5  24886171.797                    24886180.246
 110150458.110 8  85831570.29246  20960892.930                    20960897.785
 114463546.004 7  89192417.39245  21781654.914                    21781662.012
 11  7 30  2 53 30.0000000  0 10G12G05G25G29G04G26G09G17G02G10
 109279589.362 8  85152938.666 7  20795200.766                    20795207.363
 107350294.816 8  83649649.761 8  20428058.422                    20428065.324
 115982096.410 8  90375786.109 7  22070670.094                    22070679.941
 125895193.363 7  98100367.772 6  23957097.727                    23957106.320
 124534420.484 7  97039981.97343  23698092.102                    23698099.863
 134079048.789 5                  25514399.266
 135699238.166 5                  25822725.297
 130856507.928 6 101966189.382 5  24901130.508                    24901139.422
 110179118.069 8  85853902.73846  20966346.805                    20966351.195
 114535885.247 8  89248785.63845  21795420.516                    21795428.039
 11  7 30  2 54  0.0000000  0 10G12G05G25G29G04G26G09G17G02G10
 109295223.215 8  85165120.891 7  20798175.578                    20798182.129
 107319950.697 8  83626005.016 8  20422284.086                    20422291.016
 115930552.722 8  90335622.222 7  22060861.406                    22060871.719
 125812640.046 7  98036040.585 6  23941388.164                    23941396.910
 124616729.830 7  97104119.12543  23713755.711                    23713762.512
 133991745.04215                  25497785.078
 135772827.376 5                  25836729.359
 130935292.594 6 102027580.039 5  24916123.664                    24916131.449
 110207930.574 8  85876354.05046  20971829.320                    20971834.141
 114608676.914 7  89305506.41145  21809272.328                    21809279.574
 11  7 30  2 54 30.0000000  0 10G12G05G25G29G04G26G09G17G02G10
 109311435.905 8  85177754.151 7  20801260.703                    20801267.434
 107290174.271 8  83602802.627 8  20416617.797                    20416625.094
 115879519.823 8  90295856.351 7  22051150.328                    22051160.297
 125730048.501 6  97971683.630 6  23925671.398                    23925680.199
 124699008.692 7  97168232.55343  23729411.633                    23729419.578
 133904211.82215                  25481127.703
 135846179.58315                  25850688.500
 131014248.814 6 102089104.318 5  24931147.766                    24931156.609
 110236894.767 8  85898923.55746  20977341.344                    20977345.934
 114681918.339 7  89362577.63945  21823209.984                    21823216.789
 11  7 30  2 55  0.0000000  0 10G12G05G25G29G04G26G09G17G02G10
 109328227.253 8  85190838.308 7  20804456.000                    20804462.559
 107260965.824 8  83580042.829 8  20411059.711                    20411066.641
 115828999.588 8  90256489.954 7  22041536.570                    22041546.586
 125647419.775 7  97907297.666 6  23909947.445                    23909956.371
 124781256.321 6  97232321.60843  23745062.859                    23745071.535
 133816451.704 5                  25464427.906
 135919292.088 5                  25864601.711
 131093376.378 5 102150762.178 5  24946205.688                    24946214.102
 110266009.692 8  85921610.51846  20982881.406                    20982886.094
 114755606.848 7  89419997.25945  21837232.250                    21837239.785
 11  7 30  2 55 30.0000000  0 10G12G05G25G29G04G26G09G17G02G10
 109345596.374 8  85204372.693 7  20807761.305                    20807767.719
 107232326.443 8  83557726.457 8  20405609.656                    20405616.441
 115778993.723 8  90217524.373 7  22032020.953                    22032030.688
 125564754.857 7  97842883.534 6  23894217.516                    23894226.078
 124863472.002 7  97296385.72143  23760708.211                    23760716.074
 133728467.04315                  25447684.195
 135992162.694 5                  25878467.008
 131172675.080 6 102212553.342 5  24961294.828                    24961303.867
 110295274.548 8  85944414.30846  20988450.039                    20988455.242
 114829739.682 7  89477763.10145  21851339.344                    21851346.320
 11  7 30  2 56  0.0000000  0 10G12G05G25G29G04G26G09G17G02G10
 109363542.832 8  85218356.942 7  20811176.234                    20811183.016
 107204256.808 8  83535854.041 8  20400268.250                    20400275.355
 115729503.677 8  90178960.736 7  22022603.445                    22022613.074
 125482054.481 7  97778441.775 6  23878479.359                    23878488.484
 124945654.732 6  97360424.23743  23776347.086                    23776355.266
 133640260.05315                  25430899.367
 136064789.482 5 106024630.95652  25892286.867                    25892299.137
 131252144.086 6 102274477.274 5  24976418.094                    24976426.336
 110324688.096 8  85967333.96146  20994047.398                    20994052.164
 114904313.734 7  89535872.74645  21865530.531                    21865537.301
 11  7 30  2 56 30.0000000  0 10G12G05G25G29G04G26G09G17G02G10
 109382065.814 8  85232790.425 7  20814701.289                    20814707.750
 107176757.445 8  83514425.987 8  20395035.250                    20395042.324
 115680531.542 8  90140800.650 7  22013284.336                    22013293.988
 125399319.796 7  97713973.285 6  23862735.914                    23862744.668
 125027804.082 6  97424436.70343  23791979.227                    23791987.574
 133551833.79115                  25414072.813
 136137170.07115                  25906061.586
 131331783.152 5 102336533.682 5  24991573.445                    24991581.617
 110354249.544 8  85990368.86046  20999672.898                    20999677.809
 114979326.830 7  89594324.51145  21879805.141                    21879811.902
 11  7 30  2 57  0.0000000  0 10G12G05G25G29G04G26G09G17G02G10
 109401164.463 8  85247672.482 7  20818335.539                    20818342.410
 107149828.631 8  83493442.528 8  20389910.805                    20389917.813
 115632078.787 8  90103045.274 7  22004064.031                    22004073.770
 125316551.993 6  97649478.974 6  23846985.203                    23846993.977
 125109919.436 6  97488422.63443  23807605.688                    23807614.074
 133463190.05815                  25397203.938
 136209302.35215                  25919787.656
 131411592.00215 102398722.39115  25006758.891                    25006769.496
 110383958.375 8  86013518.60646  21005326.320                    21005331.223
 115054776.303 7  89653116.30845  21894162.313                    21894169.301
 11  7 30  2 57 30.0000000  0 10G12G05G25G29G04G26G09G17G02G10
 109420838.564 8  85263002.959 7  20822079.398                    20822085.871
 107123471.805 8  83472904.762 8  20384895.305                    20384902.195
 115584147.657 8  90065696.375 7  21994942.563                    21994952.230
 125233752.208 6  97584959.777 6  23831228.633                    23831237.758
 125192000.605 6  97552381.93543  23823225.305                    23823233.609
 133374332.04115 103928094.86252  25380294.578                    25380303.867
 136281188.43715                  25933467.227
 131491571.15115 102461043.76915  25021978.992                    25021988.371
 110413814.378 8  86036783.03146  21011007.555                    21011012.547
 115130659.906 7  89712246.39545  21908602.578                    21908610.023
 11  7 30  2 58  0.0000000  0 10G12G05G25G29G04G26G09G17G02G10
 109441087.387 8  85278781.260 7  20825932.617                    20825938.945
 107097686.558 8  83452812.392 8  20379988.633                    20379995.395
 115536738.870 8  90028754.491 7  21985921.063                    21985931.273
 125150920.575 6  97520415.755 6  23815465.602                    23815475.121
 125274045.975 6  97616313.35743  23838838.414                    23838846.129
 133285261.438 5 103858689.20242  25363345.656                    25363355.031
 136352817.326 5                  25947097.352
 131571718.905 5 102523496.546 5  25037231.477                    25037240.297
 110443815.548 8  86060160.58546  21016716.617                    21016721.430
 115206973.768 7  89771711.71945  21923124.781                    21923131.547
 11  7 30  2 58 30.0000000  0  9G12G05G25G29G04G26G17G02G10
 109461909.983 8  85295006.650 7  20829895.188                    20829901.629
 107072474.862 8  83433166.942 8  20375190.820                    20375197.281
 115489855.467 8  89992221.999 7  21976999.688                    21977009.176
 125068059.540 6  97455848.804 6  23799698.789                    23799707.336
 125356056.577 6  97680217.67143  23854443.953                    23854453.078
 133195981.84115 103789120.72652  25346355.875                    25346365.816
 131652035.865 6 102586081.203 5  25052516.164                    25052523.871
 110473962.237 8  86083651.52046  21022453.328                    21022458.070
 115283716.575 7  89831511.31545  21937728.211                    21937735.215
 11  7 30  2 59  0.0000000  0  9G12G05G25G29G04G26G17G02G10
 109483305.578 8  85311678.542 7  20833966.625                    20833972.844
 107047836.514 8  83413968.254 8  20370502.281                    20370509.289
 115443498.501 8  89956099.718 7  21968177.984                    21968187.715
 124985169.300 6  97391259.067 6  23783924.469                    23783932.980
 125438031.003 6  97744093.82644  23870043.078                    23870052.266
 133106495.232 5 103719390.98842  25329328.281                    25329337.500
 131732520.81115 102648796.67015  25067831.445
 110504253.363 8  86107254.99746  21028217.781                    21028222.586
 115360885.052 7  89891642.59845  21952412.891                    21952420.152
 11  7 30  2 59 30.0000000  0  9G12G05G25G29G04G26G17G02G10
 109505273.058 8  85328796.051 7  20838146.789                    20838153.477
 107023771.453 8  83395216.278 8  20365922.992                    20365929.887
 115397669.199 8  89920388.611 7  21959456.922                    21959467.141
 124902250.741 7  97326647.270 6  23768145.734                    23768154.156
 125519968.169 6  97807940.92843  23885635.742                    23885644.383
 133016803.93015 103649501.57152  25312258.477                    25312269.977
 131813173.41115 102711642.75815  25083178.758
 110534687.688 8  86130970.07346  21034008.938                    21034013.574
 115438476.458 7  89952103.42945  21967178.039                    21967185.273
 11  7 30  3  0  0.0000000  0 10G12G05G25G29G04G26G09G17G02G10
 109527810.961 8  85346358.055 7  20842435.523                    20842442.434
 107000279.714 8  83376911.055 8  20361452.719                    20361459.270
 115352368.337 8  89885089.248 7  21950836.797                    21950845.977
 124819304.237 7  97262013.733 6  23752361.586                    23752369.824
 125601866.954 6  97871758.12444  23901221.023                    23901228.703
 132926909.641 6 103579454.06142  25295153.914                    25295163.445
 136636761.78115                  26001130.891
 131893992.26015 102774618.47214  25098558.461
 110565263.507 8  86154795.39746  21039827.430                    21039832.484
 115516486.903 7  90012890.80045  21982023.164                    21982029.875
 11  7 30  3  0 30.0000000  0 10G12G05G25G29G04G26G09G17G02G10
 109550919.287 8  85364364.529 7  20846833.016                    20846839.809
 106977362.086 8  83359053.187 8  20357091.688                    20357098.230
 115307598.337 8  89850203.546 7  21942317.273                    21942327.039
 124736331.459 7  97197359.669 6  23736572.844                    23736580.707
 125683727.375 6  97935545.44043  23916798.305                    23916805.898
 132836815.618 5 103509250.97242  25278008.875                    25278018.805
 136707095.15514                  26014514.602
 131974977.713 4 102837724.042 5  25113968.258
 110595980.922 8  86178731.04846  21045672.383                    21045677.516
 115594914.416 7  90074003.14545  21996947.398                    21996954.777
 11  7 30  3  1  0.0000000  0 10G12G05G25G29G04G26G09G17G02G10
 109574597.533 8  85382815.111 7  20851339.023                    20851345.477
 106955019.550 8  83341643.450 8  20352839.719                    20352846.238
 115263361.107 8  89815733.015 7  21933898.734                    21933908.660
 124653333.929 7  97132686.336 6  23720778.703                    23720786.344
 125765549.506 6  97999302.92943  23932367.906                    23932376.484
 132746524.884 5 103438894.52042  25260826.969                    25260837.184
 136777155.85916                  26027849.016
 132056129.454 4 102900959.152 4  25129411.695
 110626839.523 8  86202776.73046  21051544.617                    21051549.371
 115673756.721 7  90135438.69445  22011950.234                    22011957.586
 11  7 30  3  1 30.0000000  0  9G12G05G25G29G04G26G17G02G10
 109598844.223 8  85401708.632 7  20855952.641                    20855959.227
 106933252.246 8  83324681.934 8  20348697.781                    20348704.777
 115219657.740 8  89781678.478 7  21925582.625                    21925592.176
 124570312.056 7  97067994.026 6  23704980.297                    23704988.098
 125847332.112 6  98063029.63043  23947931.164                    23947938.875
 132656039.547 5 103368386.51643  25243609.234                    25243618.398
 132137447.373 5 102964323.708 4  25144886.648
 110657838.166 8  86226931.52846  21057444.063                    21057449.074
 115753010.873 7  90197195.18645  22027032.117                    22027038.578
 11  7 30  3  2  0.0000000  0  9G12G05G25G29G04G26G17G02G10
 109623658.539 8  85421044.447 7  20860674.773                    20860681.012
 106912060.727 8  83308169.085 8  20344664.953                    20344671.598
 115176490.025 8  89748041.316 7  21917367.867                    21917377.527
 124487267.496 6  97003284.055 6  23689177.047                    23689185.371
 125929074.886 7  98126725.27243  23963486.195                    23963494.445
 132565362.488 5 103297729.11642  25226352.836                    25226362.977
 132218930.60015 103027817.17015  25160394.180
 110688976.416 8  86251195.11046  21063368.984                    21063374.297
 115832674.194 7  90259270.47645  22042191.555                    22042198.582
 11  7 30  3  2 30.0000000  0  9G12G05G25G29G04G26G09G02G10
 109649039.350 8  85440821.696 7  20865504.398                    20865511.305
 106891445.001 8  83292104.904 8  20340742.250                    20340748.672
 115133859.198 8  89714822.507 7  21909255.609                    21909265.215
 124404200.932 6  96938556.923 6  23673369.773                    23673378.039
 126010777.163 6  98190389.33843  23979034.031                    23979042.113
 132474496.02515 103226924.12852  25209062.094                    25209071.223
 136985730.82215                  26067541.195
 110720253.048 8  86275566.51246  21069320.719                    21069325.910
 115912743.524 7  90321662.17745  22057427.828                    22057434.738
 11  7 30  3  3  0.0000000  0  8G12G05G25G29G04G26G02G10
 109674986.205 8  85461040.024 7  20870442.102                    20870448.883
 106871405.595 8  83276489.796 8  20336928.406                    20336935.309
 115091767.029 8  89682023.432 7  21901245.766                    21901255.102
 124321113.840 7  96873813.828 6  23657559.148                    23657567.488
 126092438.788 6  98254021.73043  23994573.539                    23994581.430
 132383443.044 5 103155973.80742  25191734.906                    25191744.230
 110751667.765 8  86300045.52646  21075298.914                    21075303.832
 115993216.646 7  90384368.49145  22072741.656                    22072749.070
 11  7 30  3  3 30.0000000  0  8G12G05G25G29G04G26G02G10
 109701497.183 8  85481697.921 7  20875487.172                    20875493.656
 106851942.293 8  83261323.616 8  20333224.672                    20333231.070
 115050214.454 8  89649644.817 7  21893338.266                    21893348.160
 124238007.174 7  96809055.450 6  23641744.633                    23641752.391
 126174058.581 6  98317621.57643  24010104.750                    24010112.363
 132292205.762 5 103084879.88642  25174372.555                    25174382.637
 110783219.329 8  86324631.17446  21081302.953                    21081307.934
 116074089.895 7  90447386.61545  22088130.859                    22088138.379
 11  7 30  3  4  0.0000000  0  8G12G05G25G29G04G26G02G10
 109728571.793 8  85502795.011 7  20880638.766                    20880645.820
 106833055.230 8  83246606.441 8  20329630.852                    20329637.262
 115009202.817 8  89617687.728 7  21885533.805                    21885543.574
 124154881.474 7  96744282.250 6  23625926.258                    23625934.148
 126255636.052 6  98381188.43143  24025628.953                    24025637.047
 132200786.85115 103013644.51052  25156975.711                    25156986.156
 110814906.554 8  86349322.51846  21087332.734                    21087337.824
 116155360.637 7  90510714.44445  22103596.641                    22103604.141
 11  7 30  3  4 30.0000000  0  8G12G05G25G29G04G26G02G10
 109756208.358 8  85524329.987 7  20885898.258                    20885905.074
 106814745.023 8  83232338.776 8  20326146.406                    20326152.617
 114968733.558 8  89586153.253 7  21877833.141                    21877842.711
 124071738.075 7  96679495.243 6  23610104.039                    23610112.430
 126337170.622 6  98444721.78343  24041143.344                    24041152.879
 132109188.507 5 102942269.26442  25139545.906                    25139555.621
 110846728.826 8  86374119.09646  21093388.469                    21093393.578
 116237026.008 7  90574349.79745  22119137.250                    22119143.730
 11  7 30  3  5  0.0000000  0  8G12G05G25G29G04G26G02G10
 109784406.063 7  85546302.222 7  20891264.406                    20891270.578
 106797011.983 8  83218520.835 8  20322772.039                    20322779.047
 114928808.181 8  89555042.588 7  21870235.359                    21870245.156
 123988578.318 7  96614695.461 6  23594279.586                    23594287.988
 126418661.942 6  98508221.54043  24056651.102                    24056659.453
 132017413.887 5 102870756.66742  25122080.758                    25122091.793
 110878686.049 7  86399020.83146  21099469.453                    21099474.348
 116319083.743 7  90638290.87645  22134752.016                    22134759.621
 11  7 30  3  5 30.0000000  0  8G12G05G25G29G04G26G02G10
 109813164.226 8  85568711.165 7  20896736.500                    20896743.102
 106779855.957 8  83205152.529 8  20319507.289                    20319513.480
 114889428.261 8  89524356.966 7  21862741.563                    21862751.137
 123905403.434 7  96549883.906 6  23578451.594                    23578459.973
 126500109.727 6  98571687.32343  24072150.469                    24072158.680
 131925465.862 5 102799108.99542  25104583.492                    25104593.945
 110910777.602 8  86424027.24546  21105576.625                    21105580.984
 116401530.793 7  90702535.31745  22150441.773                    22150448.137
 11  7 30  3  6  0.0000000  0  8G12G05G25G29G04G26G02G10
 109842481.084 8  85591555.456 7  20902315.227                    20902322.344
 106763277.094 8  83192233.952 8  20316352.172                    20316358.969
 114850594.657 8  89494097.036 7  21855352.070                    21855361.344
 123822214.188 7  96485061.187 6  23562620.508                    23562629.918
 126581513.013 6  98635118.38743  24087641.023                    24087649.582
 131833346.380 5 102727327.60342  25087055.570                    25087064.555
 110943001.877 7  86449137.07846  21111708.266                    21111712.914
 116484364.147 7  90767080.79945  22166203.930                    22166211.008
 11  7 30  3  6 30.0000000  0  8G12G05G25G29G04G26G02G10
 109872355.900 8  85614834.539 7  20908000.664                    20908007.121
 106747275.529 8  83179765.218 8  20313307.344                    20313313.730
 114812308.947 8  89464264.030 7  21848066.828                    21848076.289
 123739012.079 7  96420228.469 6  23546788.570                    23546796.980
 126662871.611 6  98698514.69343  24103123.203                    24103131.691
 131741058.691 5 102655415.23042  25069492.164                    25069502.844
 110975358.497 8  86474350.01846  21117865.852                    21117870.750
 116567581.033 7  90831925.10345  22182039.820                    22182046.133
 11  7 30  3  7  0.0000000  0  8G12G05G25G29G04G26G02G10
 109902786.892 8  85638546.979 7  20913791.227                    20913798.074
 106731851.347 8  83167746.403 8  20310371.961                    20310378.828
 114774572.105 8  89434858.711 7  21840885.313                    21840894.988
 123655797.954 7  96355386.337 6  23530952.906                    23530961.215
 126744184.776 6  98761875.56543  24118596.508                    24118604.988
 131648605.221 5 102583373.70242  25051899.922                    25051909.281
 111007846.402 7  86499665.27846  21124048.086                    21124052.805
 116651178.414 7  90897065.91545  22197947.406                    22197955.023
